GFSSE_prec_radar_000.txt.gz
Reflectivity
-20 -20 -20 -16 2 7 -20 -20 -20 -20 -20 -20 -20 -20 -20 -20 -20 -20 -20 -20 -20 -20 -18 11 11 9 -3 17 13 -18 -20 -20 -20 -20 -20 -20 -20 -20 -20 -4 7 -20 -20
-20 -20 6 -1 -20 -20 -20 -20 -20 -20 -20 -20 -20 -20 -20 -18 -20 -20 -20 -20 -20 -19 -20 -20 -20 -20 -20 -20 -20 -20 -20 -20 -20 -20 -20 -20 -20 -20 -20 5 -20 -20 7
-20 -20 -6 -20 -20 -3 -20 -20 -20 -20 -20 -20 -20 -20 -20 -20 -20 -19 -20 -17 -20 -20 -20 -20 -20 -20 -20 -20 -20 -20 -20 -20 -20 -20 -20 -20 -20 -20 -20 -17 -20 -20 -20
-20 -20 -20 -20 -20 -20 -20 -20 -20 -20 -20 -20 -20 -20 -12 -20 10 13 17 -13 -20 -20 -20 -20 -20 -20 -20 -20 -20 -20 -20 -20 -20 -20 -20 -20 -20 -20 -20 -3 -11 -20 -20
-20 -20 -20 -20 -20 7 -20 -20 -20 -20 -20 -20 -20 -20 -10 8 -11 7 9 -20 -20 -20 -20 -20 -20 -20 -20 -20 -20 -20 -20 -20 -20 -20 -20 -20 -20 -20 -20 -11 -20 -20 -20
-20 -20 -20 -20 -20 -14 -20 -20 -20 -20 -20 -20 -20 -20 -20 13 5 16 -4 -20 -20 -20 -20 -20 -20 -20 -20 -20 -20 -20 -20 -20 -20 -20 -20 -20 -20 -20 -20 -9 -20 -20 -20
-20 -20 -20 -20 -20 -20 -20 -20 -20 -20 -20 -20 -20 -20 -20 -20 -2 -11 -13 -20 -20 -20 -20 -20 -20 -20 -20 -20 -6 6 -17 -20 -20 -20 -20 -20 -20 -20 -20 -20 -20 -20 -2
-20 -20 -20 -20 -20 -20 -20 -20 -20 -20 -20 -20 -20 -20 -20 -20 -20 -20 -20 -20 -20 -20 -20 -20 -20 -20 -20 -20 -20 -19 -5 -18 -20 -20 -20 -20 -20 -20 -20 -20 -12 -20 -20
-20 -20 -20 -20 -20 -20 -20 -20 -10 2 2 -20 -20 -20 -20 -20 -20 -20 -20 -20 -20 -20 -20 -20 -20 -20 -20 -20 -20 -20 -20 -20 -20 -20 -20 -20 -20 -20 -20 -20 -20 -20 -12
-20 -20 -20 -20 -20 -20 -20 -20 -20 -20 -20 -20 -20 -20 -20 -20 -20 -20 -20 -20 -20 -20 -20 -20 -20 -20 -20 -20 -20 -20 -20 -20 -20 -20 -20 -20 -20 -20 -20 -20 -20 -20 -20
-20 -20 -20 -20 -20 -20 -20 -20 -20 -20 -20 -20 -20 -20 -20 -20 -20 -20 -20 -20 -20 -20 -20 -20 -20 -20 -20 -20 -20 -20 -20 -20 -20 -20 -20 -20 -20 -20 -20 -14 -20 -20 -20
-20 -20 -20 -20 -20 -20 -20 -20 -20 -20 -20 -20 -20 -20 -20 -20 -20 -20 -20 -20 -20 -20 -20 -20 -20 -18 -5 -20 -20 -20 -20 -20 -20 -20 -20 -20 -20 -20 4 9 -8 -8 -8
-20 -20 -20 -20 -20 -20 -20 -20 -20 -20 -20 -20 -20 -20 -20 -20 -20 -20 -20 -20 -20 -20 -20 -20 -20 -20 -20 -20 -20 -20 -20 -20 -20 -20 -20 -20 -20 -20 3 15 23 4 -20
-20 -20 -20 -20 -20 -20 -20 -20 -20 -20 -20 -20 -20 -20 -20 -20 -20 -20 -20 -18 -20 -20 -20 -20 -20 -20 -20 -20 -20 -20 -20 -20 -20 -20 -20 -20 -20 -20 -20 -20 -20 -20 -18
-20 -20 -20 -20 -20 -20 -20 -20 -20 -20 -20 -20 -20 -20 -20 -20 -20 -20 -20 -20 -20 -20 -16 -20 -20 -20 -20 -20 -20 -20 -20 -20 -20 -20 -20 -20 -20 -20 -20 -20 -20 -20 -20
-20 -20 -20 -20 -20 -20 -20 -20 -20 -20 -20 -20 -20 -20 -20 -20 -20 -20 -11 -3 -10 -20 -20 -20 -20 -20 -20 -20 -20 -20 -20 -20 -20 -20 -20 -20 -20 -20 -20 -20 -20 -20 -20
-20 -20 -20 -20 -20 -20 -20 -20 -20 -20 -20 -20 -20 -20 -0 4 -9 -0 -18 -19 -20 -20 -20 -20 -20 -20 -20 -20 -20 -20 -20 -20 -20 -20 -20 -20 -20 -20 -20 -20 -20 -20 -20
-20 -20 -20 -20 -20 -20 -20 -20 -20 -17 11 12 1 -19 -18 -20 -20 -20 -20 -20 -20 -20 -20 -20 -20 -20 -20 -20 -20 -20 -20 -20 -20 -20 -20 -20 -20 -20 -20 -20 -20 -20 -20
-20 -20 -20 -20 -20 -20 -20 -15 1 4 -0 3 -19 -20 -20 -20 -20 -20 -20 -20 -20 -20 -20 -20 -20 -20 -20 -20 -20 -20 -20 -20 -20 -20 -20 -20 -20 -20 -20 -20 -20 -20 -20
-20 -20 -20 -20 -20 -20 -20 -6 -0 10 -20 -20 -20 -20 -20 -20 -20 -20 -20 -20 -20 -20 -20 -20 -20 -20 -20 -20 -20 -20 -20 -20 -20 -20 -20 -20 -20 -20 -20 -20 -20 -20 -20
-20 -20 -20 -20 -20 -20 -20 -20 -20 -19 -20 -20 -20 -20 -20 -20 -20 -20 -20 -20 -20 -20 -20 -20 -20 -20 -20 -20 -20 -20 -20 -20 -20 -20 -20 -20 -20 -20 -20 -20 -20 -20 -20
-20 -20 -20 -20 -20 -20 -20 -20 -20 -20 -20 -20 -20 -20 -20 -20 -20 -20 -20 -20 -20 -20 -20 -20 -20 -20 -20 -20 -20 -20 -20 -20 -20 -20 -20 -20 -20 -20 -20 -20 -20 -20 -20
-20 -20 -20 -20 -20 -20 -20 -20 -20 -20 -20 -20 -20 -20 -20 -20 -20 -20 -20 -20 -20 -20 -20 -20 -20 -20 -20 -20 -20 -20 -20 -20 -20 -20 -20 -20 -20 -20 -20 -20 -20 -20 -20
-20 -20 -20 -20 -20 -20 -20 -20 -20 -20 -20 -20 -20 -20 -20 -20 -20 -20 -20 -20 -20 -20 -20 -20 -20 -20 -20 -20 -20 -20 -20 -20 -20 -20 -20 -20 -20 -20 -20 -20 -20 -20 -20
-20 -20 -20 -20 -20 -20 -20 -20 -20 -20 -20 -20 -20 -20 -20 -20 -20 -20 -20 -20 -20 -20 -20 -20 -20 -20 -20 -20 -20 -20 -20 -20 -20 -20 -20 -20 -20 -20 -20 -20 -20 -20 -20
-20 -20 -20 -20 -20 -20 -20 -20 -20 -20 -20 -20 -20 -20 -20 -20 -20 -20 -20 -20 -20 -20 -20 -20 -20 -20 -20 -20 -20 -20 -20 -20 -20 -20 -20 -20 -20 -20 -20 -20 -20 -20 -20

GFSSE_prec_radar_003.txt.gz
Reflectivity
-20 -20 10 14 8 7 -20 -20 -20 -20 -20 -20 -20 -20 -20 -20 -20 -20 -20 -20 -20 -20 -20 -16 -14 -3 12 16 12 -20 -20 -20 -20 -20 -20 -20 -20 -14 -17 -20 -18 -18 -20
-20 -20 -20 13 -20 -20 -20 -20 -20 -20 -20 -20 -20 4 -20 -20 -20 -20 -20 -20 -20 -20 -20 -20 -20 -20 -20 -20 -20 -20 -20 -20 -20 -20 -20 -20 -20 -20 -20 5 -19 -20 -20
-20 -20 -20 -20 12 -20 -20 -20 -20 -20 -20 -20 -20 -20 -20 -7 -20 -16 -20 -16 -20 -20 -20 -20 -20 -20 -20 -20 -20 -20 -20 -20 -20 -20 -20 -20 -20 -20 -20 -0 -20 -20 -20
-20 -20 -20 -8 -20 -6 -16 -20 -20 -20 -20 -20 -20 -20 16 -11 17 17 13 -14 -20 -20 -20 -20 -20 -20 -20 -20 -20 -20 -20 -20 -20 -20 -20 -20 -20 -20 -20 -13 6 -20 -20
-20 -20 -20 -20 -20 6 -20 -20 -20 -20 -20 -20 -20 -20 6 13 14 11 -0 -20 -20 -20 -20 -20 -20 -20 -20 -20 -20 -20 -20 -20 -20 -20 -20 -20 -20 -20 -19 18 16 13 4
-20 -20 -20 -20 -19 6 -20 -20 -20 -20 -20 -20 -20 -20 -15 2 15 13 9 -20 -20 -20 -20 -20 -20 -20 -20 -20 -20 -20 -20 -20 -20 -20 -20 -20 -20 -20 -20 -20 1 14 5
-20 -20 -20 -3 -6 -20 -20 -20 -20 -20 -20 -20 -20 -20 -20 -7 13 16 11 -20 -20 -20 -20 -20 -20 -20 -20 -20 -20 -19 8 4 -20 -20 -20 -20 -20 -20 -20 -20 1 -13 11
-20 -20 -20 -6 -17 -20 -20 -20 -20 -20 -20 -20 -20 -20 -20 -20 -20 14 -6 -2 -20 -20 -20 -20 -20 -20 -20 -20 -20 -20 -20 -20 -20 -20 -20 -20 -20 -20 -20 -20 -20 -2 14
-20 -20 -20 -20 -15 -20 -20 -20 -20 -20 -20 -20 -20 -20 -20 -20 -20 -20 2 -20 -20 -20 -20 -20 -20 -20 -20 -20 -20 -20 -20 -20 -20 -20 -20 -20 -20 -20 -20 -20 -20 -15 -0
-20 -20 -20 -20 -20 -20 -20 -20 -20 -19 -20 -20 -20 -20 -20 -20 -20 -20 -20 -20 -20 -20 -20 -20 -20 -20 -20 -20 -20 -20 -20 -20 -20 -20 -20 -20 -20 -20 -6 -19 11 5 6
-17 -20 -20 -20 -20 -20 -20 -20 -20 -20 -20 -20 -20 -20 -20 -20 -20 -20 -20 -20 -20 -20 -20 -20 -11 -12 -7 9 -6 -6 -20 -20 -20 -20 -20 -20 -20 -20 -20 -2 -20 0 15
-20 -20 -20 -20 -20 -20 -20 -20 -20 -20 -20 -20 -20 -20 -20 -20 -20 -20 -20 -20 -20 -20 -20 -16 12 -5 -20 -20 -20 -20 -20 -20 -20 -20 -20 -20 -20 -20 -7 -6 14 16 16
-20 -20 -20 -20 -20 -20 -20 -20 -20 -20 -20 -20 -20 -20 -20 -20 -20 -20 -20 -20 -20 -20 -20 -20 -20 -20 -20 -20 -20 -20 -20 -20 -20 -20 -20 -20 -20 -20 -20 -20 -17 -9 9
-20 -20 -20 -20 -20 -20 -20 -20 -20 -20 -20 -20 -20 -20 -20 -20 -20 -20 -20 -20 -20 -20 -20 -20 -20 -20 -20 -20 -20 -20 -20 -20 -20 -20 -20 -20 -20 -20 -20 -20 -20 -20 -18
-20 -20 -20 -20 -20 -20 -20 -20 -20 -20 -20 -20 -20 -20 -20 -20 -20 -20 -15 9 -20 -20 -20 -20 -20 -20 -20 -20 -20 -20 -20 -20 -20 -20 -20 -20 -20 -20 -20 -20 -20 -20 -20
-20 -20 -20 -20 -20 -20 -20 -20 -20 -20 -20 -20 -20 -20 -20 -20 -20 -20 -20 -20 -20 -20 -20 -20 -20 -20 -20 -20 -20 -20 -20 -20 -20 -20 -20 -20 -20 -20 -20 -20 -20 -20 -20
-20 -20 -20 -20 -20 -20 -20 -20 -20 -20 -20 -20 -15 -20 4 8 -7 -20 -20 -20 -20 -20 -20 -20 -20 -20 -20 -20 -20 -20 -20 -20 -20 -20 -20 -20 -20 -20 -20 -20 -20 -20 -20
-20 -20 -20 -20 -20 -20 -20 -20 15 -13 -9 -3 15 -1 12 -15 -20 -20 -20 -20 -20 -20 -20 -20 -20 -20 -20 -20 -20 -20 -20 -20 -20 -20 -20 -20 -20 -20 -20 -20 -20 -20 -20
-20 -20 -20 -20 -20 -20 -20 -20 10 13 12 3 7 -3 -20 -20 -13 -20 -20 -20 -20 -20 -20 -20 -20 -20 -20 -20 -20 -20 -20 -20 -20 -20 -20 -20 -20 -20 -20 -20 -20 -20 -20
-20 -20 -20 -20 -20 -20 -20 -1 9 13 15 9 9 7 -20 -20 -20 -20 -20 -20 -20 -20 -20 -20 -20 -20 -20 -20 -20 -20 -20 -20 -20 -20 -20 -20 -20 -20 -20 -20 -20 -20 -20
-20 -20 -20 -20 -20 -20 -20 -20 14 16 7 5 0 -20 -20 -20 -20 -20 -20 -20 -20 -20 -20 -20 -20 -20 -20 -20 -20 -20 -20 -20 -20 -20 -20 -20 -20 -20 -20 -20 -20 -20 -20
-20 -20 -20 -20 -20 -20 -20 -20 -20 0 8 -15 -20 -20 -20 -20 -20 -20 -20 -20 -20 -20 -20 -20 -20 -20 -20 -20 -20 -20 -20 -20 -20 -20 -20 -20 -20 -20 -20 -20 -20 -20 -20
-20 -20 -20 -20 -20 -20 -20 -20 -20 -2 -20 -20 -20 -20 -20 -20 -20 -20 -20 -20 -20 -20 -20 -20 -20 -20 -20 -20 -20 -20 -20 -20 -20 -20 -20 -20 -20 -20 -20 -20 -20 -20 -20
-20 -20 -20 -20 -20 -20 -20 -20 -20 -20 -20 -20 -20 -20 -20 -20 -20 -20 -20 -20 -20 -20 -20 -20 -20 -20 -20 -20 -20 -20 -20 -20 -20 -20 -20 -20 -20 -20 -20 -20 -20 -20 -20
-20 -20 -20 -20 -20 -20 -20 -20 -20 -20 -20 -20 -20 -20 -20 -20 -20 -20 -20 -20 -20 -20 -20 -20 -20 -20 -20 -20 -20 -20 -20 -20 -20 -20 -20 -20 -20 -20 -20 -20 -20 -20 -20
-20 -20 -20 -20 -20 -20 -20 -20 -20 -20 -20 -20 -20 -20 -20 -20 -20 -20 -20 -20 -20 -20 -20 -20 -20 -20 -20 -20 -20 -20 -20 -20 -20 -20 -20 -20 -20 -20 -20 -20 -20 -20 -20

GFSSE_prec_radar_006.txt.gz
Reflectivity
-20 -20 -20 -20 10 -20 -7 -20 -20 -20 -20 -20 -20 -11 4 -8 5 -20 -20 -20 -20 -20 -20 -20 -13 -19 16 16 16 -14 -9 -20 -20 -20 -20 -20 -20 -20 -6 -9 -20 -18 -17
-20 -20 16 8 8 -20 -20 -20 -20 -20 -20 -20 -20 18 2 -19 -18 -20 -20 -20 -20 -20 -20 -20 -20 -20 -19 -1 15 -20 -19 -20 -20 -20 -20 -20 -20 -20 -20 -20 17 -20 -20
-20 -20 -20 -13 -20 -20 -20 -20 -20 -20 -20 -20 -20 -6 -20 -8 -20 -18 -20 -16 -20 -20 -20 -20 -20 -20 -20 -20 -20 -20 -20 -20 -20 -20 -20 -20 -20 -20 -20 -20 16 -20 -12
-20 -20 -20 13 -17 -20 -20 -20 -20 -20 -20 -20 -20 -20 5 -14 17 11 9 -15 -20 -20 -20 -20 -20 -20 -20 -20 -20 -20 -20 -20 -20 -20 -20 -20 -20 -20 -20 -17 14 -7 -17
-20 -20 -20 14 -3 -11 -20 -20 -20 -20 -20 -20 -20 -20 1 16 -9 -20 -20 -20 -20 -20 -20 -20 -20 -20 -20 -20 -20 -20 -20 -20 -20 -20 -20 -20 -20 -20 -20 15 17 13 14
-20 -20 -20 -20 -20 4 -20 -20 -20 -20 -20 -20 -20 -20 -16 13 9 14 5 -20 -20 -20 -20 -20 -20 -20 -20 -20 -20 -20 0 -20 -20 -20 -20 -20 -20 -20 -20 -20 -20 12 7
-20 -20 -20 -17 -20 -20 -20 -20 -20 -20 -20 -20 -20 -20 -15 13 14 18 15 -20 -20 -20 -20 -20 -20 -20 -20 -20 -20 -20 -20 -2 -20 -20 -20 -20 -20 -20 -20 -20 -20 -8 6
-20 -20 -20 -14 -12 -17 -20 -20 -20 -20 -20 -20 -20 -20 -20 -20 -20 16 15 7 -20 -20 -20 -20 -20 -20 -20 -20 -20 -20 -20 -20 -20 -20 -20 -20 -20 -20 -20 -20 -20 -20 -20
-20 -20 -20 -12 -20 -20 -20 -20 -20 -20 -20 -20 -20 -20 -20 -20 -20 -20 -20 -20 -20 -20 -20 -20 -20 -20 -20 -20 -20 -20 -20 -20 -20 -20 -20 -20 -20 -20 -20 9 -2 -10 -20
-20 -20 -20 1 4 -20 -20 -20 -20 -20 -20 -20 -20 -20 -20 -20 -20 -20 -20 -20 -20 -20 -20 -20 -20 -20 -20 -20 -20 -20 -20 -20 -20 -20 -20 -20 -20 -20 16 14 16 6 8
-20 -19 -20 1 -20 -20 -20 -20 -20 -20 -20 -20 -20 -20 -20 -20 -20 -20 -20 -20 -20 -20 -20 -20 14 12 -20 -20 -20 -20 -20 -20 -20 -20 -20 -20 -20 -19 2 -4 -14 -15 0
-20 -20 -20 -20 -20 -20 -20 -20 -20 -20 -20 -20 -20 -20 -20 -20 -20 -20 -20 -20 -20 -20 -20 -20 -20 -20 -20 -20 -20 -20 -20 -20 -20 -20 -20 -20 -20 -20 -20 -20 -20 -11 -19
-20 -20 2 -2 -19 -20 -20 -20 -20 -20 -20 -20 -20 -20 -20 -20 -20 -20 -20 -20 -20 -20 -10 -20 -20 -20 -20 -20 -20 -20 -20 -20 -20 -20 -20 -20 -20 -20 -20 -20 -20 -20 -14
-20 -20 -20 -20 -20 -20 -20 -20 -20 -20 -20 -20 -20 -20 -20 -20 -20 -20 -20 -20 -20 2 -20 -20 -20 -20 -20 -20 -20 -20 -20 -20 -20 -20 -20 -20 -20 -20 -20 -20 -20 -20 -20
-20 -20 -20 -20 -20 -20 -20 -20 -20 -20 -20 -20 -20 -20 -20 -20 -20 -20 -11 -5 -5 -20 -20 -20 -20 -20 -20 -20 -20 -20 -20 -20 -20 -20 -20 -20 -20 -20 -20 -20 -20 -20 -20
-20 -20 -20 -20 -20 -20 -20 -20 -20 -20 -20 -20 -20 -20 -20 12 -10 -20 9 -20 -20 -20 -20 -20 -20 -20 -20 -20 -20 -20 -20 -20 -20 -20 -20 -20 -20 -20 -20 -20 -20 -20 -20
-20 -20 -20 -20 -20 -20 -20 -20 -20 -20 -20 -20 4 -20 10 12 13 -19 -20 -20 -20 -20 -20 -20 -20 -20 -20 -20 -20 -20 -20 -20 -20 -20 -20 -20 -20 -20 -20 -20 -20 -20 -20
-20 -20 -20 -20 -20 -20 -20 -20 -14 -20 22 8 8 16 13 10 -4 5 -20 -20 -20 -20 -20 -20 -20 -20 -20 -20 -20 -20 -20 -20 -20 -20 -20 -20 -20 -20 -20 -20 -20 -20 -20
-20 -20 -20 -20 -20 -20 -20 -20 14 -8 -0 9 8 14 10 -20 -20 -20 -20 -20 -20 -20 -20 -20 -20 -20 -20 -20 -20 -20 -20 -20 -20 -20 -20 -20 -20 -20 -20 -20 -20 -20 -20
-20 -20 -20 -20 -20 -20 -20 -20 13 8 -0 8 11 9 7 -18 -20 -20 -20 -20 -20 -20 -20 -20 -20 -20 -20 -20 -20 -20 -20 -20 -20 -20 -20 -20 -20 -20 -20 -20 -20 -20 -20
-20 -20 -20 -20 -20 -20 -20 -19 4 -4 8 2 12 8 7 -20 -20 -20 -20 -20 -20 -20 -20 -20 -20 -20 -20 -20 -20 -20 -20 -20 -20 -20 -20 -20 -20 -20 -20 -20 -20 -20 -20
-20 -20 -20 -20 -20 -18 -20 -20 -20 -17 3 -7 -8 -3 -20 -20 -20 -20 -20 -20 -20 -20 -20 -20 -20 -20 -20 -20 -20 -20 -20 -20 -20 -20 -20 -20 -20 -20 -20 -20 -20 -20 -20
-20 -20 -20 -20 -20 -16 -20 -20 -20 -15 -16 -15 -15 -20 -20 -20 -20 -20 -20 -20 -20 -20 -20 -20 -20 -20 -20 -20 -20 -20 -20 -20 -20 -20 -20 -20 -20 -20 -20 -20 -20 -20 -20
-20 -20 -20 -20 -20 -20 -6 -18 -20 -20 -20 -20 -20 -20 -20 -20 -20 -20 -20 -20 -20 -20 -20 -20 -20 -20 -20 -20 -20 -20 -20 -20 -20 -20 -20 -20 -20 -20 -20 -20 -20 -20 -20
-20 -20 -20 -20 -20 -20 2 -10 -20 -20 -20 -20 -20 -20 -20 -20 -20 -20 -20 -20 -20 -20 -20 -20 -20 -20 -20 -20 -20 -20 -20 -20 -20 -20 -20 -20 -20 -20 -20 -20 -20 -20 -20
-20 -20 -20 -20 -20 -2 1 -20 -20 -20 -20 -20 -20 -20 -20 -20 -20 -20 -20 -20 -20 -20 -20 -20 -20 -20 -20 -20 -20 -20 -20 -20 -20 -20 -20 -20 -20 -20 -20 -20 -20 -20 -20

GFSSE_prec_radar_012.txt.gz
Reflectivity
-20 -20 2 -13 -20 -20 -20 -20 -20 -20 -20 -20 -20 -20 -19 3 -17 -20 -20 -20 -20 -20 -20 -20 -20 -17 -8 20 19 -20 -20 -20 -20 -20 -20 -20 -20 -20 -20 -20 -9 -20 -20
-20 -20 8 -20 -20 -20 -20 -20 -20 -20 -20 -20 -20 7 -20 16 14 14 11 -20 -20 -20 -20 -20 -20 -20 -8 -11 -17 5 -17 -20 -20 -20 -20 -20 -20 -20 -20 -20 -20 -19 -20
-20 -20 -20 -14 -20 -15 -20 -20 -20 -20 -20 -20 -6 -20 -20 -20 -20 -20 -20 -20 -20 -20 -20 -20 -20 -20 -20 -20 -20 -20 -20 -20 -20 -20 -20 -20 -20 -20 -20 -20 -20 -20 -20
-20 -20 -20 -10 10 -20 -20 -20 -20 -20 -20 -20 -16 -20 -20 -20 -20 -20 -20 -20 -20 -20 -20 -20 -20 -20 -20 -20 -20 -20 -20 -20 -20 -20 -20 -20 -20 -20 -20 -20 -20 -20 -20
-20 -20 -20 9 13 -20 -20 -20 -20 -20 -20 -20 -20 -20 -20 -20 -20 -20 -20 -20 -20 -20 -20 -20 -20 -20 -20 -20 -20 -6 7 -16 -20 -20 -20 -20 -20 -20 -20 -20 -20 -2 7
-20 -20 -19 -20 -20 -20 -4 -20 -20 -20 -20 -20 -20 -20 -20 10 12 -20 -20 -20 -20 -20 -20 -20 -20 -20 -20 -20 -20 -20 1 9 -17 -20 -20 -20 -20 -20 -20 -20 -20 -20 -20
-20 -20 -20 -13 11 -20 -4 -20 -15 -20 -20 -20 -20 -20 -20 -20 5 9 -20 -20 -20 -20 -20 -20 -20 -20 -20 -20 -20 -15 -20 -20 -20 -17 -20 -20 -20 -20 -17 12 -14 -20 -20
-20 -20 -20 0 12 -20 -20 -17 -20 -20 -20 -20 -20 -20 -20 -20 -20 -1 -20 -20 -20 -20 -20 -20 -20 -20 -20 -17 -15 -7 -20 -20 -20 -20 -3 -10 -20 -20 -8 8 7 6 -20
-20 -20 -20 -3 10 -15 12 -2 -20 -20 -20 -20 -20 -20 -20 -20 -20 22 5 -20 -20 -20 -20 -20 -20 6 2 -19 -20 -20 -20 -20 -20 -20 -20 -20 -20 -20 -1 10 17 17 28
-20 -20 -20 -20 -9 13 13 -19 -20 -20 -20 -20 -20 -20 -20 -20 -20 -20 -20 -20 -20 -20 -20 -19 -16 -20 -20 -20 -20 -20 -20 -20 -20 -20 -20 -20 -20 -20 -10 3 -20 -20 -10
-20 -20 -20 -20 -20 12 9 -8 -20 -20 -20 -20 -20 -20 -20 -20 -20 -20 -20 -20 -20 -20 -20 -20 -20 -20 -20 -20 -20 -20 -20 -20 -20 -20 -20 -20 -20 -20 -20 -20 -20 -20 -20
-20 -20 -20 -20 5 3 2 3 -9 -20 -20 -20 -20 -20 -20 -20 -20 -20 -20 -20 -20 -20 -20 -20 -20 -20 -20 -20 -20 -20 -20 -20 -20 -20 -20 -20 -20 -20 -20 -20 -20 -20 -20
-20 -20 -20 -20 0 7 4 2 -20 -20 -1 0 -20 -20 -20 -20 -20 -20 -20 -20 -7 -20 -20 -20 -20 -20 -20 -20 -20 -20 -20 -20 -20 -20 -20 -20 -20 -20 -20 -20 -20 -20 -20
-20 -20 -20 -20 -8 -0 0 -1 -2 -20 -20 -6 -20 -20 -20 -20 -20 -20 -6 3 -20 -20 -20 -20 -20 -20 -20 -20 -20 -20 -20 -20 -20 -20 -20 -20 -20 -20 -20 -20 -20 -20 -20
-20 -20 -20 -20 -17 -16 -0 3 -7 -20 -20 -20 -20 -20 -20 -20 -20 -20 -20 -20 -20 -20 -20 -20 -20 -20 -20 -20 -20 -20 -20 -20 -20 -20 -20 -20 -20 -20 -20 -20 -20 -20 -20
-20 -20 -20 -20 -20 -13 -18 -12 -15 -20 -20 0 -20 -20 -20 -20 -13 -20 -20 -20 -20 -20 -20 -20 -20 -20 -20 -20 -20 -20 -20 -20 -20 -20 -20 -20 -20 -20 -20 -20 -20 -20 -20
-20 -20 -20 -20 -20 -20 -11 -10 -20 -20 -20 1 -20 -20 -20 -20 -20 -20 -20 -20 -20 -20 -20 -20 -20 -20 -20 -20 -20 -20 -20 -20 -20 -20 -20 -20 -20 -20 -20 -20 -20 -20 -20
-20 -20 -20 -20 -20 -4 5 0 -19 -20 -20 -20 -1 -20 -20 -20 -20 -20 -20 -20 -20 -20 -20 -20 -20 -20 -20 -20 -20 -20 -20 -20 -20 -20 -20 -20 -20 -20 -20 -20 -20 -20 -20
-20 -20 -20 -20 -20 -20 -19 -2 -5 -20 -20 -20 -20 -20 -20 -20 -20 -20 -20 -20 -20 -20 -20 -20 -20 -20 -20 -20 -20 -20 -20 -20 -20 -20 -20 -20 -20 -20 -20 -20 -20 -20 -20
-20 -20 -20 -20 -20 -20 -9 0 2 -19 -20 -20 -20 -20 -20 -9 -20 -20 -20 -20 -20 -20 -20 -20 -20 -20 -20 -20 -20 -20 -20 -20 -20 -20 -20 -20 -20 -20 -20 -20 -20 -20 -20
-20 -20 -20 -20 -20 -20 -15 -20 -20 -20 -20 -20 -20 -20 -20 -20 -20 -20 -20 -20 -20 -20 -20 -20 -20 -20 -20 -20 -20 -20 -20 -20 -20 -20 -20 -20 -20 -20 -20 -20 -20 -20 -20
-20 -20 -20 -20 -20 -20 -20 -20 -9 -9 -20 -20 -20 -2 -5 -12 -3 -20 -20 -20 -20 -20 -20 -20 -20 -20 -20 -20 -20 -20 -20 -20 -20 -20 -20 -20 -20 -20 -20 -20 -20 -20 -20
-20 -20 -20 -20 -20 -20 -20 -20 -9 -20 -20 -20 -20 -6 9 4 4 -20 -20 -20 -20 -20 -20 -20 -20 -20 -20 -20 -20 -20 -20 -20 -20 -20 -20 -20 -20 -20 -20 -20 -20 -20 -20
-20 -20 -20 -20 -20 -20 -20 -20 -20 -15 -20 -15 -20 -3 19 -1 -17 -20 -20 -20 -20 -20 -20 -20 -20 -20 -20 -20 -20 -20 -20 -20 -20 -20 -20 -20 -20 -20 -20 -20 -20 -20 -20
-20 -20 -20 -20 -20 -20 -20 -20 24 -20 -20 -20 12 -4 -2 -10 -20 -20 -20 -20 -20 -20 -20 -20 -20 -20 -20 -20 -20 -20 -20 -20 -20 -20 -20 -20 -20 -20 -20 -20 -20 -20 -20
-20 -20 -20 -20 -20 -20 -20 -20 -20 -20 -20 -20 -7 -13 -10 -20 -20 -20 -20 -20 -20 -20 -20 -20 -20 -20 -20 -20 -20 -20 -20 -20 -20 -20 -20 -20 -20 -20 -20 -20 -20 -20 -20

GFSSE_prec_radar_015.txt.gz
Reflectivity
-20 -20 -20 -20 -20 -5 -2 -20 -20 -20 -20 -20 -20 -20 -20 -20 -20 -20 -20 -20 -20 -20 -20 -20 -20 -15 1 24 19 11 -19 -17 -20 -20 -20 -20 -20 -20 -20 -20 -17 -16 -9
-20 -20 -20 -20 -20 -1 -19 -20 -20 -20 -20 -20 -20 -20 10 14 6 -20 -20 -20 -20 -20 -20 -20 -20 -20 -20 13 9 -8 -13 -20 -20 -20 -20 -20 -20 -20 -20 -20 -20 -15 -20
-20 -20 -20 -20 -20 -20 -20 -20 -20 -20 -20 -11 -20 -20 -20 -20 -20 -20 -20 -20 -20 -20 -20 -20 -20 -20 -20 -20 -20 -20 -20 -20 -20 -20 -20 -20 -20 -20 -20 -20 -20 -20 -20
-20 -20 -20 -20 -20 -20 -20 -20 -20 -20 -20 -20 -20 -20 -20 -20 -20 -20 -20 -20 -20 -20 -20 -20 -20 -20 -20 -20 -20 -20 -20 -20 -20 -20 -20 -20 -20 -20 -20 -20 -20 -20 -13
-20 -20 -20 -20 -12 -20 -20 -20 -20 -20 -20 -20 -20 -20 -20 -20 -20 -20 -20 -20 -20 -20 -20 -20 -20 -20 -20 -20 -20 -20 9 1 -20 -20 -20 -20 -20 -20 -20 -20 -20 -20 -13
-20 -20 -20 7 13 -20 -20 -20 -20 -20 -20 -20 -20 -20 -20 -20 -20 -20 -20 -20 -20 -20 -20 -20 -20 -20 -20 -20 -20 -20 -20 -20 -20 -20 -20 -20 -20 -20 -20 -20 -20 -20 -20
-20 -20 -20 2 7 -19 -20 -20 -20 -20 -20 -20 -20 -20 -20 -20 9 -13 -20 -20 -20 -20 -20 -20 -20 -13 -20 -20 -16 -20 -20 -20 -20 -20 -20 -20 -20 -20 -20 16 -18 -14 -20
-20 -20 -10 -5 15 6 -20 -15 -11 -20 -20 -20 -20 -20 -20 -20 -10 -20 -20 -20 -20 -20 -20 -20 -11 -20 -15 9 -15 -20 -20 -20 -20 -20 -20 -20 -20 -20 -20 5 -9 11 3
-20 -20 -20 7 -1 -19 13 -20 -0 -20 -20 -20 -20 -20 -20 -20 -20 3 -20 -20 -20 -20 -20 -20 10 -6 -20 -20 -20 -20 -20 -20 -20 -20 -20 -20 -20 -20 -10 7 -13 -20 -18
-20 -20 -20 -20 7 -16 -6 -20 -12 -20 -20 -20 -20 -20 -20 -20 -20 -20 8 -20 -20 -20 -20 -20 -20 -20 -20 -20 -20 -20 -20 -20 -20 -20 -20 -20 -20 -20 -20 -20 -20 -20 -20
-20 -20 -20 -20 -20 -11 -20 -20 -20 -20 -20 -20 -20 -20 -20 -20 -20 -20 -20 -20 -20 -20 -20 -20 -20 -20 -20 -20 -20 -20 -20 -20 -20 -20 -20 -20 -20 -20 -20 -20 -20 -20 -20
-20 -20 -20 -20 -20 -20 -13 -20 -20 -20 -20 -20 -20 -20 -20 -20 -20 -20 -20 -20 -20 -20 -20 -20 -20 -20 -20 -20 -20 -20 -20 -20 -20 -20 -20 -20 -20 -20 -20 -20 -20 -20 -20
-20 -20 -20 -20 -20 -20 -20 -7 -20 -20 -20 -20 -20 -20 -20 -20 -20 -20 -20 -20 -20 -20 -20 -20 -20 -20 -20 -20 -20 -20 -20 -20 -20 -20 -20 -20 -20 -20 -14 -20 -20 -20 -20
-20 -20 -20 -20 -20 -20 -20 -20 -20 -20 -20 -20 -20 -20 -20 -20 -20 -20 -20 -20 -20 -20 -20 -20 -20 -20 -20 -20 -20 -20 -20 -20 -20 -20 -20 -20 -20 -20 -20 -20 -20 -20 -20
-20 -20 -20 -20 -19 -11 -20 -20 -20 -20 -20 -20 -20 -20 -20 -20 -20 -20 -20 -20 -20 -20 -20 -20 -20 -20 -20 -20 -20 -20 -20 -20 -20 -20 -20 -20 -20 -20 -20 -20 -20 -20 -20
-20 -20 -20 -20 -20 -20 -19 -16 -20 -20 -20 -20 -20 -20 -20 -20 -20 -20 -20 -20 -20 -20 -20 -20 -20 -20 -20 -20 -20 -20 -20 -20 -20 -20 -20 -20 -20 -20 -20 -20 -20 -20 -20
-20 -20 -20 -20 -20 -20 -10 -19 0 -20 -20 -20 -4 -20 -20 -20 -20 -20 -20 -20 -20 -20 -20 -20 -20 -20 -20 -20 -20 -20 -20 -20 -20 -20 -20 -20 -20 -20 -20 -20 -20 -20 -20
-20 -20 -20 -20 -20 -20 -19 3 -13 -20 -20 -20 -5 -9 -16 -20 -20 -20 -20 -20 -20 -20 -20 -20 -20 -20 -20 -20 -20 -20 -20 -20 -20 -20 -20 -20 -20 -20 -20 -20 -20 -20 -20
-20 -20 -20 -20 -20 -20 -19 7 5 -17 -2 -17 -9 4 -20 -20 -20 -20 -20 -20 -20 -20 -20 -20 -20 -20 -20 -20 -20 -20 -20 -20 -20 -20 -20 -20 -20 -20 -20 -20 -20 -20 -20
-20 -20 -20 -20 -20 -20 -20 -0 7 7 9 -8 -20 -20 -20 -20 -20 -20 -20 -20 -20 -20 -20 -20 -20 -20 -20 -20 -20 -20 -20 -20 -20 -20 -20 -20 -20 -20 -20 -20 -20 -20 -20
-20 -20 -20 -20 -20 -20 -20 -20 3 -20 -12 -20 -20 -20 -20 -20 -20 -20 -20 -20 -20 -20 -20 -20 -20 -20 -20 -20 -20 -20 -20 -20 -20 -20 -20 -20 -20 -20 -20 -20 -20 -20 -20
-20 -20 -20 -20 -20 -20 -20 -20 -19 -7 -15 -20 -8 -20 -20 -20 -11 -0 -20 -20 -20 -20 -20 -20 -20 -20 -20 -20 -20 -20 -20 -20 -20 -20 -20 -20 -20 -20 -20 -20 -20 -20 -20
-20 -20 -20 -20 -20 -20 -20 -20 -12 -20 -20 -20 -20 -20 -20 -20 -10 -12 -19 -20 -20 -20 -20 -20 -20 -20 -20 -20 -20 -20 -20 -20 -20 -20 -20 -20 -20 -20 -20 -20 -20 -20 -20
-20 -20 -20 -20 -20 -20 -20 -20 -20 -20 -20 -20 -20 -20 -20 -19 -18 -0 -20 -20 -20 -20 -20 -20 -20 -20 -20 -20 -20 -20 -20 -20 -20 -20 -20 -20 -20 -20 -20 -20 -20 -20 -20
-20 -20 -20 -20 -20 -20 -20 -20 -20 -20 -20 -20 -20 -20 -20 -20 -1 8 -18 -20 -20 -20 -20 -20 -20 -20 -20 -20 -20 -20 -20 -20 -20 -20 -20 -20 -20 -20 -20 -20 -20 -20 -20
-20 -20 -20 -20 -20 -20 -20 -20 -20 -20 -20 -20 -20 -20 -20 -17 17 -9 -20 -20 -20 -20 -20 -20 -20 -20 -20 -20 -20 -20 -20 -20 -20 -20 -20 -20 -20 -20 -20 -20 -20 -20 -20

GFSSE_prec_radar_018.txt.gz
Reflectivity
-20 -20 -20 -20 -20 -20 -20 -20 -20 -20 -20 -20 -9 -2 -11 -20 -20 -20 -20 -20 -20 -20 -20 -20 -20 -3 20 22 20 16 9 -20 -20 -20 -20 -20 -20 -20 -20 -20 -12 -16 17
-20 -20 -20 -20 -20 -9 -20 -20 -20 -20 -20 -20 -20 -18 11 -8 -20 -20 -20 -20 -20 -20 -20 -20 -20 -20 -12 10 14 6 -20 -20 -20 -20 -20 -20 -20 -20 -20 -20 -20 -9 -18
-20 -10 -20 -20 -20 -17 -20 -20 -20 -20 -20 3 6 -12 12 -3 2 -20 -20 -20 -20 -20 -20 -20 -20 -20 -20 -20 -20 -20 -20 -20 -20 -20 -20 -20 -20 -20 -20 -20 -20 -20 -20
-20 -20 -20 -20 -20 -20 -20 -20 -20 -20 -20 -20 -20 -20 -20 -20 -20 -20 -20 -20 -20 -20 -20 -20 -20 -20 -20 -20 -20 -20 -20 -20 -20 -20 -20 -20 -20 -20 -20 -20 -20 -17 -20
-20 -20 -20 -20 -20 -20 -20 -20 -20 -20 -20 -20 -20 -20 -20 -20 -20 -20 -20 -20 -20 -20 -20 -20 -20 -20 -20 -20 -20 -20 -20 -20 -20 -20 -20 -20 -20 -20 -20 -20 -20 -20 -20
-20 -20 -20 -20 -20 -20 -20 -20 -20 -20 -20 -20 -20 -20 -20 -20 -20 -20 -20 -20 -20 -20 -20 -20 -20 -20 -20 -20 -20 -20 -20 -20 -20 -20 -20 -20 -20 -20 -20 -5 -20 -20 -20
-20 -20 -20 -14 -7 -20 -20 -20 -20 -20 -20 -20 -20 -20 -20 -20 -18 -20 -20 -20 -20 -20 -20 -20 1 -18 -20 -18 -20 -20 -20 -20 -20 -19 10 -18 6 -16 -20 12 1 10 -4
-20 -20 -20 -20 -7 -20 -20 -20 -20 -20 -20 -20 -20 -20 -20 -20 -20 -20 -20 -20 -20 -20 -20 -20 -20 -19 1 -20 -20 -20 -20 -20 -20 -20 -20 -20 -20 -20 -20 -18 13 3 -3
-20 -20 -20 -20 -14 -12 -20 -20 -20 -20 -20 -20 -20 -20 -20 -20 -20 -20 -20 -20 -20 -20 -20 -11 -19 -20 -20 -20 -20 -20 -20 -20 -20 -20 -20 -20 -20 -20 -20 -12 -20 -20 -20
-20 -20 -20 -20 -20 -20 -20 -20 -20 -20 -20 -20 -20 -20 -20 -20 -20 2 -12 -20 -20 -20 -20 -20 -20 -20 -20 -20 -20 -20 -20 -20 -20 -20 -20 -20 -20 -20 -20 -20 -20 -20 -20
-20 -20 -20 -20 -20 -4 -20 -20 -20 -20 -20 -20 -20 -20 -20 -20 -20 -20 -20 -20 -20 -20 -20 -20 -20 -20 -20 -20 -20 -20 -20 -20 -20 -20 -20 -20 -20 -20 -20 -20 -20 -20 -13
-20 -20 -20 -20 -20 -20 -20 -20 -20 -20 -20 -20 -20 -20 -20 -20 -20 -20 -20 -20 -20 -20 -20 -20 -20 -20 -20 -20 -20 -20 -20 -20 -20 -20 -20 -20 -20 -20 1 -20 -8 -20 -20
-20 -20 -20 -20 -20 -20 -12 -20 -20 -20 -20 -20 -20 -20 -20 -20 -20 -20 -20 -20 -20 -20 -20 -20 -20 -20 -20 -20 -20 -20 -20 -20 -20 -20 -20 -20 -20 4 -16 -6 -20 -20 -20
-20 -20 -20 -20 -18 -20 -20 -19 -20 -20 -20 -20 -20 -20 -20 -20 -20 -20 -20 -20 -20 -20 -20 -20 -20 -20 -20 -20 -20 -20 -20 -20 -20 -20 -20 -20 -20 -20 -20 -20 -20 -20 -20
-20 -20 -20 -20 -20 -0 -20 -20 -20 -20 -20 -20 -20 -20 -20 -20 -20 -20 -20 -20 -20 -20 -20 -20 -20 -20 -20 -20 -20 -20 -20 -20 -20 -20 -20 -20 -20 -20 -20 -20 -20 -20 -20
-20 -20 -20 -20 -20 -20 -16 -16 -20 -20 -20 -20 -20 -20 -20 -20 -20 -20 -20 -20 -20 -20 -20 -20 -20 -20 -20 -20 -20 -20 -20 -20 -20 -20 -20 -20 -20 -20 -20 -20 -20 -20 -20
-20 -20 -20 -20 -20 -20 -20 -16 4 -20 -20 -20 -20 -20 -20 -20 -20 -20 -20 -20 -20 -20 -20 -20 -20 -20 -20 -20 -20 -20 -20 -20 -20 -20 -20 -20 -20 -20 -20 -20 -20 -20 -20
-20 -20 -20 -20 -20 -20 -20 -20 -16 -20 -19 -20 -20 -20 -14 -20 -20 -20 -20 -20 -20 -20 -20 -20 -20 -20 -20 -20 -20 -20 -20 -20 -20 -20 -20 -20 -20 -20 -20 -20 -20 -20 -20
-20 -20 -20 -20 -20 -20 -20 -20 -20 -13 -20 -20 -20 -20 -1 -20 -20 -20 -20 -20 -20 -20 -20 -20 -20 -20 -20 -20 -20 -20 -20 -20 -20 -20 -20 -20 -20 -20 -20 -20 -20 -20 -20
-20 -20 -20 -20 -20 -20 -20 -20 -7 6 -11 -20 -20 -20 -20 -20 -20 -20 -20 -20 -20 -20 -20 -20 -20 -20 -20 -20 -20 -20 -20 -20 -20 -20 -20 -20 -20 -20 -20 -20 -20 -20 -20
-20 -20 -20 -20 -20 -20 -20 -20 -20 -20 -9 16 9 -20 -20 -20 -20 -20 -20 -20 -20 -20 -20 -20 -20 -20 -20 -20 -20 -20 -20 -20 -20 -20 -20 -20 -20 -20 -20 -20 -20 -20 -20
-20 -20 -20 -20 -20 -20 -18 -20 -20 -20 -20 -11 -20 0 -20 -20 -20 -20 -20 -20 -20 -20 -20 -20 -20 -20 -20 -20 -20 -20 -20 -20 -20 -20 -20 -20 -20 -20 -20 -20 -20 -20 -20
-20 -20 -20 -20 -20 -20 -20 21 -20 -20 -20 -20 -20 -15 -15 -20 -20 -20 -14 -5 -20 -20 -20 -20 -20 -20 -20 -20 -20 -20 -20 -20 -20 -20 -20 -20 -20 -20 -20 -20 -20 -20 -20
-20 -20 -20 -20 -20 -20 -20 -20 -20 -20 -20 -20 -20 -10 -20 -20 -20 -20 -20 -20 -20 -20 -20 -20 -20 -20 -20 -20 -20 -20 -20 -20 -20 -20 -20 -20 -20 -20 -20 -20 -20 -20 -20
-20 -20 -20 -20 -20 -20 -20 -20 -20 -20 -20 -20 -20 1 -20 -20 -20 -20 -3 -18 -20 -20 -20 -20 -20 -20 -20 -20 -20 -20 -20 -20 -20 -20 -20 -20 -20 -20 -20 -20 -20 -20 -20
-20 -20 -20 -20 -20 -20 13 -20 -20 -20 -20 -20 -20 6 -8 -13 -20 -20 -20 -9 -20 -20 -20 -20 -20 -20 -20 -20 -20 -20 -20 -20 -20 -20 -20 -20 -20 -20 -20 -20 -20 -20 -20

GFSSE_prec_radar_024.txt.gz
Reflectivity
-20 -3 4 -6 -20 -20 -20 -20 -20 7 11 11 3 -5 -20 -20 -20 -20 -20 -20 -20 -20 -20 -20 11 4 22 13 0 -20 -20 -20 -20 -20 -20 -20 -20 -20 -20 -20 -20 -14 -20
-20 -2 3 -1 -20 -20 -20 -20 -20 -20 3 9 12 4 -1 -2 -20 -20 -20 -20 -20 -20 -20 3 6 0 -11 -18 -20 -20 -20 -20 -20 -20 -20 -20 -20 -20 -20 -20 -20 -20 -20
-20 -20 -2 2 -20 -20 -20 -20 -20 -20 -20 -20 9 7 -20 -20 -20 -20 -20 -20 -20 -20 -20 -20 -20 -20 -20 -20 -20 -20 -20 -20 -20 -20 -20 -20 -20 -20 -20 -20 -20 -20 -20
-20 -20 -20 2 -20 -20 -20 -20 -20 -20 -20 -20 2 -0 9 -20 -20 -20 -20 -20 -20 -20 -20 -20 -20 -20 -20 -20 -20 -20 -20 -20 -20 -20 -20 -20 -20 -20 -20 -20 -20 -20 -20
-20 -20 -20 -6 -20 -20 -20 -20 -20 -20 -20 -17 -18 -20 -20 -20 -20 -20 -20 -20 -20 -20 -20 -20 -20 -20 -20 -20 -20 -20 -20 -20 -20 -20 -20 -20 -20 -20 -20 -20 -20 -20 -20
-20 -20 -3 -20 -20 -20 -20 -20 -20 -20 -20 -20 -20 -20 -20 -20 -20 -20 -20 -20 -20 -20 -20 -20 -20 -20 -20 -20 -20 -20 -20 -20 -20 -20 -20 -20 -20 13 -20 -20 -20 -20 -20
-20 -20 -9 -20 -20 -20 -20 -20 -20 -20 -20 -20 -20 -20 -20 -20 -20 -20 -20 -20 -20 -20 -20 -11 -20 -20 -20 -20 -20 -20 -20 -20 -20 -20 -20 -16 1 11 -20 -20 17 7 -20
-20 -20 -20 -20 -20 -20 -20 -20 -20 -20 -20 -20 -20 -20 -20 -20 -20 -20 -20 -20 -20 -20 -2 -17 -20 0 -20 -20 -20 -20 -20 -20 -20 -20 -20 -20 -20 -20 -20 -20 -12 -20 -11
-20 -20 -20 -20 -20 -20 -20 -20 -20 -20 -20 -20 -20 -20 -20 -20 -10 -20 -20 -20 -20 -20 -11 6 4 -20 -20 -20 -20 -20 -20 -20 -20 -20 -20 -20 -20 -20 -20 -20 -20 5 -12
-20 -19 -20 -20 -20 -20 -20 -20 -20 -20 -20 -20 -20 -20 -20 -20 -20 -10 -20 -5 -20 -19 -20 -20 -20 -20 -20 -20 -20 -20 -20 -20 -20 -20 -20 -20 -20 -20 -20 -20 7 -7 10
-4 -20 -20 -20 -20 -20 -20 -20 -20 -20 -20 -20 -20 -20 -20 -20 -20 -20 -20 -20 -20 -20 -20 -20 -20 -20 -20 -20 -20 -20 -20 -20 -20 -20 -20 -20 -20 -12 5 4 7 13 -11
-20 3 12 -20 -20 -20 -20 -20 -20 -20 -20 -20 -20 -20 -20 -20 -20 -20 -20 -20 -20 -20 -20 -20 -20 -20 -20 -20 -20 -20 -20 -20 -20 -20 -20 -20 2 9 6 4 14 7 4
-20 -20 -20 -20 -20 -20 -20 -20 -20 -20 -20 -20 -20 -20 -20 -20 -20 -20 -20 -20 -20 -20 -20 -20 -20 -20 -20 -20 -20 -20 -20 -20 -20 -20 -20 -20 -15 10 11 13 -17 -20 -20
-20 -20 -20 -20 -20 -20 -20 -20 -20 -20 -20 -20 -20 -20 -20 -20 -20 -20 -20 -20 -20 -20 -20 -20 -20 -20 -20 -20 -20 -20 -20 -20 -20 -20 -20 -20 -20 -20 -20 -20 -20 -20 -20
-20 -20 -20 -20 -20 -20 -20 -20 -20 -20 -20 -20 -20 -20 -20 -20 -20 -20 -20 -20 -20 -20 -20 -20 -20 -20 -20 -20 -20 -20 -20 -20 -20 -20 -20 -20 -20 -20 -20 -20 -20 -20 -20
-20 -20 -20 -20 -20 -20 -20 -20 -20 -20 -20 -20 -20 -20 -20 -20 -20 -20 -20 -20 -20 -20 -20 -20 -20 -20 -20 -20 -20 -20 -20 -20 -20 -20 -20 -20 -20 -20 -20 -20 -20 -20 -20
-20 -20 -20 -20 -20 -20 -20 -20 -20 -20 -20 -20 -20 -20 -20 -20 -20 -20 -20 -20 -20 -20 -20 -20 -20 -20 -20 -20 -20 -20 -20 -20 -20 -20 -20 -20 -20 -20 -20 -20 -20 -20 -20
-20 -20 -20 -13 -20 20 -20 -20 -20 -20 -20 -20 -20 -20 -20 -20 -20 -20 -20 -20 -20 -20 -20 -20 -20 -20 -20 -20 -20 -20 -20 -20 -20 -20 -20 -20 -20 -20 -20 -20 -20 -20 -20
-20 -20 -20 -15 -10 -20 2 -20 -20 -20 -20 -20 -20 -20 -20 -20 -20 -20 -20 -20 -20 -20 -20 -20 -20 -20 -20 -20 -20 -20 -20 -20 -20 -20 -20 -20 -20 -20 -20 -20 -20 -20 -20
-20 -20 -20 -20 -20 25 21 14 -15 27 -20 -20 -20 -20 -20 -20 -20 -20 -20 -20 -20 -20 -20 -20 -20 -20 -20 -20 -20 -20 -20 -20 -20 -20 -20 -20 -20 -20 -20 -20 -20 -20 -20
-20 -20 -20 -20 -20 22 23 -20 -6 -20 -20 -20 -20 -20 -14 -20 -20 -20 -20 -20 -20 -20 -20 -20 -20 -20 -20 -20 -20 -20 -20 -20 -20 -20 -20 -20 -20 -20 -20 -20 -20 -20 -20
-20 -20 -20 -20 -20 -20 8 -20 27 22 25 -13 27 -19 4 -11 14 3 -20 -20 -20 -20 -20 -20 -20 -20 -20 -20 -20 -20 -20 -20 -20 -20 -20 -20 -20 -20 -20 -20 -20 -20 -20
-20 -20 -20 -20 -20 -20 -20 4 20 21 23 -4 -19 -15 -8 -20 -10 14 7 -17 -20 -20 -20 -20 -20 -20 -20 -20 -20 -20 -20 -20 -20 -20 -20 -20 -20 -20 -20 -20 -20 -20 -20
-20 -20 -20 -20 -20 -20 -20 -20 -6 -20 -20 -20 -20 18 26 -16 3 10 -9 -18 -20 -20 -20 -20 -20 -20 -20 -20 -20 -20 -20 -20 -20 -20 -20 -20 -20 -20 -20 -20 -20 -20 -20
-20 -20 -20 -20 -20 -20 -20 -20 -19 -15 -20 -20 14 19 14 12 11 -20 -18 -7 7 -20 -20 -20 -20 -20 -20 -20 -20 -20 -20 -20 -20 -20 -20 -20 -20 -20 -20 -20 -20 -20 -20
-20 -20 -20 -20 -20 -20 -20 -20 -20 -20 -20 -20 -4 2 -6 14 -1 -20 -20 -0 15 -1 -20 -20 -19 -20 -20 -20 -20 -20 -20 -20 -20 -20 -20 -20 -20 -20 -20 -20 -20 -20 -20

GFSSE_prec_radar_027.txt.gz
Reflectivity
-20 -20 -0 -2 7 8 1 -0 -18 -20 1 -2 6 -4 -20 -20 -20 -20 -20 -20 -20 -20 -20 5 -20 24 -8 -4 -20 -20 -20 -20 -20 -20 -20 -20 -20 -20 -20 -20 -20 -20 -20
-20 -2 7 16 13 10 -18 3 4 2 9 6 -6 -18 -20 -6 -20 -20 -20 -20 -20 -20 -14 16 25 24 9 -2 -20 -20 -20 -20 -20 -20 -20 -20 -20 -20 -20 -20 -20 -20 -20
-20 2 -18 9 11 -20 -20 -20 -18 -15 -12 10 5 3 -20 -20 -20 -20 -20 -20 -20 -20 11 16 8 -19 -20 -20 -20 -20 -20 -20 -20 -20 -20 -20 -20 -20 -20 -20 -20 -20 -20
-20 -20 -14 15 11 -16 -20 -20 -20 -12 7 11 6 -0 -3 -20 -20 -20 -20 -20 -20 -20 7 8 -13 -20 -20 -20 -20 -20 -20 -20 -20 -20 -20 -20 -20 -20 -20 -20 -20 -20 -20
-20 -20 -20 -2 -0 -20 -20 -20 -20 -20 -20 7 -8 9 -20 -20 -20 -20 -20 -20 -20 -20 -20 -20 -20 -20 -20 -20 -20 -20 -20 -20 -20 -20 -20 -20 -20 -15 -20 -20 -20 -20 -20
-20 -20 -20 -20 -20 -20 -20 -20 -20 -0 6 10 7 -18 -20 -20 -20 -20 -20 -20 -20 -20 -20 -20 -20 -20 -20 -20 -20 -20 -20 -20 -20 -20 -20 -20 -20 5 -20 -20 -17 21 14
-20 -20 -20 -20 -20 -20 -20 -20 -20 -20 -20 -20 -20 -20 -20 -20 -20 -20 -20 -20 -20 -20 -20 -20 -20 -20 -20 -20 -20 -20 -20 -20 -20 -20 -20 -20 -20 12 -20 -15 5 -20 -20
-20 -20 -20 -20 -20 -20 -20 -20 -20 -20 -20 -20 -20 -20 -20 -20 -20 -20 -20 -20 -20 -20 1 -14 -20 -14 -20 -20 -20 -20 -20 -20 -20 -20 -20 -20 -20 -20 -20 -20 -20 -13 16
-20 -20 -20 -20 -20 -20 -20 -20 -20 -20 -20 -20 -20 -20 -20 -20 -20 -20 -20 -20 -20 -20 -9 -11 11 -20 -20 -20 -20 -20 -20 -20 -20 -20 -20 -20 -20 -20 -20 -20 -20 -9 -10
-20 -20 -20 -20 -20 -20 -20 -20 -20 -20 -20 -19 -20 -20 -20 -20 -20 -20 -20 -12 -20 -20 12 -4 -20 -20 -20 -20 -20 -20 -20 -20 -20 -20 -20 -20 -20 -20 -20 -19 15 9 -20
-17 -20 -14 -20 -20 -20 -20 -20 -20 -20 -20 -20 -20 -20 -20 -20 -20 -20 -20 -14 -20 -1 -20 -20 -20 -20 -20 -20 -20 -20 -20 -20 -20 -20 -20 -20 -14 -5 16 -20 12 9 -20
-20 -15 -20 -20 -20 -20 -20 -20 -20 -20 -20 -20 -20 -20 -20 -20 -20 -20 -20 -20 -20 -20 -20 -20 -20 -20 -20 -20 -20 -20 -20 -20 -20 -20 -20 -20 9 9 12 13 14 8 -4
-20 -20 -20 -20 -20 -20 -20 -20 -20 -20 -20 -20 -20 -20 -20 -20 -20 -20 -20 -20 -20 -20 -20 -20 -20 -20 -20 -20 -20 -20 -20 -20 -20 -20 -20 5 9 -5 10 8 -17 -20 -20
-20 -20 -20 -20 -20 -20 -20 -20 -20 -20 -20 -20 -20 -20 -20 -20 -20 -20 -20 -20 -20 -20 -20 -20 -20 -20 -20 -20 -20 -20 -20 -20 -20 -20 -20 -20 -20 -20 -20 -20 -20 -20 -20
-20 -20 -20 -20 -20 -20 -20 -20 -20 -20 -20 -20 -20 -20 -20 -20 -20 -20 -20 -20 -20 -20 -20 -20 -20 -20 -20 -20 -20 -20 -20 -20 -20 -20 -20 -20 -20 -20 -20 -20 -20 -20 -20
-20 -20 -20 -20 -20 -20 -20 -20 -20 -20 -20 -20 -20 -20 -20 -20 -20 -20 -20 -20 -20 -20 -20 -20 -20 -20 -20 -20 -20 -20 -20 -20 -20 -20 -20 -20 -20 -20 -20 -20 -20 -20 -20
-20 -20 -20 -8 4 -20 -20 -20 -20 -20 -20 -20 -20 -20 -20 -20 -20 -20 -20 -20 -20 -20 -20 -20 -20 -20 -20 -20 -20 -20 -20 -20 -20 -20 -20 -20 -20 -20 -20 -20 -20 -20 -20
-20 -20 -20 -20 -20 -20 -10 -17 -20 -20 -20 -20 -20 -20 -20 -20 -20 -20 -20 -20 -20 -20 -20 -20 -20 -20 -20 -20 -20 -20 -20 -20 -20 -20 -20 -20 -20 -20 -20 -20 -20 -20 -20
-20 -20 -20 -20 -20 -2 -20 4 -20 -20 -20 -20 -20 -20 -20 -20 -20 -20 -20 -20 -20 -20 -20 -20 -20 -20 -20 -20 -20 -20 -20 -20 -20 -20 -20 -20 -20 -20 -20 -20 -20 -20 -20
-20 -20 -20 -20 -20 -20 -20 -12 -20 -20 -20 13 -20 -20 -20 -20 -20 -20 -20 -20 -20 -20 -20 -20 -20 -20 -20 -20 -20 -20 -20 -20 -20 -20 -20 -20 -20 -20 -20 -20 -20 -20 -20
-20 -20 -20 -20 -20 -20 -20 -20 21 -20 -20 -20 -20 -20 -20 -20 -20 -20 -20 -20 -20 -20 -20 -20 -20 -20 -20 -20 -20 -20 -20 -20 -20 -20 -20 -20 -20 -20 -20 -20 -20 -20 -20
-20 -20 -20 -20 -20 -20 -20 -20 -20 -20 -20 -20 -10 -20 -13 9 -20 -20 -9 -20 -20 6 -20 -20 -20 -20 -20 -20 -20 -20 -20 -20 -20 -20 -20 -20 -20 -20 -20 -20 -20 -20 -20
-20 -20 -20 -20 -20 -20 -20 -5 -2 17 25 -20 -20 -20 -19 -14 -19 -20 -20 -20 0 -16 -20 -20 -20 -20 -20 -20 -20 -20 -20 -20 -20 -20 -20 -20 -20 -20 -20 -20 -20 -20 -20
-20 -20 -20 -20 -20 -20 -20 -20 -3 -20 -20 -20 -20 19 18 17 9 -10 -20 -18 4 1 5 -20 -20 -20 -20 -20 -20 -20 -20 -20 -20 -20 -20 -20 -20 -20 -20 -20 -20 -20 -20
-20 -20 -20 -20 -20 -20 -20 -20 -20 -14 -20 -20 -20 -20 -19 1 20 22 -8 22 -19 -20 -20 11 -20 -20 -20 -20 -20 -20 -20 -20 -20 -20 -20 -20 -20 -20 -20 -20 -20 -20 -20
-20 -20 -20 -20 -20 -20 -20 -20 -20 10 18 -20 -19 -6 0 -7 7 6 19 -7 -0 -18 -0 15 -1 -20 -20 -20 -20 -20 -20 -20 -20 -20 -20 -20 -20 -20 -20 -20 -20 -20 -20

GFSSE_prec_radar_030.txt.gz
Reflectivity
-20 -20 19 9 0 -9 7 -2 -10 7 14 15 16 16 -20 -20 -20 -20 -20 -20 -20 -20 -19 -20 17 -1 -0 4 -19 -20 -20 -20 -20 -20 -20 -20 -20 -20 -20 -20 -20 -20 -20
-20 -20 7 7 16 16 16 8 12 -16 10 -4 14 15 -3 -20 -20 -20 -20 -20 -20 -20 23 12 23 22 6 -19 -20 -20 -20 -20 -20 -20 -20 -20 -20 -20 -20 -20 -20 -20 -20
-20 -20 -20 8 11 13 12 12 -18 4 -13 -7 -12 2 -20 -20 -20 -20 -20 -20 -20 -20 15 16 12 -5 -20 -20 -20 -20 -20 -20 -20 -20 -20 -20 -20 -20 -20 -20 -20 -20 -20
-20 -20 -20 14 11 11 1 -12 9 11 15 -17 3 -13 -20 -20 -20 -20 -20 -20 -20 8 12 12 5 -20 -20 -20 -20 -20 -20 -20 -20 -20 -20 -20 -20 -20 -20 -20 -20 -20 -20
-20 -20 -20 19 19 16 -20 -20 -16 6 14 -2 3 3 -20 -20 -20 -20 -20 -20 -20 -20 -20 -20 -20 -20 -20 -20 -20 -20 -20 -20 -20 -20 -20 -20 -20 -14 -20 -20 -20 -20 -20
-20 -20 -14 15 13 -15 -20 -20 -20 -20 -20 14 5 -17 -20 -20 -20 -20 -20 -20 -20 -20 -20 -20 -20 -20 -20 -20 -20 -20 -20 -20 -20 -20 -20 -20 -20 13 -20 -20 16 17 14
-20 -20 -0 5 -20 -20 -20 -20 -18 -13 -13 12 -5 -20 -20 -20 -20 -20 -20 -20 -20 -20 -20 -20 -20 -20 -0 -13 -20 -20 -20 -20 -20 -20 -20 -20 -20 -3 -20 -14 -20 2 11
-20 -20 -20 -20 -20 -20 -20 -20 -20 -10 -6 -20 -12 -20 -20 -20 -20 -20 -20 -20 -20 -20 0 -11 -18 1 -20 -20 -20 -20 -20 -20 -20 -20 -20 -20 -20 -20 -20 -20 -20 2 -20
-20 -20 -20 -20 -20 -20 -20 -20 -20 -20 -1 -20 -20 -20 -7 -20 -20 -20 -20 -20 -20 -6 -17 -20 16 -20 -20 -20 -20 -20 -20 -20 -20 -20 -20 -20 -20 -20 -20 -20 -1 5 -5
-20 -20 -20 -20 -20 -20 -20 -20 -20 -20 -5 -0 -20 -20 -20 -20 -20 -20 -20 -20 -20 -20 -18 12 -20 -20 -20 -20 -20 -20 -20 -20 -20 -20 -20 -20 -20 -20 -19 14 9 14 -19
-20 -20 -20 -20 -20 -20 -20 -20 -20 -20 -20 -18 -20 -20 -20 -20 -7 -20 -20 -20 -20 -10 -20 -20 -20 -20 -20 -20 -20 -20 -20 -20 -20 -20 -20 -20 -12 14 15 -20 -14 -2 -20
-20 -20 -20 -15 -20 -20 -20 -20 -20 -20 -20 -20 -20 -20 -20 -20 -20 -20 -20 -20 -20 11 -20 -20 -20 -20 -20 -20 -20 -20 -20 -20 -20 -20 -20 -20 12 -5 10 4 -18 -20 -20
-9 -20 -20 -20 -20 -20 -20 -20 -20 -20 -20 -20 -20 -20 -20 -20 -20 -20 -20 -20 -20 -20 -20 -20 -20 -20 -20 -20 -20 -20 -20 -20 -20 -20 -20 9 5 -12 -15 -19 -20 -20 -20
-20 -20 -20 -20 -18 -20 -20 -20 -20 -20 -20 -20 -20 -20 -20 -20 -20 -20 -20 -20 -20 -20 -20 -20 -20 -20 -20 -20 -20 -20 -20 -20 -20 -20 -20 -20 -20 -20 -20 -20 -20 -20 -20
-20 -20 -20 -10 -2 -8 -20 -20 -20 -20 -20 -20 -20 -20 -20 -20 -20 -20 -20 -20 -20 -20 -20 -20 -20 -20 -20 -20 -20 -20 -20 -20 -20 -20 -20 -20 -20 -20 -20 -20 -20 -20 -20
-20 -20 -20 -20 4 3 -20 -20 -20 -15 -20 -20 -20 -20 -20 -20 -20 -20 -20 -20 -20 -20 -20 -20 -20 -20 -20 -20 -20 -20 -20 -20 -20 -20 -20 -20 -20 -20 -20 -20 -20 -20 -20
-20 -20 -20 -20 -20 -1 -20 -20 -20 -20 -20 -20 -20 -20 -20 -20 -20 -20 -20 -20 -20 -20 -20 -20 -20 -20 -20 -20 -20 -20 -20 -20 -20 -20 -20 -20 -20 -20 -20 -20 -20 -20 -20
-20 -20 -20 -20 -20 -20 -20 -20 -14 -12 -20 -20 -20 -20 -20 -20 -20 -20 -20 -20 -20 -20 -20 -20 -20 -20 -20 -20 -20 -20 -20 -20 -20 -20 -20 -20 -20 -20 -20 -20 -20 -20 -20
-20 -20 -20 -20 -20 -20 -20 -20 -6 -20 2 -20 -20 0 -20 -20 -20 -20 -20 -20 -20 -20 -20 -20 -20 -20 -20 -20 -20 -20 -20 -20 -20 -20 -20 -20 -20 -20 -20 -20 -20 -20 -20
-20 -20 -20 -20 -20 -20 -20 -20 -20 -20 -20 -20 3 -20 26 -20 -20 -20 -20 -20 -20 -20 -20 -20 -20 -20 -20 -20 -20 -20 -20 -20 -20 -20 -20 -20 -20 -20 -20 -20 -20 -20 -20
-20 -20 -20 -20 -20 -20 -20 -20 -20 -20 -20 -20 -20 28 -20 -20 -20 -20 28 -20 -20 -20 -20 -20 -20 -20 -20 -20 -20 -20 -20 -20 -20 -20 -20 -20 -20 -20 -20 -20 -20 -20 -20
-20 -20 -20 -20 -20 -20 -20 -20 -20 -20 -20 -20 24 -17 -18 -20 13 -20 -20 -20 -20 -20 -12 -20 -2 -20 -20 -20 -20 -20 -20 -20 -20 -20 -20 -20 -20 -20 -20 -20 -20 -20 -20
-20 -20 -20 -20 -20 -20 -20 -20 -20 -20 -20 -20 -20 -20 -20 -20 29 -20 -20 -20 -20 -10 -20 -17 -18 -20 -20 -20 -20 -20 -20 -20 -20 -20 -20 -20 -20 -20 -20 -20 -20 -20 -20
-20 -20 -20 -20 -20 -20 -20 -20 -20 -20 -20 -20 -20 -20 -20 0 10 19 -20 23 -13 -20 -20 -17 -12 -20 -20 -20 -20 -20 -20 -20 -20 -20 -20 -20 -20 -20 -20 -20 -20 -20 -20
-20 -20 -20 -20 -20 -20 -20 -20 -20 -20 -20 -20 -20 -20 -13 2 -19 23 25 5 -11 26 -16 -17 9 -18 -20 -20 -20 -20 -20 -20 -20 -20 -20 -20 -20 -20 -20 -20 -20 -20 -20
-20 -20 -20 -20 -20 -20 -20 -20 -20 -20 -20 -20 -10 -20 -20 13 21 21 20 8 -20 -6 19 21 16 11 -20 2 -20 -20 -20 -20 -20 -20 -20 -20 -20 -20 -20 -20 -20 -20 -20

GFSSE_prec_radar_033.txt.gz
Reflectivity
-20 -20 4 12 11 10 9 -5 -20 -12 11 -1 15 10 -20 -14 -20 -20 -20 -20 -20 -20 -20 -16 21 8 13 3 -20 -20 -20 -20 -20 -20 -20 -20 -20 -20 -20 -20 -20 -20 -20
-20 -20 15 17 14 -9 12 -6 17 -20 -3 14 14 12 11 -20 -20 -20 -20 -20 -20 -20 -12 24 11 20 -19 -20 -20 -20 -20 -20 -20 -20 -20 -20 -20 -20 -20 -20 -20 -20 -20
-20 -20 -9 11 3 15 11 11 -5 6 -15 13 11 -9 -10 -20 -20 -20 -20 -20 -20 18 16 24 -3 -20 -20 -20 -20 -20 -20 -20 -20 -20 -20 -20 -20 -20 -20 -20 -20 -20 -20
-20 -20 -20 16 17 9 16 -2 -12 -6 14 -2 -20 -20 -20 -20 -20 -20 -20 -20 -20 4 6 1 -19 -20 -20 -20 -20 -20 -20 -20 -20 -20 -20 -20 -20 -20 -20 -20 -20 -20 -20
-20 -20 -20 11 12 7 3 6 8 9 13 -6 -1 -20 -20 -20 -20 -20 -20 -20 -20 -20 -20 -20 -20 -20 -20 -20 -20 -20 -20 -20 -20 -20 -20 -20 -20 -14 -20 -20 -20 -20 -20
-20 -20 -20 14 17 12 -20 -20 -6 0 14 19 -10 -20 -20 -20 -20 -20 -20 -20 -20 -20 -20 -20 -20 -20 -20 -20 -20 -20 -20 -20 -20 -20 -20 -20 -18 8 -20 10 -16 12 8
-20 -20 -20 17 11 -17 -20 -20 -20 -20 9 15 8 -20 -20 -20 -20 -20 -20 -20 -20 -20 -20 -20 -15 3 2 -20 -20 -20 -20 -20 -20 -20 -20 -20 -20 -10 -8 -20 -15 -1 10
-20 -20 -11 12 -11 -20 -20 -20 -20 -20 -20 15 -20 -20 -20 -20 -20 -20 -20 -20 -20 -12 -11 -0 -5 -10 -20 -20 -20 -20 -20 -20 -20 -20 -20 -20 -20 -20 -20 -20 -9 -4 -20
-20 -20 -20 -17 -20 -20 -20 -20 -20 5 8 14 -6 -6 -18 -5 -20 -20 -20 -20 -20 9 -10 -6 9 -20 -20 -20 -20 -20 -20 -20 -20 -20 -20 -20 -20 -20 -20 -20 9 2 10
-20 -20 -20 -20 -20 -20 -20 -20 -20 -20 -4 -20 -20 -20 -10 -20 -20 -20 -20 -20 -20 5 3 -6 -20 -20 -20 -20 -20 -20 -20 -20 -20 -20 -20 -20 -20 -20 15 2 13 8 -3
3 -18 -20 -20 -20 -20 -20 -20 -20 -20 -20 -20 -20 -20 -18 -20 -18 -20 -20 -20 -20 -10 12 -13 -20 -20 -20 -20 -20 -20 -20 -20 -20 -20 -20 -20 14 16 6 -17 5 -20 -18
-5 -20 -13 -20 -20 -20 -20 -20 -20 -20 -20 -20 -20 -20 -20 -20 -13 -20 -20 -20 -20 -14 -20 -20 -20 -20 -20 -20 -20 -20 -20 -20 -20 -20 -20 3 7 -16 -20 -20 -20 -20 -20
-19 -10 -20 -20 -1 -20 -20 -20 -20 -20 -20 -20 -20 -20 -20 -20 -20 -20 -20 -20 -20 -20 -20 -20 -20 -20 -20 -20 -20 -20 -20 -20 -20 -20 -11 6 8 -3 -20 -20 -20 -20 -20
-7 -3 4 -20 -20 -20 -20 -20 -20 -20 -19 -20 -20 -20 -20 -20 -20 -20 -20 -20 -20 -20 -20 -20 -20 -20 -20 -20 -20 -20 -20 -20 -20 -20 -20 -20 -20 -20 -20 -20 -20 -20 -20
4 -14 -17 -13 -2 -4 -19 -20 -20 -20 -20 -20 -20 -20 -20 -20 -20 -20 -20 -20 -20 -20 -20 -20 -20 -20 -20 -20 -20 -20 -20 -20 -20 -20 -20 -20 -20 -20 -20 -20 -20 -20 -20
-20 -20 -20 -0 1 -20 -16 -16 -16 -20 -20 -20 -20 -20 -20 -20 -20 -20 -20 -20 -20 -20 -20 -20 -20 -20 -20 -20 -20 -20 -20 -20 -20 -20 -20 -20 -20 -20 -20 -20 -20 -20 -20
-20 -20 -20 -20 -11 -1 -20 12 -20 -20 -20 -20 -20 -20 -20 -20 -20 -20 -20 -20 -20 -20 -20 -20 -20 -20 -20 -20 -20 -20 -20 -20 -20 -20 -20 -20 -20 -20 -20 -20 -20 -20 -20
-20 -20 -20 -20 -20 -20 -10 12 6 -19 19 -20 -20 -20 -20 -20 -20 -20 -20 -20 -20 -20 -20 -20 -20 -20 -20 -20 -20 -20 -20 -20 -20 -20 -20 -20 -20 -20 -20 -20 -20 -20 -20
-20 -20 -20 -20 -20 -20 -20 -9 4 19 -20 -20 -20 -20 -20 -20 -20 -20 -20 -20 -20 -20 -20 -20 -20 -20 -20 -20 -20 -20 -20 -20 -20 -20 -20 -20 -20 -20 -20 -20 -20 -20 -20
-20 -20 -20 -20 -20 -20 -20 17 -20 12 -14 -20 -20 -20 -13 -20 -20 -20 -20 -20 -20 -20 -20 -20 -20 -20 -20 -20 -20 -20 -20 -20 -20 -20 -20 -20 -20 -20 -20 -20 -20 -20 -20
-20 -20 -20 -20 -20 -20 0 -20 -20 -10 -17 -13 -20 -20 -20 -18 -20 -20 -20 -20 -20 -20 -20 -20 -20 -20 -20 -20 -20 -20 -20 -20 -20 -20 -20 -20 -20 -20 -20 -20 -20 -20 -20
-20 -20 -20 -20 -20 -20 -20 -20 -20 -20 -20 -20 5 -20 -20 -2 -20 -20 -20 -20 -20 -20 -20 -20 -20 -20 -20 -20 -20 -20 -20 -20 -20 -20 -20 -20 -20 -20 -20 -20 -20 -20 -20
-20 -20 -20 -20 -20 -20 -20 -20 -20 -20 -20 -20 2 -20 -20 -20 -20 -20 -14 -7 -15 8 -20 -20 -20 -20 -20 -20 -20 -20 -20 -20 -20 -20 -20 -20 -20 -20 -20 -20 -20 -20 -20
-20 -20 -20 -20 -20 -20 -20 -20 -20 -20 -20 -20 -20 -20 -20 14 -20 20 -16 -20 19 -18 -20 -20 -20 -20 -20 -20 -20 -20 -20 -20 -20 -20 -20 -20 -20 -20 -20 -20 -20 -20 -20
-20 -20 -20 -20 -20 -20 -20 -20 -20 -20 -20 -20 -20 -20 -20 21 21 24 -14 -18 -20 27 -20 -19 -20 -17 -20 -20 -20 -20 -20 -20 -20 -20 -20 -20 -20 -20 -20 -20 -20 -20 -20
-20 -20 -20 -20 -20 -20 -20 -20 -7 -19 -20 -20 -20 -20 -20 -20 13 16 22 20 -4 -17 -20 -11 19 17 20 11 -12 1 -18 -20 -20 -20 -20 -20 -20 -20 -20 -20 -20 -20 -20

GFSSE_prec_radar_036.txt.gz
Reflectivity
-20 -20 -7 -5 -11 -20 -20 -20 -20 -20 13 16 16 12 -8 -11 -20 -20 -20 -20 -20 -20 -20 24 -20 -20 -20 -20 -20 -20 -20 -20 -20 -20 -20 -20 -20 -20 -20 -20 -20 -20 -20
-20 -20 -20 4 13 8 -20 -20 -20 -20 17 15 9 12 -15 -20 -20 -20 -20 -20 -20 -20 -20 16 9 -14 -20 -20 -20 -20 -20 -20 -20 -20 -20 -20 -20 -20 -20 -20 -20 -20 -19
-20 -20 -20 1 6 8 -20 18 -2 -20 -20 14 -14 -3 -16 -20 -20 -20 -20 -20 -8 -5 24 21 -20 -20 -20 -20 -20 -20 -20 -20 -20 -20 -20 -20 -20 -20 -20 -20 -20 -20 -20
-20 -20 -20 -20 -20 -13 -19 7 -20 -8 10 10 -11 -20 -20 -20 -20 -20 -20 -20 14 6 -8 8 -20 -20 -20 -20 -20 -20 -20 -20 -20 -20 -20 -20 -20 -20 -20 -20 -20 -20 -20
-20 -20 -20 7 3 14 5 -20 4 10 15 5 -18 -20 -20 -20 -20 -20 -20 -20 -7 -20 -15 -20 -20 -20 -20 -20 -20 -20 -20 -20 -20 -20 -20 -7 -20 -14 -20 13 -2 -13 -20
-20 -20 -20 14 7 10 5 13 -0 14 16 17 -14 -20 -20 -20 -20 -20 -20 -20 -20 -20 -20 -20 -20 -20 -20 -20 -20 -20 -20 -20 -20 -20 -20 -20 9 -20 -12 -20 -19 -5 19
-20 -20 -20 11 15 5 3 -20 13 -10 3 16 -20 -20 -20 -20 -20 -20 -20 -20 -20 -20 -20 -20 -20 -16 -20 -20 -20 -20 -20 -20 -20 -20 -20 -20 -19 -15 -20 -15 6 4 -0
-20 -20 -20 14 15 5 -20 -20 -20 -8 14 5 8 -20 -20 -20 -20 -20 -20 -20 -20 -20 -20 -20 -6 -20 -20 -20 -20 -20 -20 -20 -20 -20 -20 -20 -20 -20 -20 -2 -20 -20 -20
-20 -20 -20 -5 -17 -3 -20 -20 -20 -20 -20 17 12 -19 -20 -20 -20 -20 -20 -3 -6 -20 -17 10 -20 -20 -20 -20 -20 -20 -20 -20 -20 -20 -20 -20 -20 -20 -20 14 5 -18 3
-20 -20 -20 -20 -20 -20 -20 -20 -20 8 -19 -14 11 11 -20 -20 -20 -20 -20 -20 -2 6 -5 -15 -20 -20 -20 -20 -20 -20 -20 -20 -20 -20 -20 -20 -20 -20 23 14 9 7 -20
-8 -19 -20 -20 -20 -20 -20 -20 -20 -20 -8 -9 -20 -20 -8 -20 -20 -20 -20 -20 -20 -20 6 -20 -20 -20 -20 -20 -20 -20 -20 -20 -20 -20 -20 -11 16 14 8 -17 -7 -6 -20
-20 -12 -20 -20 -20 -20 -20 -20 -20 -20 -20 -20 -20 -20 -20 -20 -20 -20 -20 -20 -20 -8 -20 -20 -20 -20 -20 -20 -20 -20 -20 -20 -20 -20 -20 12 -20 -14 -20 -20 -20 -20 -20
-15 -20 -20 -20 -20 -20 -20 -20 -20 -20 -20 -20 -20 -20 -20 -20 -8 2 -19 -19 -20 -20 -20 -20 -20 -20 -20 -20 -20 -20 -20 -20 -20 -20 -20 5 6 -20 -20 -20 -20 -20 -20
-15 -20 -20 -20 -20 -20 -20 -20 -20 -20 -20 -20 -20 -20 -20 -20 -4 -7 -1 -14 -20 -20 -20 -20 -20 -20 -20 -20 -20 -20 -20 -20 -20 -20 -20 -20 -20 -20 -20 -20 -20 -20 -20
-20 -19 -20 -20 -20 -20 -20 -20 -20 -20 -20 -20 -20 -20 -20 -20 -20 -20 -16 -13 -4 -20 -20 -20 -20 -20 -20 -20 -20 -20 -20 -20 -20 -20 -20 -20 -20 -20 -20 -20 -20 -20 -20
-20 -20 -20 -20 -20 -20 -20 -20 -20 -20 -20 -20 -20 -20 -20 -20 -20 -20 -3 -17 -12 -20 -20 -20 -20 -20 -20 -20 -20 -20 -20 -20 -20 -20 -20 -20 -20 -20 -20 -20 -20 -20 -20
-20 -20 -20 -20 -20 -20 -20 -19 -20 -20 -20 -20 -20 -20 -20 -20 -20 -20 -2 -7 -3 -20 -20 -20 -20 -20 -20 -20 -20 -20 -20 -20 -20 -20 -20 -20 -20 -20 -20 -20 -20 -20 -20
-20 -20 -20 -20 -20 -20 -20 -20 -12 -19 -20 -20 -20 -20 -20 -20 -20 -20 -20 3 -5 -20 -20 -20 -20 -20 -20 -20 -20 -20 -20 -20 -20 -20 -20 -20 -20 -20 -20 -20 -20 -20 -20
-20 -20 -20 -20 -20 -20 -20 -20 -20 -20 -20 -20 -20 -20 -20 -20 -20 -20 -20 -20 -20 -20 -20 -20 -20 -20 -20 -20 -20 -20 -20 -20 -20 -20 -20 -20 -20 -20 -20 -20 -20 -20 -20
-20 -20 -20 -20 -20 -20 -20 -11 -7 -1 -20 -15 -20 -20 -20 -20 -10 -20 -20 -20 -20 -20 -20 -20 -20 -20 -20 -20 -20 -20 -20 -20 -20 -20 -20 -20 -20 -20 -20 -20 -20 -20 -20
-20 -20 -20 -20 -20 -20 -20 -20 -12 11 -20 7 4 -20 -20 -20 -7 -20 -20 -20 -20 -20 -20 -20 -20 -20 -20 -20 -20 -20 -20 -20 -20 -20 -20 -20 -20 -20 -20 -20 -20 -20 -20
-20 -20 -20 -20 -20 -20 -20 -20 -20 -16 -20 6 -20 9 -20 -20 -20 -20 -9 2 -11 -20 -20 -20 -20 -20 -20 -20 -20 -20 -20 -20 -20 -20 -20 -20 -20 -20 -20 -20 -20 -20 -20
-20 -20 -20 -20 -20 -20 -20 -20 -20 -20 -10 -12 -18 -20 -15 -20 -20 -20 17 -20 -16 -20 -20 -20 -17 -20 -20 -20 -20 -20 -20 -20 -20 -20 -20 -20 -20 -20 -20 -20 -20 -20 -20
-20 -20 -20 -20 -20 -20 -20 -20 -20 -20 -20 -20 -20 -20 -20 -20 -20 -12 -11 14 9 25 -19 -20 14 -20 -20 -20 -20 -20 -20 -20 -20 -20 -20 -20 -20 -20 -20 -20 -20 -20 -20
-20 -20 -20 -20 -20 -20 -20 -20 -20 -20 -20 -20 -20 -20 -20 -20 -20 -20 -17 1 -20 -20 -19 -20 14 -17 -20 -20 -20 -20 -20 -19 -8 -0 -6 -19 -20 -20 -20 -20 -20 -20 -20
-20 -20 -20 -20 -20 -20 -20 -20 -20 -20 -20 -20 -20 -7 -7 3 -20 -18 -20 -4 18 -6 -20 -20 -20 8 -11 -20 -6 -14 -11 24 -10 -12 16 -20 -20 -20 -20 -20 -20 -20 -20

GFSSE_prec_radar_039.txt.gz
Reflectivity
-20 -20 -20 -20 -20 14 8 1 -20 -20 3 -5 -9 -20 -6 -10 -20 -20 -20 -20 -20 -20 7 -1 -17 -20 -20 -20 -20 -20 -20 -20 -20 -17 -16 -20 -20 -20 -20 -20 -20 -20 -20
-20 -20 -20 -12 -20 -18 -20 -20 1 -20 14 -18 12 -2 -20 -13 -20 -20 -20 -20 -20 -20 15 5 -20 -20 -20 -20 -20 -20 -20 -20 -20 -20 -20 -20 -20 -20 -20 -20 -20 -20 -20
-20 -20 -20 -14 12 -20 -20 -10 -16 -20 10 19 -13 8 -20 -20 -20 -20 -20 -9 -18 -10 17 -5 -20 -20 -20 -20 -20 -20 -20 -20 -20 -20 -20 -20 -20 -20 -20 -20 -20 -20 -20
-20 -20 -20 -20 0 -17 -20 -9 -20 -20 16 16 -2 -20 -20 -20 -20 -20 -20 -6 13 -1 8 -17 -20 -20 -20 -20 -20 -20 -20 -20 -20 -20 -20 -20 -20 -20 -20 -19 -20 -20 -20
-20 -20 -20 -19 -20 -3 -20 -20 9 -13 14 12 -1 -20 -20 -20 -20 -20 -20 3 -14 -6 10 -19 -20 -20 -20 -20 -20 -20 -20 -20 -20 -20 -20 -20 -17 -20 -6 -13 -0 -12 -20
-20 -20 -20 -20 -12 -15 11 -20 -1 18 15 13 -20 -20 -20 -20 -20 -20 -20 -20 -20 -20 -20 -20 -20 -20 -20 -20 -20 -20 -20 -20 -20 -20 -20 -20 -20 -20 -20 -12 2 -7 6
-20 -20 -20 8 14 15 10 10 1 8 16 13 -20 -20 -20 -20 -20 -20 -20 -20 -20 -20 -20 -20 -20 -20 -20 -20 -20 -20 -20 -20 -20 -20 -20 -20 -20 -20 -20 10 6 -2 4
-20 -20 -20 11 6 1 11 8 -10 -3 16 14 3 -20 -20 -20 -20 -20 -20 -20 -20 -20 -20 -15 -20 -20 -20 -20 -20 -20 -20 -20 -20 -20 -20 -20 -20 -20 -20 -18 -20 -19 -1
-20 -20 -20 -20 -5 4 -15 -20 -20 -20 16 11 14 -7 -20 -20 -20 -20 -20 -20 -20 -20 -20 -8 -20 -20 -20 -20 -20 -20 -20 -20 -20 -20 -20 -20 -20 -20 -10 4 -3 -20 -20
-20 -20 -20 -20 -20 -20 -20 -20 -20 -20 -20 12 12 -20 -20 -20 -20 -20 -20 -20 3 -20 -12 -20 -20 -20 -20 -20 -20 -20 -20 -20 -20 -20 -20 -20 -20 -19 15 8 -20 -20 -20
-20 -20 -20 -20 -20 -20 -20 -20 -20 -19 -20 14 13 3 -20 -20 -20 -20 -20 -20 -4 1 10 -20 -20 -20 -20 -20 -20 -20 -20 -20 -20 -20 -20 -14 10 12 -3 -19 -20 3 -20
-20 -20 -20 -20 -20 -20 -20 -20 -20 -20 -13 -10 -10 -18 -20 -20 -20 -20 -20 -20 -20 -20 -20 -20 -20 -20 -20 -20 -20 -20 -20 -20 -20 -20 -20 0 -16 -14 -20 -20 -20 -20 -20
-20 -20 -20 -20 -20 -20 -20 -20 -20 -20 -20 -20 -20 -20 -20 -20 -20 -20 -20 -20 -20 -20 -20 -20 -20 -20 -20 -20 -20 -20 -20 -20 -20 -20 -20 7 -20 -20 -20 -20 -20 -20 -20
-20 -7 -19 -20 -20 -20 -20 -20 -20 -20 -20 -20 -20 -20 -20 -20 -20 -20 -20 -20 -20 -20 -20 -20 -20 -20 -20 -20 -20 -20 -20 -20 -20 -20 -20 -15 -20 -20 -20 -20 -20 -20 -20
-20 -20 -20 -20 -20 -20 -20 -20 -20 -20 -20 -20 -20 -20 -20 -20 -20 -20 -20 -20 -20 -20 -20 -20 -20 -20 -20 -20 -20 -20 -20 -20 -20 -20 -20 -20 -20 -20 -20 -20 -20 -20 -20
-20 -20 -20 4 -20 -20 -20 -20 -20 -20 -20 -20 -20 -20 -20 -20 -20 -20 -20 -14 -20 -20 -20 -20 -20 -20 -20 -20 -20 -20 -20 -20 -20 -20 -20 -20 -20 -20 -20 -20 -20 -20 -20
-20 -20 -20 -20 -20 -20 -20 -20 -20 -20 -20 -20 -20 -20 -20 -20 -20 -20 -20 -20 -9 -19 -20 -20 -20 -20 -20 -20 -20 -20 -20 -20 -20 -20 -20 -20 -20 -20 -20 -20 -20 -20 -20
-20 -20 -20 -20 -20 -20 -20 -20 -8 -20 -20 -20 -20 -20 -20 -20 -20 -20 -20 -20 -11 5 -20 -20 -20 -20 -20 -20 -20 -20 -20 -20 -20 -20 -20 -20 -20 -20 -20 -20 -20 -20 -20
-20 -20 -20 -20 -20 -20 -20 -20 -20 -14 -1 -20 -20 -20 -20 -20 -20 -20 -20 -20 -20 -20 -20 -20 -20 -20 -20 -20 -20 -20 -20 -20 -20 -20 -20 -20 -20 -20 -20 -20 -20 -20 -20
-20 -20 -20 -20 -20 -20 -20 -20 -20 4 7 6 -20 -20 -20 -20 -20 -20 -20 -20 -20 -20 -20 -20 -20 -20 -20 -20 -20 -20 -20 -20 -20 -20 -20 -20 -20 -20 -20 -20 -20 -20 -20
-20 -20 -20 -20 -20 -20 -20 -20 -20 -20 -20 10 -20 -20 -20 -20 -20 -20 -20 -20 -20 -20 -20 -20 -20 -20 -20 -20 -20 -20 -20 -20 -20 -20 -20 -20 -20 -20 -20 -20 -20 -20 -20
-20 -20 -20 -20 -20 -20 -20 -20 -20 -20 -20 -17 -8 -7 -20 -20 -20 -20 -20 -20 -20 -20 -20 -20 -20 -20 -20 -20 -20 -20 -20 -20 -20 -20 -20 -20 -20 -20 -20 -20 -20 -20 -20
-20 -20 -20 -20 -20 -20 -20 -20 -20 -20 -9 -20 -12 -20 -16 -20 -20 -20 -20 -20 -20 -20 -20 -20 -20 -20 -20 -20 -20 -20 -20 -20 -20 -20 -20 -20 -20 -20 -20 -20 -20 -20 -20
-20 -20 -20 -20 -20 -20 -20 -20 -20 -20 -20 -20 -20 -20 -20 -20 -20 -1 9 9 -18 -10 -13 -20 -20 -19 -17 5 18 -20 -20 -20 -20 -20 -20 -20 -6 -2 -17 -20 -20 -20 -20
-20 -20 -20 -20 -20 -20 -20 -20 -20 -20 -20 -20 -20 -20 -20 -20 -20 -10 -20 -20 12 22 -3 -3 -20 -20 7 -20 20 -10 -20 -20 -20 -20 -20 -9 -14 11 1 -13 -20 -20 -20
-20 -20 -20 -20 -20 -20 -20 -20 -20 -20 -20 -20 -20 -20 -20 -20 -15 -20 -9 -4 -6 -12 -20 -11 23 3 -4 10 -20 -20 -16 -12 -20 -20 -20 -20 -11 20 -15 9 -11 5 -3

GFSSE_prec_radar_042.txt.gz
Reflectivity
-20 -20 -20 -20 -20 -20 -20 -20 -20 -20 8 11 -12 -20 -16 -5 -20 -20 -20 -20 -20 -20 2 -4 -20 -20 -20 -20 -20 -20 -20 8 -20 -15 -20 -20 -20 -20 -20 -20 -20 -20 -20
-20 -20 -20 -20 -7 -15 -20 -20 -20 -20 -20 -5 16 10 -20 -20 -20 -20 -20 -20 -20 -17 10 -12 -20 -20 -20 -20 -20 -20 -20 -20 -20 -20 -20 -20 -20 -20 -20 -20 -20 -20 -20
-20 -20 -20 -20 -20 -20 -20 -18 -20 8 -17 18 7 10 -20 -20 -20 -20 -15 -15 -20 23 4 -20 -20 -20 -20 -20 -20 -20 -20 -20 -20 -20 -20 -20 -20 -20 -20 -20 -20 -20 -20
-20 -20 -20 -16 -8 -20 -20 -20 -20 4 16 18 3 -20 -20 -20 -20 -20 15 8 11 -20 -20 -20 -20 -20 -20 -20 -20 -20 -20 -20 -20 -20 -5 -9 -20 0 10 -19 -20 -20 -20
-20 -20 -20 2 -7 -20 -20 -20 -20 17 14 16 -20 -20 -20 -20 -20 -20 12 3 -19 5 -18 -20 -20 -20 -20 -20 -20 -20 -20 -20 -20 -20 -20 -11 -3 -20 11 -5 -6 5 -18
-20 -20 -20 -20 -20 11 8 -20 2 13 14 6 -11 -20 -20 -20 -20 -20 -20 -20 -20 -20 -20 -20 -20 -20 -20 -20 -20 -20 -20 -20 -20 6 -20 3 -20 -20 5 18 18 5 13
-20 -20 -20 -20 -20 9 7 -20 8 18 15 7 -20 -20 -20 -20 -20 -20 -20 -20 -20 -20 -20 -20 -20 -20 -20 -20 -20 -20 -20 -20 -20 -20 -20 -20 -20 -20 2 4 -0 8 6
-20 -20 -20 -20 6 -2 17 13 3 13 15 0 -2 -20 -20 -20 -20 -20 -20 -20 -20 -20 -20 -10 -20 -20 -20 -20 -20 -20 -20 -20 -20 -20 -20 -20 -20 -20 -2 -20 -20 -19 -19
-20 -20 -20 -20 -7 -9 15 10 14 8 -13 17 1 -20 -20 -20 -20 -20 -20 -20 -20 -20 -13 -20 -20 -20 -20 -20 -20 -20 -20 -20 -20 -20 -20 -20 -20 -20 5 -5 -20 -20 -20
-20 -20 -20 -20 -20 -20 -20 -20 -20 -20 13 9 9 -20 -20 -20 -20 -20 -20 -20 -20 -20 -11 -20 -20 -20 -20 -20 -20 -20 -20 -20 -20 -20 -20 -20 -20 -9 12 1 -20 -20 -20
-20 -20 -20 -20 -20 -20 -20 -20 -20 -20 -20 9 12 -19 -20 -20 -20 -20 -20 -20 -20 -20 -20 -20 -20 -20 -20 -20 -20 -20 -20 -20 -20 -20 -20 -20 9 15 -3 -19 -19 -20 -20
-20 -20 -20 -20 -20 -20 -20 -20 -20 -20 -20 -20 -20 -20 -20 -20 -20 -20 -20 -20 -18 -20 -20 -20 -20 -20 -20 -20 -20 -20 -20 -20 -20 -20 -20 -20 4 -5 -17 -20 -20 -20 -20
-20 -20 -20 -20 -20 -20 -20 -20 -20 -20 -20 -20 -20 -20 -20 -20 -20 -20 -20 -20 -20 -20 -20 -20 -20 -20 -20 -20 -20 -20 -20 -20 -20 -20 -20 -20 -20 -20 -20 -20 -20 -20 -20
-20 -20 -20 -20 -20 -20 -20 -20 -20 -20 -20 -20 -20 -20 -20 -20 -20 -20 -20 -20 -20 -20 -20 -20 -20 -20 -20 -20 -20 -20 -20 -20 -20 -20 -20 -20 -20 -20 -20 -20 -20 -20 -20
-20 -20 -20 -20 -20 -20 -20 -20 -20 -20 -20 -20 -20 -20 -20 -20 -20 -20 -20 -20 -20 -20 -20 -20 -20 -20 -20 -20 -20 -20 -20 -20 -20 -20 -20 -20 -20 -20 -20 -20 -20 -20 -20
-20 -20 -20 -20 -20 -20 -20 -20 -20 -20 -20 -20 -20 -20 -20 -20 -20 -20 -20 -20 -20 -20 -20 -20 -20 -20 -20 -20 -20 -20 -20 -20 -20 -20 -20 -20 -20 -20 -20 -20 -20 -20 -20
-20 -20 -20 -20 -20 -20 -20 -20 -20 -20 -20 -20 -20 -20 -20 -20 -20 -20 -20 -20 -20 -20 -20 -20 -20 -20 -20 -20 -20 -20 -20 -20 -20 -20 -20 -20 -20 -20 -20 -20 -20 -20 -20
-20 -20 -15 -20 -20 -20 -20 -20 -20 -20 -20 -20 -20 -20 -20 -20 -20 -20 -20 -20 -20 -20 -20 -20 -20 -20 -20 -20 -20 -20 -20 -20 -20 -20 -20 -20 -20 -20 -20 -20 -20 -20 -20
-20 -20 -20 -20 -9 -20 -20 -20 -20 -20 -20 -20 -20 -4 -20 -20 -20 -20 -20 -20 -20 -20 -20 -20 -20 -20 -20 -20 -20 -20 -20 -20 -20 -20 -20 -20 -20 -20 -20 -20 -20 -20 -20
-20 -20 -20 -20 -20 -20 -20 -20 -20 -20 -20 -20 4 -20 -18 -20 -20 -20 -20 -20 -20 -20 -20 -20 -20 -20 -20 -20 -20 -20 -20 -20 -20 -20 -20 -20 -20 -20 -20 -20 -20 -20 -20
-20 -20 -20 -20 -20 -20 -20 -20 -7 -20 -20 -20 -20 -20 -20 8 -20 -20 -20 -20 -20 -20 -20 -20 -20 -20 -20 -20 -20 -20 -20 -20 -20 -20 -20 -20 -20 -20 -20 -20 -20 -20 -20
-20 -20 -20 -20 -20 -20 -20 -20 -20 -20 -20 -20 -20 -20 -20 5 -20 24 -20 -20 -20 -9 -20 -20 -20 -20 -20 -20 -20 -20 -20 -20 -20 -20 -20 -20 -20 -20 -20 -20 -20 -20 -19
-20 -20 -20 -20 -20 -20 -20 -20 -20 -20 -20 -20 -20 -20 -20 -20 15 24 -9 0 -15 -20 -20 -20 3 4 -5 -20 -20 -20 -20 -20 -20 -20 -20 -20 -20 -20 -20 -20 -20 -13 -20
-20 -20 -20 -20 -20 -20 -20 -20 -20 -20 -20 -20 -20 -20 -20 -20 -20 -20 17 25 9 23 8 7 27 24 -1 -20 5 -20 -20 -20 -20 -20 -20 -20 -13 -14 1 -8 -20 -2 -9
-20 -20 -20 -20 -20 -20 -20 -20 -20 -20 -20 -20 -20 -20 4 -19 -18 -20 -20 -6 12 21 -5 27 -17 -14 6 13 -17 -11 -19 -19 13 4 -20 -20 -20 -19 -19 -20 -20 -20 -10
-20 -20 -20 -20 -20 -20 -20 -20 -20 -20 -20 -20 -20 -20 -20 -20 -9 11 -20 -20 1 16 20 11 -1 -20 -8 -5 -20 21 19 18 17 17 17 -4 -20 -20 -20 -20 -20 4 20

GFSSE_prec_radar_048.txt.gz
Reflectivity
-20 -20 -20 -20 -20 -20 -19 -13 -20 -12 -20 -10 -18 -20 -20 -20 -20 -20 -20 -7 5 -13 -20 -20 -20 -14 -20 -20 -20 -20 -20 -20 -20 -20 -20 -20 -20 -20 -20 -20 -20 -20 -20
-20 -20 -20 -2 -13 -20 -20 11 -7 -20 -20 -19 9 -3 -20 -20 -20 -20 -20 -5 -15 -20 -20 -20 -20 -20 -20 -20 -20 -20 -20 -20 -20 -20 -20 -20 -20 -20 -20 -20 -20 -20 -20
-20 -20 -20 -20 -20 6 -20 -20 -20 -15 -20 -3 -20 -20 -20 -20 -20 -20 -20 1 -10 -20 -20 -20 -20 -20 -20 -20 -20 -20 -20 -20 -20 -20 -20 -20 -15 -20 -20 -20 -20 -20 -20
-20 -20 -20 -5 -20 -20 -20 -20 -20 -20 -20 -20 -20 -20 -20 -20 -20 -9 -2 19 -20 -20 -20 -20 -20 -20 -20 -20 -20 -20 -20 -20 -20 -20 -20 -20 -6 7 -13 -7 -20 -20 -5
-20 -20 8 -13 -2 -20 -20 -20 -20 -20 -20 -20 -20 -20 -20 -20 11 6 12 12 -19 -20 -20 -20 -20 -20 -20 -20 -20 -20 -20 -20 -20 -20 -20 -20 -20 3 13 -12 11 -4 18
-20 -20 -19 -11 -20 -20 -20 -20 -14 -16 -20 -20 -20 -20 -20 -8 8 -20 -14 11 -18 -20 -20 -20 -20 -20 -20 -20 -20 -20 -20 -20 -20 -20 -20 -20 -20 5 18 5 -15 3 -10
-20 -20 -15 -14 -20 -20 -20 -20 -17 -20 -20 -20 -20 -20 -20 -11 4 -9 -20 -20 -20 -20 -20 -20 -20 -20 -20 -20 -20 -20 -20 -20 -20 -20 -20 -20 -20 2 7 6 -20 -2 -19
-20 -20 -20 -1 -20 12 -20 2 -13 4 -20 -20 -20 -20 -20 -20 -20 -20 -20 -20 -20 -20 -20 -20 -20 -20 -20 -20 -20 -20 -20 -20 -20 -20 -20 -20 -20 -20 -20 -18 -20 -20 -20
-20 -20 -20 -20 -6 15 2 -1 5 6 -20 -20 -20 -20 -20 -20 -20 -20 -20 -20 -20 -20 -20 -20 -20 -20 -20 -20 -20 -20 -20 -20 -20 -20 -20 -20 -20 -20 -16 12 -5 -20 -20
-20 -20 -20 -20 -20 -20 -20 5 -1 1 -20 -20 -20 -20 -20 -20 -20 -20 -20 -20 -20 -19 -20 -20 -20 -20 -20 -20 -20 -20 -20 -20 -20 -20 -20 -20 -20 8 -6 3 12 -20 -20
-20 -20 -20 -20 -20 -20 -20 -15 -6 -20 -20 -20 -20 -20 -20 -20 -20 -20 -20 -20 -6 7 -20 -20 -20 -20 -20 -20 -20 -20 -20 -20 -20 -20 -20 -20 12 -10 -15 4 -10 -20 -20
-20 -20 -20 -20 -20 -20 -20 -20 -20 -20 -20 -20 -20 -20 -20 -20 -20 -20 -20 -20 -20 -9 -20 -20 -20 -20 -20 -20 -20 -20 -20 -20 -20 -20 -20 -20 12 -2 -13 -20 -20 -20 -20
-20 -20 -20 -20 -20 -20 -20 -20 -20 -20 -20 -20 -20 -20 -20 -20 -20 -20 -20 -20 -20 -20 -20 -20 -20 -20 -20 -20 -20 -20 -20 -20 -20 -20 -20 -20 -20 -20 -20 -20 -20 -20 -20
-20 -20 -20 -20 -20 -20 -20 -20 -20 -20 -20 -20 -20 -20 -20 -20 -20 -20 -20 -20 -20 -20 -20 -20 -20 -20 -20 -20 -20 -20 -20 -20 -20 -20 -20 -20 -20 -20 -20 -20 -20 -20 -20
-20 -20 -20 -20 -20 -20 -20 -20 -20 -20 -20 -20 -20 -20 -20 -20 -20 -20 -20 -20 -20 -20 -20 -20 -20 -20 -20 -20 -20 -20 -20 -20 -20 -20 -20 -20 -20 -20 -20 -20 -20 -20 -20
-20 -20 -20 -20 -20 -20 -20 -20 -20 -20 -20 -20 -20 -20 -20 -20 -20 -20 -20 -20 -20 -20 -20 -20 -20 -20 -20 -20 -20 -20 -20 -20 -20 -20 -20 -20 -20 -20 -20 -20 -20 -20 -20
-20 -20 -20 -20 -20 -20 -20 -20 -20 -20 -20 -20 -20 -20 -20 -20 -20 -20 -20 -20 -20 -20 -20 -20 -20 -20 -20 -20 -20 -20 -20 -20 -20 -20 -20 -20 -20 -20 -20 -20 -20 -20 -20
-20 -20 -20 -20 -20 -20 -20 -20 -20 -20 -20 -20 -20 -20 -20 -20 -20 -20 -20 -20 -20 -20 -20 -20 -20 -20 -20 -20 -20 -20 -20 -20 -20 -20 -20 -20 -20 -20 -20 -20 -20 -20 -20
-20 -20 -20 -20 -20 -20 -20 -20 -20 -20 -20 -20 -20 -20 -20 -20 -20 -20 -20 -20 -20 -20 -20 -20 -20 -20 -20 -20 -20 -20 -20 -20 -20 -20 -20 -20 -20 -20 -20 -20 -20 -20 -20
-20 -20 -20 -20 -20 -20 -20 -20 -20 -20 -20 -20 -20 -20 -20 -20 -20 -20 -20 -20 -20 -20 -20 -20 -20 -20 -20 -20 -20 -20 -20 -20 -20 -20 -20 -20 -20 -20 -20 -20 -20 -20 -20
-20 -20 -20 -20 -20 -20 -20 -20 -20 -20 -20 -20 -20 -20 20 -20 -8 -20 -20 -20 -20 -20 -20 -20 -20 -20 -20 -3 -20 -20 -20 -20 -20 -20 -20 -20 -20 -20 -20 -20 -20 -20 -20
-20 -20 -20 -20 -20 -20 -20 -20 -20 -20 -20 -20 -20 -20 -20 -20 -20 -17 -20 -20 -20 -13 -20 -20 -20 9 -20 -20 -7 -20 -6 -20 -20 -20 -20 -20 -20 -20 -20 -19 -8 -20 -20
-20 -20 -20 -20 -20 -20 -20 -20 -20 -20 -20 -20 -20 -20 -20 -20 -20 -20 -20 -20 -20 -20 -6 -20 -0 21 14 25 20 25 -20 -20 -20 -20 -20 -20 -20 -20 -20 -5 -18 -5 -5
-20 -20 -20 -20 -20 -20 -20 -20 -20 -20 -20 -20 -20 -20 -20 -20 -20 -20 -20 -20 -20 -20 -20 -20 -19 -19 21 5 21 19 17 -20 -20 -20 -20 -20 -20 -20 -20 -20 -14 11 9
-20 -20 -20 -20 -20 -20 -20 -20 -20 -20 -20 -20 -20 -20 -20 -20 -20 -20 -20 -20 -20 13 -18 -20 -20 -20 -20 17 15 17 25 9 16 17 -20 -20 20 12 -20 -20 -18 -10 6
-20 -20 -20 -20 -20 -20 -20 -20 -20 -20 -20 -20 -20 -20 -20 -20 -20 -20 -20 -20 -20 -20 -10 -19 -20 -20 -20 21 21 16 15 -20 8 19 2 17 20 3 -19 -17 -3 -11 17

GFSSE_prec_radar_051.txt.gz
Reflectivity
-20 -5 -20 7 -20 -20 -20 -9 -1 0 -11 -20 -20 -20 -20 -20 -20 -20 -4 -0 -20 -20 -20 -20 -20 -4 -20 -15 -20 -20 -20 -20 -20 -20 -20 -20 -20 -20 -20 -20 -20 -20 -0
-19 -12 15 -13 -12 -20 -2 -19 -8 -20 -20 6 -2 -20 -20 -20 -20 -20 -13 -8 -20 -20 -20 -20 -20 -20 -20 -20 -20 -20 -20 -20 -20 -20 -20 -20 -20 -20 -20 -20 -20 -20 12
-3 -11 -20 8 -2 -16 9 -20 -20 -20 15 -20 -20 -20 -20 -20 -20 -20 18 -14 -20 -20 -20 -20 -20 -20 -20 -20 -20 -20 -20 -20 -20 -20 -20 -20 -20 -20 -20 -20 -20 -20 -20
-20 -2 14 -20 -6 -18 -20 -20 -20 -8 -20 -20 -20 -20 -20 -20 -20 -20 13 -15 -20 -20 -20 -20 -20 -20 -20 -20 -20 -20 -20 -20 -20 -20 -20 -20 -14 -17 -18 -20 -20 -3 -2
-20 -20 -20 -20 -20 -20 -20 -20 -5 -15 -20 -20 -20 -20 -20 -2 -12 -20 5 -13 -20 -20 -20 -20 -20 -20 -20 -20 -20 -20 -20 -20 -20 -20 -20 -20 -20 11 -1 -4 -18 13 14
-20 -20 15 -17 -20 -20 -20 -20 16 -20 -20 -20 -20 -20 -20 11 11 10 -5 -12 -20 -20 -20 -20 -20 -20 -20 -20 -20 -20 -20 -20 -20 -20 -20 -20 -20 12 12 -20 7 8 0
-20 -20 -20 -20 -20 -20 -20 3 -20 -20 -20 -20 -20 -20 -16 9 -8 9 -8 -20 -20 -20 -20 -20 -20 -20 -20 -20 -20 -20 -20 -20 -20 -20 -20 -20 -19 2 8 8 -11 -12 -20
-20 -20 4 -20 -20 -20 -20 -20 -20 -20 -20 -20 -20 -20 -20 8 15 16 -20 -20 -20 -20 -20 -20 -20 -20 -20 -20 -20 -20 -20 -20 -20 -20 -20 -20 -20 -20 -20 -17 -20 -20 -20
-20 -20 -20 -20 -20 -20 -20 -14 -1 -17 -20 -20 -20 -20 -20 -20 4 17 -6 -20 -20 -20 -20 -20 -20 -20 -20 -20 -20 -20 -20 -20 -20 -20 -20 -20 -20 -20 -12 15 -6 -20 -20
-20 -20 -20 -20 -6 0 -9 -11 8 -20 -20 -20 -20 -20 -20 -20 -20 -2 -20 -20 -20 -19 -20 -20 -20 -20 -20 -20 -20 -20 -20 -20 -20 -20 -20 -20 -19 13 -6 6 16 -20 -20
-20 -20 -20 -20 -20 -20 -20 -3 8 -19 -20 -20 -20 -20 -20 -20 -20 -20 -20 -20 -20 -0 -20 -20 -20 -20 -20 -20 -20 -20 -20 -20 -20 -20 -20 -20 -19 10 -4 -8 8 -20 -20
-20 -20 -20 -20 -20 -20 -20 -20 -20 -20 -20 -20 -20 -20 -20 -20 -20 -20 -20 -20 -20 -20 -20 -20 -20 -20 -20 -20 -20 -20 -20 -20 -20 -20 -20 -20 14 17 -5 -20 -20 -20 -20
-20 -20 -20 -20 -20 -20 -20 -20 -20 -20 -20 -20 -20 -20 -20 -20 -20 -20 -20 -20 -20 -20 -20 -20 -20 -20 -20 -20 -20 -20 -20 -20 -20 -20 -20 -20 15 -18 -20 -20 -20 -20 -20
-20 -20 -20 -20 -20 -20 -20 -20 -20 -20 -20 -20 -20 -20 -20 -20 -20 -20 -20 -20 -20 -20 -20 -20 -20 -20 -20 -20 -20 -20 -20 -20 -20 -20 -20 -20 -20 -20 -20 -20 -20 -20 -20
-20 -20 -20 -20 -20 -20 -20 -20 -20 -20 -20 -20 -20 -20 -20 -20 -20 -20 -20 -20 -20 -20 -20 -20 -20 -20 -20 -20 -20 -20 -20 -20 -20 -20 -20 -20 -20 -20 -20 -20 -20 -20 -20
-20 -20 -20 -20 -20 -20 -20 -20 -20 -20 -20 -20 -20 -20 -20 -20 -20 -20 -20 -20 -20 -20 -20 -20 -20 -20 -20 -20 -20 -20 -20 -20 -20 -20 -20 -20 -20 -20 -20 -20 -20 -20 -20
-20 -20 -20 -20 -20 -20 -20 -20 -20 -20 -20 -20 -20 -20 -20 -20 -20 -20 -20 -20 -20 -20 -20 -20 -20 -20 -20 -20 -20 -20 -20 -20 -20 -20 -20 -20 -20 -20 -20 -20 -20 -20 -20
-20 -20 -20 -20 -20 -20 -20 -20 -20 -20 -20 -20 -20 -20 -20 -20 -20 -20 -20 -20 -20 -20 -20 -20 -20 -20 -20 -20 -20 -20 -20 -20 -20 -20 -20 -20 -20 -20 -20 -20 -20 -20 -20
-20 -20 -20 -20 -20 -20 -20 -20 -20 -20 -20 -20 -20 -20 -20 -20 -20 -20 -20 -20 -20 -20 -20 -20 -20 -20 -20 -20 -20 -20 -20 -20 -20 -20 -20 -20 -20 -20 -20 -20 -20 -20 -20
-20 -20 -20 -20 -20 -20 -20 -20 -20 -20 -20 -20 -20 -20 -20 -20 -20 -20 -20 -20 -20 -20 -20 -20 -20 -20 -20 -20 -20 -20 -20 -20 -20 -20 -20 -20 -20 -20 -20 -20 -20 -20 -20
-20 -20 -20 -20 -20 -20 -20 -20 -20 -20 -20 -20 -20 -20 -20 -20 -20 -20 -20 -20 -20 -20 -20 -20 -20 -20 -20 -20 -20 -20 -20 -20 -20 -20 -20 -20 -20 -20 -20 -20 -20 -20 -20
-20 -20 -20 -20 -20 -20 -20 -20 -20 -20 -20 -20 -20 -20 -20 -20 -20 -20 -20 -20 -20 -20 -20 -20 -20 -20 -20 -20 -18 -9 -20 -20 -20 -20 -20 -20 -20 -20 -20 -20 -20 -20 -20
-20 -20 -20 -20 -20 -20 -20 -20 -20 -20 -20 -20 -20 -20 -20 -20 -14 -20 -20 -11 -20 -20 -20 -20 -20 -20 19 -20 -20 18 -9 -20 -20 -20 -20 -20 -20 -20 -20 -20 -20 -20 -20
-20 -20 -20 -20 -20 -20 -20 -20 -20 -20 -20 -20 -20 -20 -20 -20 -20 -20 -20 -20 -20 -20 -20 -20 -20 -20 -20 -5 -20 -20 -20 11 12 -20 -20 -20 -15 4 -14 -20 1 -20 -9
-20 -20 -20 -20 -20 -20 -20 -20 -20 -20 -20 -20 -20 -20 -20 -20 -20 -20 -20 -20 -20 -20 -20 -20 -20 -20 -20 -2 -20 -20 -20 -1 -17 -20 6 -20 -20 -9 13 -20 -20 -20 -20
-20 -20 -20 -20 -20 -20 -20 -20 -20 -20 -20 -20 -20 -20 -20 -20 -20 -20 -20 -20 -20 -20 -20 -9 -20 -20 6 -20 -20 -9 9 -7 16 17 12 -7 -13 -12 -7 -20 -20 -20 -11

GFSSE_prec_radar_054.txt.gz
Reflectivity
-20 -20 -20 1 -20 -20 -20 -10 -3 -3 -9 -20 -20 -20 -20 -20 -20 2 -8 -20 -20 -20 -15 -9 16 -8 -20 -20 -20 -20 -20 -20 -20 -20 -20 -20 -20 -20 -20 -20 -20 -20 15
-20 -20 -20 -11 -20 -20 -1 -6 0 4 -20 -19 -20 -20 -20 -20 -20 -15 -20 -20 -20 -20 -20 -14 -9 -20 -20 -20 -20 -20 -20 -20 -20 -20 -20 -20 -20 -20 -20 -20 -20 -1 -17
-11 -20 -20 -2 -12 -20 -20 -20 -20 -16 14 -5 -20 -20 -20 -20 -20 -1 -20 -20 -20 -20 -20 -20 -20 -20 -20 -20 -20 -20 -20 -20 -20 -20 -20 -20 -20 -20 -20 -20 -20 -20 -20
-20 -20 -20 -4 -14 12 -20 -20 -20 10 -20 -20 -20 -20 -20 -20 -20 13 -20 -20 -20 -20 -20 -20 -20 -20 -20 -20 -20 -20 -20 -20 -20 -20 -20 -20 -20 -17 -20 -20 14 17 -20
-20 -20 -20 8 -20 -20 -20 -20 3 -19 -20 -20 -20 -20 -20 1 -20 10 -1 -20 -20 -20 -20 -20 -20 -20 -20 -20 -20 -20 -20 -20 -20 -20 -20 -20 -20 16 -4 -15 -4 7 -10
-20 -20 -20 -20 -20 -16 -20 -20 8 -20 -20 -20 -20 -20 -14 -8 -20 9 2 -20 -20 -20 -20 -20 -20 -20 -20 -20 -20 -20 -20 -20 -20 -20 -20 -19 -20 16 -3 12 5 13 9
-20 -20 -20 -13 -20 -20 -20 -5 -20 -20 -20 -20 -20 -20 13 9 14 -0 7 -20 -20 -20 -20 -20 -20 -20 -20 -20 -20 -20 -20 -20 -20 -20 -20 -20 -18 12 12 9 -11 -20 -20
-20 -20 -20 -20 -20 -20 -19 -4 -20 -20 -20 -20 -20 -20 10 11 15 13 10 -20 -20 -20 -20 -20 -20 -20 -20 -20 -20 -20 -20 -20 -20 -20 -20 -20 -11 -20 -20 -20 -20 -20 -20
-20 -20 -20 -20 -20 -20 -18 -20 -20 -20 -20 -20 -20 -20 -20 -14 15 16 8 -20 -20 -20 -20 -20 -20 -20 -20 -20 -20 -20 -20 -20 -20 -20 -20 -20 -20 -20 -2 -15 -20 -20 -20
-20 -20 -20 -20 -20 -20 -20 -2 18 7 -20 -20 -20 -20 -20 -20 -20 -20 -10 -20 -20 -20 -20 -20 -20 -20 -20 -20 -20 -20 -20 -20 -20 -20 -20 -20 -18 8 4 -20 -4 -20 -20
-20 -20 -20 -20 -20 -20 -20 4 14 13 -20 -20 -20 -20 -20 -20 -20 -20 -20 -20 -20 -20 -20 -20 -20 -20 -20 -20 -20 -20 -20 -20 -20 -20 -20 -20 -20 14 -9 -20 -20 -20 -20
-20 -20 -20 -20 -20 -20 -20 -20 -1 -19 -20 -20 -20 -20 -20 -20 -20 -20 -20 -20 -20 -9 -20 -20 -20 -20 -20 -20 -20 -20 -20 -20 -20 -20 -20 -20 -20 17 -9 -20 -20 -20 -20
-20 -20 -20 -20 -20 -20 -20 -20 -20 -20 -20 -20 -20 -20 -20 -20 -20 -20 -20 -20 -20 -20 -20 -20 -20 -20 -20 -20 -20 -20 -20 -20 -20 -20 -20 -20 -20 20 -19 -20 -20 -20 -20
-20 -20 -20 -20 -20 -20 -20 -20 -20 -20 -20 -20 -20 -20 -20 -20 -20 -20 -20 -20 -20 -20 -20 -20 -20 -20 -20 -20 -20 -20 -20 -20 -20 -20 -20 -20 -20 9 -20 -20 -20 -20 -20
-20 -20 -20 -20 -20 -20 -20 -20 -20 -20 -20 -20 -20 -20 -20 -20 -20 -20 -20 -20 -20 -20 -20 -20 -20 -20 -20 -20 -20 -20 -20 -20 -20 -20 -20 -20 -20 -20 -15 -20 -20 -20 -20
-20 -20 -20 -20 -20 -20 -20 -20 -20 -20 -20 -20 -20 -20 -20 -20 -20 -20 -20 -20 -20 -20 -20 -20 -20 -20 -20 -20 -20 -20 -20 -20 -20 -20 -20 -20 -20 -20 -20 -20 -20 -20 -12
-20 -20 -20 -20 -20 -20 -20 -20 -20 -20 -20 -20 -20 -20 -20 -20 -20 -20 -20 -20 -20 -20 -20 -20 -20 -20 -20 -20 -20 -20 -20 -20 -20 -20 -20 -20 -20 -20 -20 -20 -20 -20 -20
-20 -20 -20 -20 -20 -20 -20 -20 -20 -20 -20 -20 -20 -20 -20 -20 -20 -20 -20 -20 -20 -20 -20 -20 -20 -20 -20 -20 -20 -20 -20 -20 -20 -20 -20 -20 -20 -20 -20 -20 -20 -20 -20
-20 -20 -20 -20 -20 -20 -20 -20 -20 -20 -20 -20 -20 -20 -20 -20 -20 -20 -20 -20 -20 -20 -20 -20 -20 -20 -20 -20 -20 -20 -20 -20 -20 -20 -20 -20 -20 -20 -20 -20 -20 -20 -20
-20 -20 -20 -20 -20 -20 -20 -20 -20 -20 -20 -20 -20 -20 -20 -20 -20 -20 -20 -20 -20 -20 -20 -20 -20 -20 -20 -20 -20 -20 -20 -20 -20 -20 -20 -20 -20 -20 -20 -20 -20 -20 -20
-20 -20 -20 -20 -20 -20 -20 -20 -20 -20 -20 -20 -20 -20 -20 -20 -20 -20 -20 -20 -20 -20 -20 -20 -20 -20 -20 -20 -17 -20 -20 -20 -20 -20 -20 20 -20 -20 -20 -20 5 -20 -20
-20 -20 -20 -20 -20 -20 -20 -20 -20 -20 -20 -20 -20 -20 -20 -20 -20 -20 -20 -20 -20 -20 -20 -20 -20 -20 -20 -20 -20 -20 -20 -18 -20 -20 -20 -20 -20 -20 -20 -20 -20 -20 -20
-20 -20 -20 -20 -20 -20 -20 -20 -20 -20 -20 -20 -20 -20 -20 -20 -20 -20 -20 -20 -20 -20 -20 -20 -20 -20 -15 -20 -20 -10 -20 -13 -18 -20 -20 -20 -20 -20 -20 -20 -20 -20 -20
-20 -20 -20 -20 -20 -20 -20 -20 -20 -20 -20 -20 -20 -20 -20 -20 -20 -20 -20 -20 -20 -20 -20 -20 -20 -20 -0 -20 -20 -20 -20 -20 -10 -19 -6 -14 -18 -20 -20 -20 -20 -20 -20
-20 -20 -20 -20 -20 -20 -20 -20 -20 -20 -20 -20 -20 -20 -20 -20 -20 -20 -20 -20 -20 -20 -20 -20 -20 -20 -20 1 -20 -20 -8 -6 1 16 8 9 -19 -15 -20 -20 -20 -20 -20
-20 -20 -20 -20 -20 -20 -20 -20 -20 -20 -20 -20 -20 -20 -20 -20 -20 -20 -20 -20 -20 -4 9 9 -19 -17 -20 -20 -20 -2 -20 -19 -11 -10 11 -20 -20 -20 -20 -20 -18 -20 -20

GFSSE_prec_radar_057.txt.gz
Reflectivity
-20 -20 -20 14 -9 6 9 3 9 6 -20 -20 -20 -20 -20 -20 -18 -5 -1 -20 -20 -20 11 14 -17 6 -20 -20 -20 -20 -20 -20 -20 -20 -20 -20 -20 -20 -20 -20 -20 2 -20
-20 -20 -20 -20 3 10 11 7 12 4 -20 -20 -20 -20 -20 -20 5 -20 -20 -20 -20 -20 -1 17 14 -20 -20 -20 -20 -20 -20 -20 -20 -20 -20 -20 -20 -20 -20 -20 -20 7 -20
-20 2 -20 5 8 10 10 -4 -20 -20 -4 -14 -20 -20 -20 -20 6 -20 -20 -20 -20 -20 -20 -20 -20 -20 -20 -20 -20 -20 -20 -20 -20 -20 -20 -20 -20 -20 -20 -20 -15 -20 -5
-12 -15 -20 -6 8 -20 -20 -20 -20 -3 -20 -20 -20 -20 -20 -20 11 -20 -20 -20 -20 -20 -20 -20 -20 -20 -20 -20 -20 -20 -20 -20 -20 -20 -20 -20 -20 -19 -20 22 10 -5 -20
-5 -20 -20 -6 -20 -20 -20 -20 -9 -20 -20 -20 -20 -20 -20 -20 -0 -6 -20 -20 -20 -20 -20 -20 -20 -20 -20 -20 -20 -20 -20 -20 -20 -20 -20 8 4 10 13 14 -20 -19 -12
-10 -20 -4 -19 11 -20 -19 -9 -11 -20 -20 -20 -20 -20 -14 -20 10 5 -20 -20 -20 -20 -20 -20 -20 -20 -20 -20 -20 -20 -20 -20 -20 -20 -20 -19 13 13 8 -17 -20 -2 1
2 -20 -20 -20 -20 -20 -19 11 -20 -20 -20 -20 -20 -20 7 -10 16 7 -20 -20 -20 -20 -20 -20 -20 -20 -20 -20 -20 -20 -20 -20 -20 -20 -20 -20 -19 1 -19 -17 -13 -20 -20
-9 3 -12 3 -20 -20 -20 -15 -20 -20 -20 -20 -20 -20 15 18 17 7 -14 -20 -20 -20 -20 -20 -20 -20 -20 -20 -20 -20 -20 -20 -20 -20 -20 -20 -20 -20 -20 -20 -20 -20 -20
4 12 2 -20 -20 -20 -20 -20 -20 -20 -20 -20 -20 -20 -20 -14 12 13 9 -20 -20 -20 -20 -20 -20 -20 -20 -20 -20 -20 -20 -20 -20 -20 -20 -20 -20 -15 -20 -20 -20 -20 -20
-20 -20 -6 -17 -20 -20 11 -19 -2 -16 -20 -20 -20 -20 -20 -20 -20 -20 -20 -20 -20 -20 -20 -20 -20 -20 -20 -20 -20 -20 -20 -20 -20 -20 -20 -20 -20 15 -20 -20 -20 -20 -20
-17 -20 -20 -20 -20 -20 -20 -1 11 12 -20 -20 -20 -20 -20 -20 -20 -20 -20 -20 -20 -20 -20 -20 -20 -20 -20 -20 -20 -20 -20 -20 -20 -20 -20 -20 -20 3 -8 -20 -20 -20 -20
-20 -20 -20 -20 -20 -20 -19 9 7 -19 -20 -20 -20 -20 -20 -20 -20 -20 -20 -20 -20 -20 -20 -20 -20 -20 -20 -20 -20 -20 -20 -20 -20 -20 -20 -20 -20 -17 -20 -20 -20 -20 -20
-20 -20 -20 -20 -20 -20 -20 -11 -16 -20 -20 -20 -20 -20 -20 -20 -20 -20 -20 -20 -20 -20 -20 -20 -20 -20 -20 -20 -20 -20 -20 -20 -20 -20 -20 -20 -20 -9 -11 -20 -20 -20 -20
-20 -20 -20 -20 -20 -20 -20 -20 -20 -20 -20 -20 -20 -20 -20 -20 -20 -20 -20 -20 -20 -20 -20 -20 -20 -20 -20 -20 -20 -20 -20 -20 -20 -20 -20 -20 -20 -9 -20 -20 -20 -20 -20
-20 -20 -20 -20 -20 -20 -20 -20 -20 -20 -20 -20 -20 -20 -20 -20 -20 -20 -20 -20 -20 -20 -20 -20 -20 -20 -20 -20 -20 -20 -20 -20 -20 -20 -20 -20 -20 -20 0 -20 -20 -20 -20
-20 -20 -20 -20 -20 -20 -20 -20 -20 -20 -20 -20 -20 -20 -20 -20 -20 -20 -20 -20 -20 -20 -20 -20 -20 -20 -20 -20 -20 -20 -20 -20 -20 -20 -20 -20 -20 -20 -20 -20 -20 -20 -20
31 -20 -20 -20 -20 -20 -20 -20 -20 -20 -20 -20 -20 -20 -20 -20 -20 -20 -20 -20 -20 -20 -20 -20 -20 -20 -20 -20 -20 -20 -20 -20 -20 -20 -20 -20 -20 -20 -20 -20 -20 -20 -19
-17 3 -20 -20 -20 -20 -20 -20 -20 -20 -20 -20 -20 -20 -20 -20 -20 -20 -20 -20 -20 -20 -20 -20 -20 -20 -20 -20 -20 -20 -20 -20 -20 -20 -20 -20 -20 -20 -20 -20 -20 -20 -9
-8 2 -0 -20 -20 -20 -20 -20 -20 -20 -20 -20 -20 -20 -20 -20 -20 -20 -20 -20 -20 -20 -20 -20 -20 -20 -20 -20 -20 -20 -20 -20 -20 -20 -20 -20 -20 -20 -20 -20 -20 -20 -20
-20 -17 3 -17 -20 -20 -20 -20 -20 -20 -20 -20 -20 -20 -20 -20 -20 -20 -20 -20 -20 -20 -20 -20 -20 -20 -20 -20 -20 -20 -20 -20 -20 -20 -20 -20 -20 -20 -20 -20 -20 -20 -20
-20 -20 -20 -20 -20 -20 -20 -20 -20 -20 -20 -20 -20 -20 -20 -20 -20 -20 -20 -20 -20 -20 -20 -20 -20 -20 -20 -20 -20 -20 -20 -20 -20 -20 -20 -20 -20 -20 -20 -20 -20 -20 -20
-10 -15 -20 -20 -20 -20 -20 -20 -20 -20 -20 -20 -20 -20 -20 -20 -20 -20 -20 -20 -20 -20 -20 -20 -16 -20 -20 -20 -20 -20 -17 -20 -20 -20 -20 -20 -20 -20 -20 -20 -20 -20 -20
-20 -18 -11 -20 -20 -20 -20 -20 -20 -20 -20 -20 -20 -20 -20 -20 -20 -20 -20 -20 -20 -20 -20 -20 -20 -20 -10 -20 -20 -20 -14 -20 -20 -20 -20 -20 -20 -20 -20 -20 -20 -20 -20
-20 -20 -20 -20 -20 -20 -20 -20 -20 -20 -20 -20 -20 -20 -20 -20 -20 -20 -20 -20 7 -7 -20 -9 -20 -20 -20 -20 -20 -20 -20 -20 -20 -20 -20 -20 -19 -20 -20 -20 -20 -20 -20
-20 -20 -20 -20 -20 -20 -20 -20 -20 -20 -20 -20 -20 -20 -20 -20 -20 -20 -20 -20 -20 -20 -8 -19 -1 4 -16 11 12 -20 -20 -20 -12 -7 6 -4 -6 -8 -20 -20 -20 -20 -20
-20 -20 -20 -20 -20 -20 -20 -20 -20 -20 -20 -20 -20 -20 -20 -20 -20 -20 -20 -20 -20 -20 -20 -20 -11 -7 -16 6 -4 1 -10 -20 -11 -20 -12 -20 -20 -16 -11 -20 -20 -20 -20

GFSSE_prec_radar_060.txt.gz
Reflectivity
-20 -15 12 -20 -13 -11 7 15 18 10 13 -10 -20 -20 -20 -16 -12 5 -20 -20 -20 1 -20 -20 5 -1 -20 -20 -20 -20 -20 -20 -20 -20 -20 -20 -20 -20 -20 -20 8 -20 -20
-20 -20 15 -19 -15 7 11 13 12 9 4 -20 -20 -20 -15 5 -19 -20 -20 -20 -20 -0 9 12 12 -6 -20 -20 -20 -20 -20 -20 -20 -20 -20 -20 -20 -20 -20 -20 -16 -9 -20
-20 -20 -6 7 -20 -15 10 -6 9 7 -20 -20 -20 -20 -16 -20 -20 -20 -20 -20 -20 7 2 12 12 6 -20 -20 -20 -20 -20 -20 -20 -20 -20 -20 -20 -20 1 -16 -20 -11 2
-20 -20 -9 -20 -12 -3 -20 -20 -20 -20 -20 -20 -20 -20 -20 7 -20 -14 -20 -20 -20 -20 -20 -20 -11 -20 -20 -20 -20 -20 -20 -20 -20 -20 -20 2 -20 -20 17 7 1 -20 -20
-20 -20 -20 1 -16 -20 -20 -20 4 -20 -20 -20 -20 -20 -20 15 -6 0 -20 -20 -20 -20 -20 -20 -20 -20 -20 -20 -20 -20 -20 -20 -20 -19 -20 -2 13 11 4 -15 -3 3 13
-20 -20 -4 7 -20 -20 -20 -5 -20 -20 -20 -20 -20 -20 -20 15 11 -20 -20 -20 -20 -20 -20 -20 -20 -20 -20 -20 -20 -20 -20 -20 -20 -20 -20 -20 -15 -20 -20 -20 -20 -20 -20
-20 -20 -2 -20 -20 -20 -10 -20 -20 -20 -20 -20 -20 -13 -20 15 10 -8 -20 -20 -20 -20 -20 -20 -20 -20 -20 -20 -20 -20 -20 -20 -20 -20 -20 -20 -20 -20 -20 -20 -20 -20 -20
-20 -20 10 -12 17 -20 9 -20 -20 -20 -20 -20 -20 11 -7 18 15 5 -20 -20 -20 -20 -20 -20 -20 -20 -20 -20 -20 -20 -20 -20 -20 -20 -20 -20 -20 -20 -20 -20 -20 -20 -20
-20 -20 0 9 -12 -20 -20 -7 -20 -20 -20 -20 -20 -13 5 13 12 4 -3 -20 -20 -20 -20 -20 -20 -20 -20 -20 -20 -20 -20 -20 -20 -20 -20 -20 -20 -5 -20 -20 -20 -20 -20
6 7 -4 12 4 -2 8 7 -20 -20 -20 -20 -20 -20 -20 -20 -15 -5 -5 -20 -20 -20 -20 -20 -20 -20 -20 -20 -20 -20 -20 -20 -20 -20 -20 -20 -20 -3 -20 -20 -20 -20 -20
8 12 8 -8 -19 -6 6 2 5 5 -20 -20 -20 -20 -20 -20 -20 -20 -20 -20 -20 -20 -20 -20 -20 -20 -20 -20 -20 -20 -20 -20 -20 -20 -20 -20 -20 -19 -17 -20 -20 -20 -20
6 9 12 11 7 -1 10 4 -9 -20 -20 -20 -20 -20 -20 -20 -20 -20 -20 -20 -20 -20 -20 -20 -20 -20 -20 -20 -20 -20 -20 -20 -20 -20 -20 -20 -20 -20 17 -20 -20 -20 -20
-18 5 9 12 9 9 8 12 4 -20 1 -20 -20 -20 -20 -20 -20 -20 -20 -20 -20 -20 -20 -20 -20 -20 -20 -20 -20 -20 -20 -20 -20 -20 -20 -20 -20 -20 -7 -17 -20 -20 -20
2 4 4 -1 0 4 -20 10 4 -20 -20 -20 -20 -20 -20 -20 -20 -20 -20 -20 -20 -20 -20 -20 -20 -20 -20 -20 -20 -20 -20 -20 -20 -20 -20 -20 -20 -20 4 -20 -20 -20 -20
-20 -20 -20 -20 -20 1 5 -11 -20 -20 -20 -20 -20 -20 -20 -20 -20 -20 -20 -20 -20 -20 -20 -20 -20 -20 -20 -20 -20 -20 -20 -20 -20 -20 -20 -20 -20 -20 -10 4 -14 -20 -20
-20 5 1 -20 -13 9 5 3 -11 -20 -20 -20 -20 -20 -20 -20 -20 -20 -20 -20 -20 -20 -20 -20 -20 -20 -20 -20 -20 -20 -20 -20 -20 -20 -20 -20 -20 -20 -20 -20 -1 5 -7
-20 -20 -20 -20 -20 4 -20 -20 -20 -20 -20 -20 -20 -20 -20 -20 -20 -20 -20 -20 -20 -20 -20 -20 -20 -20 -20 -20 -20 -20 -20 -20 -20 -20 -20 -20 -20 -20 -20 -20 -20 -2 1
-20 -20 -20 12 -13 -20 -20 -20 -20 -20 -20 -20 -20 -20 -20 -20 -20 -20 -20 -20 -20 -20 -20 -20 -20 -20 -20 -20 -20 -20 -20 -20 -20 -20 -20 -20 -20 -20 -20 -20 -20 -20 -8
-20 -20 -20 -18 7 -14 -20 -20 -20 -20 -20 -20 -20 -20 -20 -20 -20 -20 -20 -20 -20 -20 -20 -20 -20 -20 -20 -20 -20 -20 -20 -20 -20 -20 -20 -20 -20 -20 -20 -20 -20 -20 -20
-20 -20 -20 -20 -14 6 -18 -20 -20 -20 -20 -20 -20 -20 -20 -20 -20 -20 -20 -20 -20 -20 -20 -20 -20 -20 -20 -20 -20 -20 -20 -20 -20 -20 -20 -20 -20 -20 -20 -20 -20 -20 -20
-20 -20 -20 -20 -20 -14 8 -10 -20 -20 -20 -20 -20 -20 -20 -20 -20 -20 -20 -20 -20 -20 -20 -20 -20 -20 -20 -20 -20 -20 -20 -20 -20 -20 -20 -20 -20 -20 -20 -20 -20 -20 -20
-20 -20 -20 -20 -20 -20 -13 -9 -20 -20 -20 -20 -20 -20 -20 -20 -20 -20 -20 -20 -20 -20 -20 -20 -20 -20 -20 -20 -9 -9 -16 -20 -20 -20 -20 -20 -20 -20 -20 -20 -20 -20 -20
-9 -20 -20 -20 -20 -20 -20 -20 -20 -20 -20 -20 -20 -20 -20 -20 -20 -20 -8 -5 -6 -11 -20 -10 -5 -3 1 -7 -20 -9 -6 -17 -20 -20 -20 -20 -20 -20 -20 -20 -20 -20 -20
-1 4 -15 -20 -20 -20 -20 -20 -20 -20 -20 -20 -20 -20 -20 -20 -20 -20 -20 -16 -7 -2 6 -1 -16 4 7 1 -6 -20 -1 6 -5 -2 -20 -20 -20 -20 -20 -20 -20 -20 -20
-15 -20 -20 -20 -6 -20 -20 -20 -20 -20 -20 -20 -20 -20 -20 -20 -20 -20 -20 -20 -20 -20 -20 -20 -20 -18 3 0 9 -20 -20 -18 -19 -20 -9 -20 -20 -20 -20 -20 -20 -20 -20
-20 -20 -20 -20 -20 -20 -20 -20 -20 -20 -20 -20 -20 -20 -20 -20 -20 -20 -20 -20 -20 -20 -20 -20 -20 -20 -20 -14 9 8 -5 -4 -20 -20 -20 -20 -17 -13 -20 -20 -20 -20 -20

GFSSE_prec_radar_063.txt.gz
Reflectivity
-20 -20 -20 -20 -20 -14 -20 -16 14 9 9 -11 -20 -20 -20 4 -9 -20 -20 -20 -20 -20 -10 -7 -20 -20 -20 -20 -20 -20 -20 -20 -20 -20 -20 -20 -20 -20 -20 -20 7 -20 -20
-20 -20 -20 -20 -20 -15 -20 -20 -4 -18 10 -19 -20 -20 10 -18 -20 -20 -20 -13 1 -19 7 -4 12 -5 -20 -20 -20 -20 -19 -20 -20 -20 -20 -20 -20 -9 -15 -20 -17 -20 11
-20 -20 -6 -20 -16 12 11 -11 3 -20 -20 -19 -20 -20 -20 -20 -20 -20 -20 -20 14 11 10 13 15 6 -20 -20 -20 -20 -20 -20 -20 -20 -7 -20 -20 10 15 -20 -20 -20 -20
-20 -20 -8 8 -20 -17 -18 -20 -20 -20 -20 -20 -20 -20 -13 -20 -3 -20 -20 -20 -20 -20 5 12 7 -20 -20 -20 -20 -20 -20 -20 -20 -12 7 -20 9 12 6 7 -20 -15 -6
-20 -20 -3 -2 3 -20 -20 -20 -20 -20 -20 -20 -20 -20 15 -20 2 -20 -20 -20 -20 -20 -20 -20 -20 -20 -20 -20 -20 -20 -20 -20 -20 -19 5 -7 4 5 -13 -20 3 -15 -5
-20 -20 -20 -19 -19 -20 -20 -20 -20 -20 -20 -20 -20 -20 -12 4 -20 -20 -20 -20 -20 -20 -20 -20 -20 -20 -20 -20 -20 -20 -20 -20 -20 -20 -20 -20 -20 -20 -20 -20 -20 -20 -20
-20 -20 -20 -20 -20 -20 -16 -20 -20 -20 -20 -20 -20 -20 -20 8 -16 -20 -20 -20 -20 -20 -18 -20 -20 -20 -20 -20 -20 -20 -20 -20 -20 -20 -20 -20 -20 -20 -20 -20 -20 -20 -20
-20 -20 -12 -20 -1 -20 -20 -20 -20 -20 -20 -20 -20 -20 16 16 12 -20 -20 -20 -20 -20 -20 -20 -20 -20 -20 -20 -20 -20 -20 -20 -20 -20 -20 -20 -20 -20 -20 -20 -20 -20 -20
-20 -20 -15 -14 -10 -20 -12 -20 -20 -20 -20 -20 -8 -13 17 13 14 -20 -20 -20 -20 -20 -20 -20 -20 -20 -20 -20 -20 -20 -20 -20 -20 -20 -20 -20 -20 -20 -20 -20 -20 -20 -20
-20 -20 -8 -13 -12 -3 -3 1 -20 -20 -20 -20 -20 -20 -20 -20 -2 -20 -20 -20 -20 -20 -20 -20 -20 -20 -20 -20 -20 -20 -20 -20 -20 -20 -20 -20 -20 -20 -20 -20 -20 -20 -20
-20 -17 19 10 -18 -5 -5 -11 -20 -20 -20 -20 -20 -20 -20 -20 -20 -20 -20 -20 -20 -20 -20 -20 -20 -20 -20 -20 -20 -20 -20 -20 -20 -20 -20 -20 -20 -20 -15 -20 -20 -20 -20
12 11 1 11 -1 -1 -6 -20 -20 -20 -20 -20 -20 -20 -20 -20 -20 -20 -20 -20 -20 -20 -20 -20 -20 -20 -20 -20 -20 -20 -20 -20 -20 -20 -20 -20 -20 -20 -13 -14 -20 -20 -20
-14 5 13 2 7 14 10 -20 -10 -20 -4 -20 -20 -20 -20 -20 -20 -20 -20 -20 -20 -20 -20 -20 -20 -20 -20 -20 -20 -20 -20 -20 -20 -20 -20 -20 -20 -20 -19 -20 -20 -20 -20
-20 -20 -20 7 -1 3 14 12 -16 -20 -17 -20 -20 -20 -20 -20 -20 -20 -20 -20 -20 -20 -20 -20 -20 -20 -20 -20 -20 -20 -20 -20 -20 -20 -20 -20 -20 -20 -10 -20 -20 -20 -20
-9 12 12 -14 -20 -15 -19 18 -13 -20 -20 -20 -20 -20 -20 -20 -20 -20 -20 -20 -20 -20 -20 -20 -20 -20 -20 -20 -20 -20 -20 -20 -20 -20 -20 -20 -20 -20 -20 5 -10 -20 -20
-6 -19 -16 -20 -20 -20 -0 4 -1 -20 -20 -20 -20 -20 -20 -20 -20 -20 -20 -20 -20 -20 -20 -20 -20 -20 -20 -20 -20 -20 -20 -20 -20 -20 -20 -20 -20 -20 -20 -20 -13 -4 -19
-20 -13 10 -2 -20 -1 -20 -9 -10 -20 -20 -20 -20 -20 -20 -20 -20 -20 -20 -20 -20 -20 -20 -20 -20 -20 -20 -20 -20 -20 -20 -20 -20 -20 -20 -20 -20 -20 -20 -20 -20 -20 -13
-20 -20 -20 -1 -20 -20 -20 -19 -20 -20 -20 -20 -20 -20 -20 -20 -20 -20 -20 -20 -20 -20 -20 -20 -20 -20 -20 -20 -20 -20 -20 -20 -20 -20 -20 -20 -20 -20 -20 -20 -20 -20 -20
-20 -20 -20 -20 -20 -20 -20 -20 -20 -20 -20 -20 -20 -20 -20 -20 -20 -20 -20 -20 -20 -20 -20 -20 -20 -20 -20 -20 -20 -20 -20 -20 -20 -20 -20 -20 -20 -20 -20 -20 -20 -20 -20
-20 -20 -20 -20 -20 -20 -20 -1 -2 -9 -20 -20 -20 -20 -20 -20 -20 -20 -20 -20 -20 -20 -20 -18 -20 -20 -20 -20 12 -9 -16 -20 -20 -20 -20 -20 -20 -20 -20 -20 -20 -20 -20
-20 -20 -20 -20 -20 -20 -20 -20 -20 1 -15 -18 -20 -20 -20 -20 -20 -20 -20 -20 -20 -17 -20 -9 -0 4 -20 -5 -6 -20 -20 -20 -20 -20 -20 -20 -20 -20 -20 -20 -20 -20 -20
-20 -20 -20 -20 -20 -20 -20 -20 -20 -14 3 -3 -20 -20 -20 -20 -20 -20 -20 -20 -20 -8 -20 -20 -19 -20 -20 -3 -0 19 1 -20 -20 -20 -20 -20 -20 -20 -20 -20 -20 -20 -20
-20 -20 -20 -20 -20 -20 -20 -1 -8 -20 -20 -15 -19 -20 -20 -20 -20 -20 -20 2 1 5 -1 -2 -1 9 6 -1 9 10 8 -16 -20 -20 -20 -20 -20 -20 -20 -20 -20 -20 -20
-20 -20 -20 -20 -20 -20 -20 -20 -20 -20 -20 -20 -20 -20 -20 -20 -20 -20 -20 -17 -20 -19 -16 -20 -20 2 13 6 -20 -19 5 2 8 1 -20 -20 -20 -20 -20 -20 -20 -20 -20
-20 -20 -20 -20 -20 -20 -20 -20 -20 -20 -20 -20 -20 -20 -20 -20 -20 -20 -20 -20 -20 -20 -20 -20 -20 -20 -20 -2 6 9 -19 -18 1 -12 10 -10 13 -20 -20 -20 -20 -20 -20
-20 -20 -20 -20 -7 -2 12 -11 -20 -20 -20 -20 -20 -20 -20 -20 -20 -20 -20 -20 -20 -20 -20 -20 -20 -20 -20 -20 -15 -14 -1 -2 -20 -17 -0 -1 8 -20 -18 -2 -20 -20 -20

GFSSE_prec_radar_066.txt.gz
Reflectivity
-20 -20 -20 -15 -20 -20 -20 -20 -13 5 -20 -20 -20 -20 8 -20 -20 -20 -20 -20 -20 21 -0 -20 -10 -20 -20 -20 -20 -20 -20 -20 -20 -20 -20 -20 -7 -20 11 -20 -20 -14 -10
-20 -20 -20 -20 -19 -20 -20 -5 -17 -20 -18 -20 -10 6 -19 -20 -20 -20 -20 -20 -20 18 -6 2 14 -3 -20 -20 -20 -20 -20 -20 -20 -20 -20 -20 12 -20 -20 -20 18 -14 -20
-20 -20 -20 -20 -20 -20 -20 -20 -18 -20 -20 -20 15 -20 -20 -20 -20 -20 -20 -1 6 8 -3 10 4 -11 -20 -20 -20 -20 -20 -20 5 -3 -20 -20 -18 14 -14 -20 -19 -20 11
-20 -20 -20 9 3 -20 -20 -20 -20 -20 -20 -20 2 -20 -16 -20 -20 -20 -20 -11 12 15 14 13 -5 -20 -20 -20 -20 -20 -20 -20 11 -20 -7 -20 -11 5 5 12 3 16 -2
-20 -20 -20 11 -2 -13 -20 -20 -20 -20 -20 -20 -20 12 -19 -20 -20 -20 -20 -20 -20 6 7 -3 -20 -20 -20 -20 -20 -20 -20 -20 -20 -20 -20 -20 -18 1 -5 -20 -20 -16 4
-20 -20 -20 17 -2 -20 -20 -20 -20 -20 -20 -20 -20 11 -2 -20 -20 -20 -20 -20 -20 -20 -20 -20 -20 -20 -20 -20 -20 -20 -20 -20 -20 -20 -20 -20 -20 -20 -20 -20 -20 -20 -20
-20 -20 -20 -20 -16 12 5 -20 -20 -20 -20 -20 -20 -20 8 -20 -20 -20 -20 -20 -20 -20 -20 -20 -20 -20 -20 -20 -20 -20 -20 -20 -20 -20 -20 -20 -20 -20 -20 -20 -20 -20 -20
-20 -20 -20 -20 9 -20 -3 -20 -20 -20 -20 -20 -20 -20 5 -20 -20 -20 -20 -20 -20 -20 -20 -20 -20 -20 -20 -20 -20 -20 -20 -20 -20 -20 -20 -20 -20 -20 -20 -20 -20 -20 -20
-20 -20 -20 -20 -20 -20 -20 -20 -20 -20 -20 -20 -20 14 12 -18 -20 -20 -20 -20 -20 -20 -20 -20 -20 -20 -20 -20 -20 -20 -20 -20 -20 -20 -20 -20 -20 -20 -20 -20 -20 -20 -20
-20 -18 -20 -20 -20 -20 -18 -20 -20 -20 -20 -20 -20 -20 -20 -20 -20 -20 -20 -20 -20 -20 -20 -20 -20 -20 -20 -20 -20 -20 -20 -20 -20 -20 -20 -20 -20 -20 -20 -20 -20 -20 -20
6 -20 10 8 0 -13 -20 -12 -20 -20 -20 -20 -20 -20 -20 -20 -20 -20 -20 -20 -20 -20 -20 -20 -20 -20 -20 -20 -20 -20 -20 -20 -20 -20 -20 -20 -20 -20 -17 -20 -20 -20 -20
11 -13 -18 9 -15 9 -9 -20 -20 -20 -20 -20 -20 -20 -20 -20 -20 -20 -20 -20 -20 -20 -20 -20 -20 -20 -20 -20 -20 -20 -20 -20 -20 -20 -20 -20 -20 -20 -20 -17 -20 -20 -20
14 7 19 7 -7 11 -17 -20 -20 -20 -20 -20 -20 -20 -20 -20 -20 -20 -20 -20 -20 -20 -20 -20 -20 -20 -20 -20 -20 -20 -20 -20 -20 -20 -20 -20 -20 -20 -20 -20 -20 -20 -20
4 8 16 9 -20 14 11 -20 -20 -20 -20 -18 -20 -20 -20 -20 -20 -20 -20 -20 -20 -20 -20 -20 -20 -20 -20 -20 -20 -20 -20 -20 -20 -20 -20 -20 -20 -20 -20 -20 -20 -20 -20
12 19 -7 9 8 9 8 6 -10 -20 -20 -20 -20 -20 -20 -20 -20 -20 -20 -20 -20 -20 -20 -20 -20 -20 -20 -20 -20 -20 -20 -20 -20 -20 -20 -20 -20 -20 -20 -20 -2 -18 -20
2 15 -20 9 11 8 -10 9 7 -20 -20 -20 -20 -20 -20 -20 -20 -20 -20 -20 -20 -20 -20 -20 -20 -20 -20 -20 -20 -20 -20 -20 -20 -20 -20 -20 -20 -20 -20 -20 -20 6 -4
-20 -20 20 -20 0 -6 -0 -20 -20 -20 -20 -20 -20 -20 -20 -20 -20 -20 -20 -20 -20 -20 -20 -20 -20 -20 -20 -20 -20 -20 -20 -20 -20 -20 -20 -20 -20 -20 -20 -20 -20 -20 -20
-20 -19 -11 -19 12 18 12 -12 -20 -19 -20 -20 -20 -20 -20 -20 -20 -20 -20 -20 -20 -20 -20 -20 -20 -20 -20 -20 -20 -20 -20 -20 -20 -20 -20 -20 -20 -20 -20 -20 -20 -20 -20
-20 -20 -2 19 -13 -9 -19 11 10 -19 -20 -20 -20 -20 -20 -20 -20 -20 -20 -20 -20 -20 -20 -20 -20 -20 -20 -20 -13 -1 -4 1 -10 -20 -20 -20 -19 -17 -13 -20 -20 -20 -20
-20 -20 -20 -20 -20 -20 -20 -14 -17 -20 -20 -20 -20 -20 -20 -20 -20 -20 -20 -20 -20 -20 -6 3 -16 -6 13 2 8 -1 0 -20 -20 -20 -20 -20 -20 -20 -20 -20 -20 -20 -20
-20 -20 -20 -20 -20 -20 -20 -20 -20 -20 -20 -20 -20 -20 -14 -19 -20 -20 -20 -20 -20 -7 1 5 6 6 -16 5 9 -20 -20 -20 -20 -20 -20 -20 -20 -20 -20 -20 -20 -20 -20
-3 -20 -20 -20 -20 -20 -20 -20 -20 -20 -20 -20 -20 -20 -20 -20 -20 -20 -20 -20 -20 -4 2 -11 11 4 -0 3 16 1 -2 -19 -20 -20 -20 -20 -20 -20 -20 -20 -20 -20 -20
-20 -20 6 -20 -20 -20 -20 -20 -20 -20 -20 -20 -20 -20 -18 -20 -20 -20 -20 -20 -10 -20 12 11 -5 -1 11 -8 13 18 12 -12 -20 -20 -20 -20 -20 -20 -20 -20 -20 -20 -20
-20 -20 -20 -20 -19 -20 -20 -20 -20 16 -20 -20 -11 -20 -15 -20 -20 -20 -20 -20 -20 -20 -20 -20 -19 -20 7 -8 -14 8 12 12 14 -6 -20 -20 -20 -20 -20 -20 -20 -20 -20
-4 -19 -20 -20 -20 -20 -13 -7 -14 -20 -20 -20 -20 -20 -20 -20 -20 -20 -20 -20 -20 -20 -20 -20 -20 -20 -20 -20 -20 -20 -19 4 2 11 1 -20 -20 -20 -6 -20 -20 -20 -20
-20 -20 -20 -20 -20 -20 -20 -20 -4 -20 -20 -20 -20 -20 -20 -20 -20 -20 -20 -20 -20 -20 -20 -20 -20 -20 -20 -20 -20 -20 -20 4 -16 -1 3 -20 -20 -20 -20 -20 -20 -20 -0

GFSSE_prec_radar_069.txt.gz
Reflectivity
-20 -20 -20 -20 -20 -20 -20 -20 -20 -20 -20 -20 -1 -1 -20 -20 -20 -20 -20 9 17 -5 -20 8 -10 -20 -20 -20 -20 -20 -20 -20 -20 -5 -20 -20 8 6 -2 13 -12 -20 -20
-20 -20 -20 -20 -20 -20 -20 -20 -20 -20 -20 -10 16 -19 -20 -20 -20 -20 -20 20 -7 -19 15 7 -20 -20 -20 -20 -20 -20 -20 -20 -20 -20 -17 -20 -20 -20 -20 -20 -20 17 13
-20 -20 -20 -20 -20 -20 -20 -20 -20 -20 -20 15 -20 -20 -20 -20 -7 -20 -20 -20 6 -20 -20 -20 -20 -20 -20 -20 -20 -20 -6 -14 -20 -20 -20 -20 -4 -16 2 12 20 11 13
-20 -20 -20 -7 -20 -20 -20 -20 -20 -20 -20 -12 -20 -15 -20 -20 -20 13 9 12 -5 -20 -20 -5 -20 -20 -20 -20 -20 -20 -20 -20 -20 -20 -20 -20 -9 -6 2 -19 -13 -15 -14
-20 -20 -20 -20 -20 -14 10 -20 -20 -20 -20 10 -16 -20 -20 -20 -20 -20 -20 6 6 13 -15 -20 -20 -20 -20 -20 -20 -20 -20 -20 -20 -20 -20 -20 -20 -17 -18 -20 -20 -20 -20
-20 -20 -20 -20 -20 -20 13 -20 -20 -20 -20 -7 5 -19 -20 -20 -20 -20 -20 -20 -7 -4 -20 -20 -20 -20 -20 -20 -20 -20 -20 -20 -20 -20 -20 -20 -20 -20 -20 -20 -20 -20 -20
-20 -20 -20 -12 -20 -20 5 -20 -20 -20 -20 -20 14 -19 -20 -20 -20 -20 -20 -20 -20 -20 -20 -20 -20 -20 -20 -20 -20 -20 -20 -20 -20 -20 -20 -20 -20 -20 -20 -20 -20 -20 -20
-20 -20 -20 -1 -20 -16 -20 -20 -20 -20 -20 -20 15 -18 -20 -20 -20 -20 -20 -20 -20 -20 -20 -20 -20 -20 -20 -20 -20 -20 -20 -20 -20 -20 -20 -20 -20 -20 -20 -20 -20 -20 -20
-20 -20 -20 14 -20 -20 -20 -20 -20 -20 -14 -20 -15 4 -20 -20 -20 -20 -20 -20 -20 -20 -20 -20 -20 -20 -20 -20 -20 -20 -20 -20 -20 -20 -20 -20 -20 -20 -20 -20 -20 -20 -20
-12 -12 -20 -20 -20 -20 -20 -20 -20 -20 -20 -20 -20 2 -20 -20 -20 -20 -20 -20 -20 -20 -20 -20 -20 -20 -20 -20 -20 -20 -20 -20 -20 -20 -20 -20 -20 -20 -20 -20 -20 -20 -20
20 -12 -20 -20 -20 -20 -20 -20 -20 -20 -20 -20 -20 -20 -20 -20 -20 -20 -20 -20 -20 -20 -20 -20 -20 -20 -20 -20 -20 -20 -20 -20 -20 -20 -20 -20 -20 -20 -20 -20 -20 -20 -20
-11 -19 -20 -20 -20 -20 -20 -20 -20 -20 -20 -20 -20 -20 -20 -20 -20 -20 -20 -20 -20 -20 -20 -20 -20 -20 -20 -20 -20 -20 -20 -20 -20 -20 -20 -20 -20 -20 -20 -20 -20 -20 -20
12 17 -1 9 8 -20 -20 -20 -20 -20 -20 -20 -20 -20 -20 -20 -20 -20 -20 -20 -20 -20 -20 -20 -20 -20 -20 -20 -20 -20 -20 -20 -20 -20 -20 -20 -20 -20 -20 -20 -20 -20 -20
28 -8 3 -8 9 -9 -20 -20 -20 -20 -20 -20 -20 -20 -20 -20 -20 -20 -20 -20 -20 -20 -20 -20 -20 -20 -20 -20 -20 -20 -20 -20 -20 -20 -20 -20 -20 -20 -20 -20 -20 -20 -20
27 28 -7 -20 -15 12 1 -20 -20 -20 -20 -20 -20 -20 -20 -20 -20 -20 -20 -20 -20 -20 -20 -20 -20 -20 -20 -20 -20 -20 -20 -20 -20 -20 -20 -20 -20 -20 -20 -20 -19 -12 -20
12 13 26 6 11 12 11 -2 -8 -20 -20 -20 -20 -20 -20 -20 -20 -20 -20 -20 -20 -20 -20 -20 -20 -20 -20 -20 -20 -20 -20 -20 -20 -20 -20 -20 -20 -20 -20 -20 -20 -13 14
2 34 2 3 -2 -17 -20 9 9 -20 -20 -20 -20 -20 -20 -20 -20 -20 -20 -20 -20 -20 -20 -20 -20 -20 -20 -20 -20 -20 -20 -20 -20 -20 -20 -20 -20 -20 -20 -20 -20 -20 -20
25 -10 2 3 -17 -20 10 -11 -20 1 -20 -20 -20 -20 -20 -20 -20 -20 -20 -20 -20 -20 -20 -20 -20 -20 -20 -20 -20 -20 -20 -19 -20 -19 -5 -20 -20 -20 -20 5 0 -20 -20
-3 14 -7 -9 -18 3 11 -10 -20 -13 0 4 -16 -20 -20 -20 -20 -20 -20 -20 -20 -20 -20 -20 -20 -20 -19 -19 -9 -16 -17 3 10 -7 -20 -20 -20 -20 -20 -1 4 -20 -20
-2 -9 -6 -13 7 -20 -20 -13 -13 -20 -7 -20 -20 -20 -20 -20 -20 -20 -20 -20 -20 -20 -19 3 -15 -9 -7 9 3 1 -20 -20 -20 -20 -20 -20 -20 -20 -20 -20 -20 -20 -20
-14 -20 -20 -9 14 -19 -20 -20 -7 -20 18 -20 -20 -20 -20 -20 -20 -20 -20 -20 -20 -9 -18 -7 3 17 -20 -20 -20 -20 -20 -20 -20 -20 -20 -20 -20 7 -20 -20 -20 -20 -20
-20 9 -14 -11 -4 -4 3 -15 -20 -20 -20 -20 -20 -20 -20 -2 -20 -20 -20 -20 -20 -20 1 -15 -13 6 5 -16 9 8 -20 -20 -20 -20 -20 -20 -20 -10 -20 -20 -20 -20 -20
-20 -2 -20 -20 -13 -12 -16 8 -19 -20 -20 -20 -20 -20 -20 -16 -20 -20 -20 -20 -12 -19 -11 -19 4 11 10 -16 -9 8 -5 -17 -20 -20 -20 -20 -10 -4 -9 -20 -20 -20 -20
-20 -20 -20 -20 -18 -18 -18 -15 -6 -8 -20 -11 -4 -5 -19 15 -7 -20 -20 -20 -20 -18 -20 -20 -20 -20 -20 -20 -20 -20 -8 -3 13 -4 -20 -20 -20 -20 -20 -20 -20 -20 -20
8 -5 -19 -20 7 4 -20 -6 3 13 -1 13 16 -10 -20 -20 -20 -17 -20 -20 -20 -20 -20 -20 -20 -20 -20 -20 -20 -20 -20 -20 -20 -3 -20 -20 -20 -20 -20 -20 -20 -20 -20
-20 -20 -17 -20 -20 33 30 3 5 5 19 5 14 -9 -15 -20 -15 -11 -20 -20 -20 -20 -20 -20 -20 -20 -20 -20 -20 -20 -20 -20 -20 -20 -3 -15 -20 -20 -20 -6 -20 -20 -20

GFSSE_prec_radar_072.txt.gz
Reflectivity
-20 -20 -20 -8 -1 -19 -20 -14 -9 -20 -20 24 -11 -20 -20 -20 -10 16 -20 -9 -10 -14 -20 -20 -20 -20 -20 -20 -20 -20 -20 -13 -6 -20 -20 3 14 -3 -13 -20 7 -3 -20
-20 -9 -20 -20 5 2 -20 -19 -20 -20 -20 12 -20 -20 -20 -20 -20 19 4 -3 13 2 -20 -20 -20 -20 -20 -20 -20 -20 -20 -20 -20 -20 -20 -20 -18 6 -1 17 13 9 -5
1 -7 -20 -20 -9 10 -20 -20 -20 -20 15 -20 -20 -20 -20 -20 -20 24 14 3 -5 -20 -20 -20 -20 -20 -20 -20 -20 -20 -20 -20 -20 -20 -20 -20 2 2 2 -5 -20 9 17
-12 7 -9 12 -20 -20 -20 -7 -20 15 -20 -9 -20 -20 -20 -20 -20 -20 6 -9 -20 -20 -20 -20 -20 -20 -20 -20 -20 -20 -20 -20 -20 -20 -20 -20 -20 -20 -20 -20 -11 -16 -2
-2 12 -11 -20 -20 -14 7 -10 -20 10 -20 -18 -20 -20 -20 -20 -12 -5 5 4 -20 -20 -20 -20 -20 -20 -20 -20 -20 -20 -20 -20 -20 -20 -20 -20 -20 -20 -20 -20 -20 -20 -18
3 15 -20 -20 -19 -20 5 -20 -20 7 4 -8 -20 -20 -20 -20 -20 -17 -10 -20 -20 -20 -20 -20 -20 -20 -20 -20 -20 -20 -20 -20 -20 -20 -20 -20 -20 -20 -20 -20 -20 -20 -20
4 -13 -20 -12 -15 -20 -20 -20 -20 -20 15 8 -20 -20 -20 -20 -20 -20 -20 -20 -20 -20 -20 -20 -20 -20 -20 -20 -20 -20 -20 -20 -20 -20 -20 -20 -20 -20 -20 -20 -20 -20 -20
-20 -20 -20 -9 -9 -20 -20 -20 -20 -20 18 12 -19 -20 -20 -20 -20 -20 -20 -20 -20 -20 -20 -20 -20 -20 -20 -20 -20 -20 -20 -20 -20 -20 -20 -20 -20 -20 -20 -20 -20 -20 -20
-17 -20 17 17 -20 -20 -20 -20 -20 -20 -12 19 -20 -20 -20 -20 -20 -20 -20 -20 -20 -20 -20 -20 -20 -20 -20 -20 -20 -20 -20 -20 -20 -20 -20 -20 -20 -20 -20 -20 -20 -20 -20
10 -18 -20 -7 -20 -20 -20 -20 -20 -20 -20 4 -11 -20 -20 -20 -20 -20 -20 -20 -20 -20 -20 -20 -20 -20 -20 -20 -20 -20 -20 -20 -20 -20 -20 -20 -20 -20 -20 -20 -20 -20 -20
11 -13 -20 -20 -20 -20 -20 -20 -20 -20 -20 -20 -18 -20 -20 -20 -20 -20 -20 -20 -20 -20 -20 -20 -20 -20 -20 -20 -20 -20 -20 -20 -20 -20 -20 -20 -20 -20 -20 -20 -20 -20 -20
30 -8 -12 -20 -20 -20 -20 -20 -20 -20 -20 -20 -20 -20 -20 -20 -20 -20 -20 -20 -20 -20 -20 -20 -20 -20 -20 -20 -20 -20 -20 -20 -20 -20 -20 -20 -20 -20 -20 -20 -20 -20 -20
35 33 8 4 -20 -20 -20 -20 -20 -20 -20 -20 -20 -20 -20 -20 -20 -20 -20 -20 -20 -20 -20 -20 -20 -20 -20 -20 -20 -20 -20 -20 -20 -20 -20 -20 -20 -20 -20 -20 -20 -20 -20
36 34 36 17 8 -20 -20 -20 -20 -20 -20 -20 -20 -20 -20 -20 -20 -20 -20 -20 -20 -20 -20 -20 -20 -20 -20 -20 -20 -20 -20 -20 -20 -20 -20 -20 -20 -20 -20 -20 -20 -20 -20
29 29 33 34 9 -19 -20 -20 -20 -20 -20 -20 -20 -20 -20 -20 -20 -20 -20 -20 -20 -20 -20 -20 -20 -20 -20 -20 -20 -20 -20 -20 -20 -20 -20 -20 -20 -20 -20 -20 -20 -12 -17
16 18 31 30 31 4 -15 -20 -20 -20 -20 -20 -20 -20 -20 -20 -20 -20 -20 -20 -20 -20 -20 -20 -20 -20 -20 -20 -20 -20 -20 -20 -20 -20 -20 -20 -20 -20 -20 -20 -20 -20 -8
4 -5 5 26 28 34 22 -15 -15 -20 -20 -20 -20 -20 -20 -20 -20 -20 -20 -20 -20 -20 -20 -20 -20 -20 -20 -20 -20 -20 -20 -20 -20 -20 -20 -20 -20 -20 -20 -20 -17 1 -11
-3 -20 11 -4 34 22 30 -18 -19 -20 -20 -20 -20 -20 -20 -20 -20 -20 -20 -20 -20 -20 -20 -20 -20 -20 -20 -20 -20 -20 -20 -20 -20 -20 -9 -4 3 -20 -9 15 7 14 -20
32 10 10 8 19 10 22 -10 7 -18 -10 -20 -20 -20 -20 -20 -20 -20 -20 -20 -20 -20 -20 -20 -20 -20 -20 -18 -20 -20 -20 7 -20 -6 -15 -14 -19 -16 -20 -20 10 13 -4
13 7 3 3 14 16 -2 -17 -4 -17 -20 -15 -3 -20 -20 -20 -20 -20 -20 -20 -20 -20 -20 -20 -20 -7 -15 -6 2 -11 -20 -20 -20 -20 -20 -20 -20 -20 -20 -20 -20 -20 -20
18 14 -1 -2 17 2 -14 -18 -1 7 -20 -18 -3 18 -20 -20 -20 -20 -20 -20 -20 -20 -20 -20 -15 -3 -12 6 -13 -20 -20 -20 -20 -20 -20 -20 -20 -20 -20 -20 -20 -20 -20
-16 -7 7 -2 4 13 -10 -1 -18 -20 -20 -20 -19 -20 -20 -20 -14 -20 -20 -20 -20 -20 -20 -0 -3 1 -1 -20 -12 -3 -20 -20 -20 -20 -20 -20 -20 -20 -20 -20 3 4 -20
12 -13 -4 -11 10 -5 -4 -6 -18 -20 -20 -20 -20 -20 -20 -17 3 -16 -2 -20 -20 -6 -9 -9 -12 4 5 -16 -18 -5 -7 -20 -20 -20 -20 -20 -20 -20 -20 -20 -15 -20 -20
-20 -17 -20 1 7 12 33 12 -12 -18 -0 -3 25 -15 -20 -16 -8 -20 -20 -20 9 -20 -19 -19 -20 -20 -20 -20 -20 -20 -20 -20 10 -15 -20 -7 -20 -20 -20 -20 -18 -20 -20
-20 -20 -20 -20 3 -20 17 34 -12 -9 35 34 -20 -19 0 32 30 36 30 -13 -19 -20 -20 -20 -20 -20 -20 -20 -20 -20 -20 -20 -20 -20 -19 -20 -20 -20 -20 -20 -20 -9 -20
-20 -20 -20 -20 -6 -19 16 5 17 23 12 30 32 -9 12 13 27 22 28 30 8 -13 -20 -20 -20 -20 -20 -20 -20 -20 -20 -20 -20 -20 -20 -20 -20 -20 -20 -20 -18 -18 -16

GFSSE_prec_radar_075.txt.gz
Reflectivity
-20 -20 -3 -9 -17 -6 -20 -8 -16 -20 16 -20 -20 -20 -3 1 -3 12 -9 -13 18 -1 -20 -20 -20 -2 3 -10 -20 -11 0 -1 -20 -20 -20 -20 -20 -20 -8 12 5 -20 -20
-10 -20 -20 -10 -20 -7 -2 -16 -20 -20 14 -20 -20 -20 -14 -6 23 -4 -17 12 -17 -19 -20 -20 -4 3 -2 -3 -20 -20 -20 -20 -20 -20 -20 3 18 14 5 5 10 -3 -16
-20 0 -20 -20 -2 -17 -12 -20 -20 9 -20 -20 -20 -20 -20 -1 18 21 -3 -18 -20 -20 -20 -20 -20 -20 -20 -20 -6 -20 -20 -20 -20 -20 -20 -20 -20 5 9 -1 9 16 13
-20 1 -20 -20 -20 -7 -20 -20 -20 6 -20 -20 -20 -20 -20 -13 -4 10 -1 -20 -20 -20 -20 -20 -20 -20 -20 -20 -20 -20 -20 -20 -20 -20 -20 -20 -20 -20 -20 -20 -19 -16 5
10 -20 -20 -20 -20 4 -8 -20 -0 -20 -20 -20 -20 -20 -20 -20 -10 6 -12 -20 -20 -20 -20 -20 -20 -20 -20 -20 -20 -20 -20 -20 -20 -20 -20 -20 -20 -20 -20 -20 -20 -20 -18
13 -19 -20 -20 2 -19 -20 -7 14 -20 -20 -20 -20 -20 -10 -20 -20 -13 -20 -20 -20 -20 -20 -20 -20 -20 -20 -20 -20 -20 -20 -20 -20 -20 -20 -20 -20 -20 -20 -20 -20 -20 -20
16 18 -20 7 -19 3 -20 -20 18 4 -20 -20 -20 -20 -20 -20 -0 -20 -20 -20 -20 -20 -20 -20 -20 -20 -20 -20 -20 -20 -20 -20 -20 -20 -20 -20 -20 -20 -20 -20 -20 -20 -20
-12 19 -20 -20 -20 -20 -20 -20 7 -2 -6 -20 -20 -20 -20 -20 -1 -6 -20 -20 -20 -20 -20 -20 -20 -20 -20 -20 -20 -20 -20 -20 -20 -20 -20 -20 -20 -20 -20 -20 -20 -20 -20
1 5 -11 -12 -20 -20 -20 -20 -20 16 -17 -20 -20 -20 -20 -20 -20 -4 9 -14 -20 -20 -20 -20 -20 -20 -20 -20 -20 -20 -20 -20 -20 -20 -20 -20 -20 -20 -20 -20 -20 -20 -20
26 17 16 -20 -20 -20 -20 -20 -20 8 17 -20 -20 -20 -20 -20 -20 -20 -20 -20 -20 -20 -20 -20 -20 -20 -20 -20 -20 -20 -20 -20 -20 -20 -20 -20 -20 -20 -20 -20 -20 -20 -20
30 29 31 -11 -20 -20 -20 -20 -20 -20 18 -12 -20 -20 -20 -20 -20 -20 -20 -20 -20 -20 -20 -20 -20 -20 -20 -20 -20 -20 -20 -20 -20 -20 -20 -20 -20 -20 -20 -20 -20 -20 -20
20 17 14 11 -15 -20 -20 -20 -20 -20 -20 -4 -20 -20 -20 -20 -20 -20 -20 -20 -20 -20 -20 -20 -20 -20 -20 -20 -20 -20 -20 -20 -20 -20 -20 -20 -20 -20 -20 -20 -20 -20 -20
35 32 13 11 -20 -20 -20 -20 -20 -20 -20 -20 -20 -20 -20 -20 -20 -20 -20 -20 -20 -20 -20 -20 -20 -20 -20 -20 -20 -20 -20 -20 -20 -20 -20 -20 -20 -20 -20 -20 -20 -20 -20
35 39 34 28 -9 -20 -20 -20 -20 -20 -20 -20 -20 -20 -20 -20 -20 -20 -20 -20 -20 -20 -20 -20 -20 -20 -20 -20 -20 -20 -20 -20 -20 -20 -20 -20 -20 -20 -20 -20 -20 -20 -20
31 33 29 26 25 -4 -20 -20 -20 -20 -20 -20 -20 -20 -20 -20 -20 -20 -20 -20 -20 -20 -20 -20 -20 -20 -20 -20 -20 -20 -20 -20 -20 -20 -20 -20 -20 -20 -20 -20 -20 -18 -16
18 18 15 24 26 21 32 -19 -20 -20 -20 -20 -20 -20 -20 -20 -20 -20 -20 -20 -20 -20 -20 -20 -20 -20 -20 -20 -20 -20 -20 -20 -20 -20 -20 -20 -20 -20 -20 -20 -20 -15 15
9 4 29 30 33 28 36 31 -9 -20 -20 -20 -20 -20 -20 -20 -20 -20 -20 -20 -20 -20 -20 -20 -20 -20 -20 -20 -20 -20 -20 -20 -20 -20 -20 -20 -20 8 -20 9 -18 14 14
-2 14 25 21 18 28 15 34 23 -7 -20 -20 -20 -20 -20 -20 -20 -20 -20 -20 -20 -20 -20 -20 -20 -20 -20 -20 -20 -20 -20 -20 -20 -20 -20 -20 -11 5 16 17 14 6 -9
15 34 18 15 24 2 25 17 13 20 -18 12 -20 -20 -18 -20 -20 -20 -20 -20 -20 -20 -20 -20 -20 -20 -20 -20 -20 -20 -20 -20 -20 -20 -20 -20 -20 -20 -20 -12 -20 -16 12
16 32 29 22 8 32 31 34 31 32 -1 -15 -20 -20 -20 -20 -20 -20 -20 -20 -20 -20 -20 -20 -20 -20 -20 -20 -20 -19 -20 -20 -20 -20 -20 -20 -20 -20 -20 -20 -18 -20 -20
-17 27 -11 11 11 9 25 27 31 34 6 -18 -17 -20 -17 17 -20 -20 -20 -20 -20 -20 -20 -20 -20 -18 -4 -11 3 -20 -20 -20 -20 -20 -20 -20 -20 -20 -20 -20 -20 -20 16
-12 -4 8 32 32 18 29 4 12 12 36 -14 -20 -20 -20 1 -3 -20 -20 -20 -20 -20 -20 -8 -5 -11 -14 6 -4 -18 -20 -20 -20 -20 -20 -20 -20 -20 -20 -20 -20 -20 -5
-9 -20 -8 14 7 2 35 12 -3 -20 16 -6 -20 -20 -17 1 -19 -20 -20 -20 -20 -20 -16 -7 -13 -3 -20 -20 -20 -17 -14 -20 -4 -1 -19 -20 -20 -20 -20 -20 -20 -20 -20
-12 -20 -20 -20 -7 23 17 17 -9 -1 23 29 30 22 32 30 29 -20 12 20 4 10 17 18 1 -6 -16 -20 -20 -20 -20 -15 9 -20 -18 -20 -20 -20 -20 -20 -20 -20 -20
-3 -2 -13 -20 -20 -15 -8 -7 19 -20 -20 -2 28 34 35 34 30 28 31 31 29 26 26 26 30 -20 -20 -17 -20 -20 -20 -20 -20 1 -20 -20 -20 -20 -20 -20 -20 -20 -20
-20 -11 -1 -8 -20 -20 -20 -18 -0 -18 -1 12 18 31 36 30 31 32 35 34 28 31 26 25 23 10 -19 -20 -20 -20 -20 -20 -20 -20 -20 -20 -20 -20 -20 -20 -20 -20 -20

GFSSE_prec_radar_078.txt.gz
Reflectivity
-20 -20 -20 -14 6 -20 -20 -20 -20 -20 -20 -20 7 9 -5 -0 -14 -7 -20 -20 -20 -20 -20 -20 -20 -5 19 16 7 -1 -14 -20 -20 -20 -20 -1 18 1 1 -20 -20 -20 -20
-20 -20 -20 3 -12 -7 -19 -20 -20 -2 -20 -20 -16 -11 12 -2 -0 -1 -17 11 -20 -20 -20 -20 8 20 6 2 -5 -20 -20 -20 -20 -20 -20 -18 13 -17 -19 -6 -7 -20 -20
-4 -20 0 -11 -20 5 5 -20 -20 -12 -20 -20 -20 -8 17 23 -11 -4 -20 -20 -20 -20 -20 3 19 1 -11 -20 -20 -20 -20 -20 -20 -20 -20 -20 -20 5 -20 -20 -20 12 15
-16 -20 -20 6 -20 -4 -9 -20 -6 -18 -20 -20 -20 -20 6 3 11 -12 6 -20 -20 -20 -6 12 -1 -20 -20 -20 -20 -20 -20 -20 -20 -20 -20 -20 -20 -20 -20 -20 -19 -20 -6
-18 -20 -20 23 -12 -17 -20 -14 11 -20 -20 -20 -20 -20 25 26 11 3 -5 -20 -20 -20 -20 -20 -20 -20 -20 -20 -20 -20 -20 -20 -20 -20 -20 -20 -20 -20 -20 -20 -20 -20 -20
-20 3 22 -20 -19 -15 -20 -12 11 -20 -20 -20 -20 -20 -19 17 12 -9 -20 -20 -20 -20 -20 -20 -20 -20 -20 -20 -20 -20 -20 -20 -20 -20 -20 -20 -20 -20 -20 -20 -20 -20 -20
-4 -20 15 -20 -12 -20 -20 -14 -9 -19 -20 -20 -20 -20 -20 -2 12 7 -20 -20 -20 -20 -20 -20 -20 -20 -20 -20 -20 -20 -20 -20 -20 -20 -20 -20 -20 -20 -20 -20 -20 -20 -20
-20 -20 -20 -8 -14 -20 -20 -2 -9 -20 -20 -20 -20 -20 -20 -20 -20 -20 -20 -20 -20 -20 -20 -20 -20 -20 -20 -20 -20 -20 -20 -20 -20 -20 -20 -20 -20 -20 -20 -20 -20 -20 -20
21 -20 -20 -13 -20 -20 -20 -20 5 3 -20 -20 -20 -20 -0 5 -20 -20 -20 -20 -20 -20 -20 -20 -20 -20 -20 -20 -20 -20 -20 -20 -20 -20 -20 -20 -20 -20 -20 -20 -20 -20 -20
26 24 21 -10 -20 -20 -20 -20 -6 -15 -20 -20 -20 -20 -20 -20 -7 -20 -20 -20 -20 -20 -20 -20 -20 -20 -20 -20 -20 -20 -20 -20 -20 -20 -20 -20 -20 -20 -20 -20 -20 -20 -20
16 26 27 -20 -20 -20 -20 -20 -20 1 -20 -20 -20 -20 -20 -20 -20 -20 -20 -20 -20 -20 -20 -20 -20 -20 -20 -20 -20 -20 -20 -20 -20 -20 -20 -20 -20 -20 -20 -20 -20 -20 -20
4 26 29 28 -20 -20 -20 -20 -20 -20 -8 -13 -20 -20 -20 -20 -20 -20 -20 -20 -20 -20 -20 -20 -20 -20 -20 -20 -20 -20 -20 -20 -20 -20 -20 -20 -20 -20 -20 -20 -20 -20 -20
12 28 28 11 -15 -13 -20 -20 -20 -20 -15 5 -20 -20 -20 -20 -20 -20 -20 -20 -20 -20 -20 -20 -20 -20 -20 -20 -20 -20 -20 -20 -20 -20 -20 -20 -20 -20 -20 -20 -20 -20 -20
31 19 30 30 -1 -0 -4 -7 -5 -20 -20 -3 -20 -20 -20 -20 -20 -20 -20 -20 -20 -20 -20 -20 -20 -20 -20 -20 -20 -20 -20 -20 -20 -20 -20 -20 -20 -20 -20 -20 -20 -18 -20
32 39 9 25 24 3 10 -4 -20 -20 -20 -20 -20 -20 -20 -20 -20 -20 -20 -20 -20 -20 -20 -20 -20 -20 -20 -20 -20 -20 -20 -20 -20 -20 -20 -20 -20 -20 -20 -20 -20 13 -20
26 36 37 31 30 19 8 10 -2 -11 -20 -20 -20 -20 -20 -20 -20 -20 -20 -20 -20 -20 -20 -20 -20 -20 -20 -20 -20 -20 -20 -20 -20 -20 -20 -20 -20 -20 -20 6 10 -20 17
23 31 36 32 30 30 27 15 10 -6 -20 -20 -20 -20 -20 -20 -20 -20 -20 -20 -20 -20 -20 -20 -20 -20 -20 -20 -20 -20 -20 -20 -20 -20 -20 -20 -20 16 14 10 13 16 6
15 16 26 17 18 29 22 27 10 1 -4 18 -20 -20 -20 -20 -20 -20 -20 -20 -20 -20 -20 -20 -20 -20 -20 -20 -20 -20 -20 -20 -20 -20 -20 -20 -20 -20 -20 -0 17 17 14
16 14 17 10 17 23 12 24 23 10 1 32 -18 -20 -20 -20 -20 -20 -20 -20 -20 -20 -20 -20 -20 -20 -20 -20 -20 -20 -20 -20 -20 -20 -20 -20 -20 -20 -20 -20 -9 -20 -5
17 14 10 21 22 32 32 19 35 14 12 5 21 -18 -20 -20 -20 -20 -20 -20 -20 -20 -20 -20 -20 -20 -20 -20 -20 -7 -20 -20 -20 -20 -20 -20 -20 -20 -20 -20 -20 -20 -10
19 37 12 18 36 33 35 22 23 37 14 -8 32 29 -19 -20 -20 -20 -20 -20 -20 -20 -20 -20 -20 -20 -20 -20 -20 -20 -20 -20 -20 -20 -20 -20 -20 -20 -20 -20 -20 -20 -20
0 22 16 12 20 35 36 36 33 27 25 29 32 31 29 0 11 28 0 -20 -20 -20 -20 -20 -20 -17 -11 1 3 -20 -20 -20 -20 -20 -20 -20 -20 -20 -20 -20 -20 -20 -20
3 -9 3 13 20 15 19 33 32 32 19 26 33 34 31 18 -20 -18 -18 32 27 27 -9 12 26 2 -2 -20 -20 -13 -20 -20 -20 -20 -20 -20 -20 -20 -20 -20 -20 -20 -20
-5 5 -11 -2 4 12 -0 30 44 39 37 34 35 31 34 33 24 31 31 31 29 -2 2 29 27 19 -20 -20 -20 -20 -20 -16 1 -20 -20 -20 -20 -20 -20 -20 -20 -20 -20
-19 -12 -20 3 -17 -0 -15 -15 27 31 31 30 33 13 -11 19 25 31 33 33 33 31 32 27 7 5 -11 -16 -20 -18 -20 -20 -20 -20 -20 -20 -20 -20 -20 -20 -20 -20 -20
-20 -20 -20 -19 -6 -18 5 2 -14 9 23 25 29 28 -5 -11 10 18 28 34 41 38 30 27 16 27 27 27 19 -20 -20 -20 -20 -20 -20 -20 -20 -20 -20 -20 -20 -20 -20

GFSSE_prec_radar_081.txt.gz
Reflectivity
-20 -20 -9 15 -11 -20 -20 -20 -20 -12 9 -20 3 -12 -11 -20 -20 -20 -20 -16 6 -20 -20 -20 5 13 13 14 7 5 -17 -20 -20 -20 -20 10 9 1 -20 -20 -20 -20 -20
-20 -20 24 -18 -14 -20 -20 -20 -20 -20 -16 18 1 5 -19 6 1 -20 -20 -20 -20 -20 -20 -20 10 11 14 11 -18 -20 -20 -20 -20 -20 -20 -20 -20 -18 -20 -20 -20 -20 -20
-20 -20 -20 -15 -20 -20 -20 -20 -19 -20 -20 -17 8 1 -5 -6 4 -17 -20 -20 -20 -20 -20 14 11 -13 -20 -20 -20 -20 -20 -20 -20 -20 -20 -20 -20 -20 -20 -20 -20 -20 -20
-20 -20 -20 -20 -9 -0 -20 -20 6 -20 -20 -12 -7 -5 -11 -20 -12 -13 -20 -20 -20 0 14 15 -12 -20 -20 -20 -20 -20 -20 -20 -20 -20 -20 -20 -20 -20 -20 -20 -20 -20 -20
7 -14 -20 2 -20 -20 -20 -7 5 -20 -20 -20 -12 16 19 -7 -20 -3 -20 -20 -10 11 13 4 -20 -20 -3 -5 -1 -20 -20 -20 -20 -20 -20 -20 -20 -20 -20 -20 -20 -20 -20
-19 -20 -20 -20 -20 -20 -20 10 -20 -20 -20 -20 -20 18 27 8 4 -16 -20 -20 -6 8 7 -20 -20 -20 -19 -15 -20 -20 -20 -20 -20 -20 -20 -20 -20 -20 -20 -20 -20 -20 -20
-16 -20 -20 -8 -20 -20 -19 -7 -20 -20 -20 -20 -20 -20 25 8 -20 7 -20 -20 -20 -1 -20 -20 -20 -20 -20 -20 -20 -20 -20 -20 -20 -20 -20 -20 -20 -20 -20 -20 -20 -20 -20
-20 -19 -20 -3 -20 -20 -20 -5 -20 -20 -20 -17 -20 -20 7 10 11 9 -20 -20 -20 -20 -20 -20 -20 -20 -20 -20 -20 -20 -20 -20 -20 -20 -20 -20 -20 -20 -20 -20 -20 -20 -20
24 -8 -20 -20 4 -20 -20 -20 -20 -20 -20 -20 -13 -20 -20 8 -15 -7 -7 -20 -20 -20 -20 -20 -20 -20 -20 -20 -20 -20 -20 -20 -20 -20 -20 -20 -20 -20 -20 -20 -20 -20 -20
27 24 -20 -10 -19 -20 -20 -19 -11 -20 -20 -20 -2 6 15 -1 3 3 -0 -2 -20 -20 -20 -20 -20 -20 -20 -20 -20 -20 -20 -20 -20 -20 -20 -20 -20 -20 -20 -20 -20 -20 -20
18 24 31 24 -20 -20 -20 5 7 -20 -20 -20 -20 -20 5 -20 -10 -20 -20 -15 -20 -20 -20 -20 -20 -20 -20 -20 -20 -20 -20 -20 -20 -20 -20 -20 -20 -20 -20 -20 -20 -20 -20
30 -13 10 29 1 -20 -20 -20 13 8 -20 -20 -20 -20 -20 -20 -20 -20 -20 -20 -20 -20 -20 -20 -20 -20 -20 -20 -20 -20 -20 -20 -20 -20 -20 -20 -20 -20 -20 -20 -20 -20 -20
36 12 24 7 13 -19 -20 -20 -20 2 -4 -20 -20 -20 -20 -20 -20 -20 -20 -20 -20 -20 -20 -20 -20 -20 -20 -20 -20 -20 -20 -20 -20 -20 -20 -20 -20 -20 -20 -20 -20 -20 -20
20 30 23 15 17 3 -20 -20 -20 4 -10 -20 -20 -20 -20 -20 -20 -20 -20 -20 -20 -20 -20 -20 -20 -20 -20 -20 -20 -20 -20 -20 -20 -20 -20 -20 -20 -20 -20 -20 -20 -20 -20
13 26 32 26 20 -8 -20 -20 -20 -20 -20 -6 -20 -20 -20 -20 -20 -20 -20 -20 -20 -20 -20 -20 -20 -20 -20 -20 -20 -20 -20 -20 -20 -20 -20 -20 -20 -20 -20 -20 -17 -12 -2
23 33 35 29 23 24 12 -18 -20 -20 -20 -20 -20 -20 -20 -20 -20 -20 -20 -20 -20 -20 -20 -20 -20 -20 -20 -20 -20 -20 -20 -20 -20 -20 -20 -20 -20 -20 -20 -20 -1 -5 -6
14 16 34 33 30 8 -6 3 -7 -20 -20 -19 -8 -2 -20 -20 -20 -20 -20 -20 -20 -20 -20 -20 -20 -20 -20 -20 -20 -20 -20 -20 -20 -20 -20 -20 -20 -20 -20 -20 -20 -20 -20
3 11 15 33 22 -4 -20 2 3 -20 -15 -6 -17 -20 -20 -20 -20 -20 -20 -20 -20 -20 -20 -20 -20 -20 -20 -20 -20 -20 -20 -20 -20 -20 -20 -20 -20 -20 -20 -20 -20 -20 -17
10 10 20 25 32 29 -1 -9 6 13 13 -1 -17 -20 -20 -20 -20 -20 -20 -20 -20 -20 -20 -20 -20 -20 -20 -20 -20 -20 -20 -20 -20 -20 -20 -20 -20 -20 -20 -20 -20 -20 -20
-8 14 20 27 22 26 6 26 23 2 -18 -20 -20 -3 -15 -20 -20 -20 -20 -20 -20 -20 -20 -20 -20 -20 -20 -20 -20 -20 -20 -20 -20 -20 -20 -20 -20 -20 -20 -20 -20 -20 -20
3 12 18 15 25 29 21 30 25 1 -20 -13 6 29 26 11 -20 -20 -20 -20 -20 -20 -20 -20 -20 -20 -20 -20 -20 -20 -20 -20 -20 -20 -20 -20 -20 -20 -20 -20 -20 -20 -20
18 32 27 18 29 32 30 37 36 29 18 8 6 -19 -15 14 -2 29 -17 -6 -20 -20 -20 -20 -20 -12 -16 -12 11 -20 -17 -20 -20 -20 -20 -20 -20 -20 -20 -20 -20 -20 -20
34 42 35 25 18 31 10 30 35 33 31 24 13 5 5 31 33 33 33 31 28 30 27 -7 -20 -19 8 -15 -6 -0 -20 -20 -20 -20 -20 -20 -20 -20 -20 -20 -20 -20 -20
29 28 31 24 31 35 33 19 30 33 38 34 28 21 4 23 29 36 33 29 28 25 33 30 34 29 29 26 -20 -20 -20 -3 -3 -20 -11 -20 -20 -20 -20 -20 -20 -20 -20
16 12 21 17 38 23 22 11 37 35 30 42 38 28 40 35 12 34 34 32 30 28 41 32 30 6 17 30 9 -20 -20 -20 -20 -20 -20 -13 -20 -20 -20 -20 -20 -20 -20
14 -10 -17 -18 9 15 13 25 34 24 32 29 36 32 30 28 37 36 32 16 11 21 30 41 33 27 31 30 10 -7 10 21 -20 -20 -20 -20 -20 -20 -20 -20 -20 -20 -20

GFSSE_prec_radar_084.txt.gz
Reflectivity
-20 -20 -12 5 -13 -20 -20 -20 -20 -20 -20 -7 -18 -20 -20 -20 -20 -20 3 -20 -18 -20 -20 -2 0 9 10 5 3 -20 -15 12 3 -20 -11 4 -10 -20 -20 -20 -20 -20 3
-20 -20 16 6 -14 -20 -20 -20 -20 -7 -20 -3 -20 -2 -13 -18 -4 -4 -18 -18 -19 -20 -20 6 -18 -1 11 -8 -20 -2 12 -19 -20 -20 -20 -20 -20 -20 -20 -20 11 15 4
-20 -1 1 0 -20 -20 -20 -20 -20 -20 -20 -17 -20 -20 7 -8 3 -20 -20 -20 -20 -20 -8 11 11 10 7 -8 -19 -20 -20 -20 -20 -20 -20 -20 -20 -20 -20 -20 -20 -20 -20
-12 -17 11 -15 -20 -20 -20 -20 -20 -20 17 -20 -20 -20 -19 -15 -13 1 -20 -20 -20 12 12 3 8 4 -17 -20 -20 -20 -20 -20 -20 -20 -20 -20 -20 -20 -20 -20 -20 -20 -20
6 -18 7 -20 -20 -20 -20 2 -20 -20 -20 -20 -20 -17 -20 3 -17 -13 -20 -20 3 10 10 -9 -20 -20 -20 -20 -20 -20 -20 -20 -20 -20 -20 -20 -20 -20 -20 -20 -20 -20 -20
-20 -20 -19 -19 -20 -20 -20 6 -20 -20 -20 -20 13 26 24 8 -16 -20 -20 -0 8 10 -5 -20 -17 -3 -5 -20 -20 -20 -20 -20 -20 -20 -20 -20 -20 -20 -20 -20 -20 -20 -20
-20 -20 -9 17 0 -20 -12 -3 -20 -20 -20 -20 14 28 23 -19 8 -16 -20 2 11 -0 -20 -20 3 -20 -20 -20 -20 -20 -20 -20 -20 -20 -20 -20 -20 -20 -20 -20 -20 -20 -20
-8 -7 21 8 4 -20 14 -20 -20 -20 -20 -20 -20 25 29 -12 8 -2 2 3 9 -12 -20 -20 -20 -20 -20 -20 -20 -20 -20 -20 -20 -20 -20 -20 -20 -20 -20 -20 -20 -20 -20
26 23 12 17 2 -20 -15 -20 -20 -20 -20 -20 -20 -10 8 -13 11 8 15 10 13 6 -20 -20 -20 -20 -20 -20 -20 -20 -20 -20 -20 -20 -20 -20 -20 -20 -20 -20 -20 -20 -20
20 28 18 20 21 2 1 -20 -20 -20 -20 -20 -20 7 5 4 12 13 12 6 5 -4 -20 -20 -20 -20 -20 -20 -20 -20 -20 -20 -20 -20 -20 -20 -20 -20 -20 -20 -20 -20 -20
43 32 30 24 8 -20 4 -16 -17 -20 -20 -20 -20 -20 -3 -20 -20 -14 -16 -5 -17 -20 -20 -20 -20 -20 -20 -20 -20 -20 -20 -20 -20 -20 -20 -20 -20 -20 -20 -20 -20 -20 -20
37 41 36 31 28 -19 -18 10 6 -18 -20 -20 -20 -20 -11 -20 -20 -20 -17 -1 -19 -20 -20 -20 -20 -20 -20 -20 -20 -20 -20 -20 -20 -20 -20 -20 -20 -20 -20 -20 -20 -20 -20
30 35 38 33 31 -1 -20 21 15 11 -7 -20 -20 -20 -20 -20 -17 -20 -20 -20 -20 -20 -20 -20 -20 -20 -20 -20 -20 -20 -20 -20 -20 -20 -20 -20 -20 -20 -20 -20 -20 -20 -20
31 36 39 33 30 20 -3 -20 20 6 8 -7 -20 -20 -20 -20 -20 -20 -20 -20 -20 -20 -20 -20 -20 -20 -20 -20 -20 -20 -20 -20 -20 -20 -20 -20 -20 -20 -20 -20 -20 -9 -20
20 31 31 34 33 33 6 -20 -20 22 3 5 -20 -20 -20 -20 -20 -20 -20 -20 -20 -20 -20 -20 -20 -20 -20 -20 -20 -20 -20 -20 -20 -20 -20 -20 -20 -20 -20 -20 -20 -20 16
15 28 15 35 38 34 24 10 -16 -4 21 7 -20 -20 -20 -20 -20 -20 -20 -20 -19 -20 -20 -20 -20 -20 -20 -20 -20 -20 -20 -20 -20 -20 -20 -20 -20 -20 -20 -20 -20 -20 -20
21 25 11 17 35 27 17 17 -2 -20 -17 11 7 -20 -20 -20 -20 -20 -6 -15 -20 -20 -20 -20 -20 -20 -20 -20 -20 -20 -20 -20 -20 -20 -20 -20 -20 -20 -20 -20 -20 -20 -20
32 12 13 24 35 31 12 -4 -20 -20 -20 -20 0 3 -20 -20 -20 -12 10 -20 -20 -20 -20 -20 -20 -20 -20 -20 -20 -20 -20 -20 -20 -20 -20 -20 -20 -20 -20 -20 -20 -20 -20
17 -18 7 16 29 33 19 1 -20 -20 -18 -20 -20 -20 -5 -16 -20 5 -7 -20 -20 -20 -20 -20 -20 -20 -20 -20 -20 -20 -20 -20 -20 -20 -20 -20 -20 -20 -20 -20 -20 -20 -20
-1 -10 16 3 20 22 20 14 -15 -20 -19 -20 -11 2 12 -13 0 14 -20 -20 -20 -20 -20 -20 -20 -20 -20 -20 -20 -20 -20 -20 -20 -20 -20 -20 -20 -20 -20 -20 -20 -20 -20
9 -1 9 4 9 24 21 13 -4 7 -20 -20 -11 7 -20 4 11 -6 -20 -20 -20 -20 -20 -20 -20 -20 -20 -20 5 -20 -20 -20 -20 -20 -20 -20 -20 -20 -20 -20 -20 -20 -20
25 16 15 15 29 20 30 15 22 25 -20 6 13 8 1 -20 -20 -2 -20 -13 -20 -20 -11 -20 -20 -20 -20 6 -15 10 -20 -20 -20 -20 -20 -20 -20 -20 -20 -20 -20 -20 -20
33 27 30 27 22 30 26 24 15 -14 -14 6 16 7 -9 -5 -17 -18 -1 4 26 -19 10 -0 -4 -2 13 -12 -20 -6 -16 -20 -20 -20 -20 -20 -20 -20 -20 -20 -20 -20 -20
35 38 36 35 32 34 31 33 30 25 18 6 -7 16 21 -0 10 28 36 27 23 35 27 28 29 24 28 27 23 24 -20 -20 -20 -20 -20 -20 -20 -20 -20 -20 -20 -20 -20
38 37 35 39 36 38 34 36 40 30 34 35 34 28 2 -2 4 15 26 34 36 38 38 33 34 9 34 30 29 30 33 -9 -4 0 -5 3 -2 -20 -20 -20 -20 -20 -20
28 26 26 30 34 23 31 34 40 43 40 39 37 33 34 30 24 30 33 30 36 37 34 32 28 29 34 25 29 31 34 31 -16 -20 -20 -20 -19 -20 -20 -20 -20 -20 -20

GFSSE_prec_radar_087.txt.gz
Reflectivity
-20 -20 -20 -20 -14 -20 -20 -20 -20 -20 -20 -20 -20 -20 -20 -20 -20 7 -3 -12 -6 -20 -20 -7 16 19 5 -10 -2 -20 -16 -20 -20 -20 -20 -19 -20 -20 -20 -20 12 2 -2
-20 -20 -20 -20 -13 -20 -20 -20 -20 -20 -20 -18 -13 -20 -20 -20 -16 8 -20 -20 -20 -20 -4 16 -18 8 6 5 -0 -5 -9 -20 -20 -20 -20 -20 -20 -20 -20 -20 -16 -11 -3
-20 -20 -4 -13 -2 -20 -20 -20 -19 -20 -20 -20 -20 -20 -20 -9 -15 -4 -20 -1 -11 -16 12 -20 -10 8 1 -18 10 -20 -20 -20 -20 -20 -20 -20 -20 -20 -20 -20 -20 -20 -20
-20 -20 12 -6 1 -20 -20 -20 -20 -20 -20 -11 -20 -20 -18 6 4 1 1 -20 -20 10 12 9 1 8 -20 -20 -20 -20 -20 -20 -20 -20 -20 -20 -20 -20 -20 -20 -20 -20 -20
-20 -1 12 -20 -3 -20 -20 -20 -20 -20 -20 5 -15 -20 -8 4 -6 15 -20 -1 3 5 0 6 4 1 -7 -20 -20 -20 -20 -20 -20 -20 -20 -20 -20 -20 -20 -20 -20 -20 -20
-18 12 0 -20 2 -20 -20 -20 -20 -20 -7 -20 -19 -20 21 -20 14 9 -4 1 9 6 -12 -20 -2 -5 -20 -20 -20 -20 -20 -20 -20 -20 -20 -20 -20 -20 -20 -20 -20 -20 -20
16 8 9 7 -20 -20 -18 -20 -20 -20 19 -20 -14 -20 -11 -14 10 -20 6 11 9 6 -0 -2 10 -4 -20 -20 -20 -20 -20 -20 -20 -20 -20 -20 -20 -20 -20 -20 -20 -20 -20
26 10 27 -20 21 -20 -18 -20 -20 -20 -2 -20 17 25 28 -5 12 -11 -4 7 7 -9 -7 10 -20 -20 -20 -20 -20 -20 -20 -20 -20 -20 -20 -20 -20 -20 -20 -20 -20 -20 -20
33 27 23 -12 -6 11 -20 -9 -20 -20 -20 19 24 25 18 -20 12 14 5 10 4 5 -11 -20 -20 -20 -20 -20 -20 -20 -20 -20 -20 -20 -20 -20 -20 -20 -20 -20 -20 -20 -20
20 42 24 25 23 -20 -13 8 -20 -20 -20 -12 -5 25 2 11 13 17 12 15 13 1 -20 -20 -20 -20 -20 -20 -20 -20 -20 -20 -20 -20 -20 -20 -20 -20 -20 -20 -20 -20 -20
17 30 24 25 27 -20 5 -4 -20 -20 -20 -20 -20 20 8 -20 -16 -3 -20 13 11 1 -20 -20 -20 -20 -20 -20 -20 -20 -20 -20 -20 -20 -20 -20 -20 -20 -20 -20 -20 -20 -20
-13 13 35 31 29 28 2 -20 -6 -20 -20 -20 -15 -20 -3 -20 -20 -20 -20 -3 6 -20 -20 -20 -20 -20 -20 -20 -20 -20 -20 -20 -20 -20 -20 -20 -20 -20 -20 -20 -20 -20 -20
-20 -1 14 41 30 37 27 -20 24 -20 -20 -20 -20 -20 -20 -20 -20 -20 -20 -19 -20 -20 -20 -20 -20 -20 -20 -20 -20 -20 -20 -20 -20 -20 -20 -20 -20 -20 -20 -20 -20 -20 -20
-20 -20 19 34 28 41 31 24 23 5 -20 -20 -20 -20 -20 -20 -20 -20 -20 -20 -20 -20 -20 -20 -20 -20 -20 -20 -20 -20 -20 -20 -20 -20 -20 -20 -20 -20 -20 -20 -20 -20 -18
-20 -11 7 27 34 44 38 9 28 -1 -6 -20 -20 -20 -20 -20 -20 -20 -20 -20 -20 -20 -20 -20 -20 -20 -20 -20 -20 -20 -20 -20 -20 -20 -20 -20 -20 -20 -20 -20 -20 -20 -16
-20 -16 -17 21 25 38 38 19 -7 30 4 -10 -20 -20 -20 -20 -20 -20 -20 -20 -20 -20 -20 -20 -20 -20 -20 -20 -20 -20 -20 -20 -20 -20 -20 -20 -20 -20 -20 -20 -20 -20 -20
-16 -18 -18 18 2 36 45 25 15 24 27 -11 -20 -20 -20 -20 -20 -20 -20 -20 -20 -20 -20 -20 -9 -20 -20 -20 -20 -20 -20 -20 -20 -20 -20 -20 -20 -20 -20 -20 -20 -20 -20
40 19 9 9 12 15 30 33 23 -20 -20 8 1 -16 -20 -20 -20 -20 -20 -20 -20 -20 -20 -15 -20 -20 -20 -20 -20 -20 -20 -20 -20 -20 -20 -20 -20 -20 -20 -20 -20 -20 -20
34 14 7 9 -8 12 20 23 16 -20 -19 -19 9 0 5 -20 -20 -20 -20 -20 -20 -20 -6 -7 -20 -20 -20 -20 -20 -20 -20 -20 -20 -20 -20 -20 -20 -20 -20 -20 -20 -20 -20
24 33 21 2 -20 2 15 22 16 -6 -10 4 10 -19 4 -10 -16 -20 -11 -6 -20 -20 4 -16 -20 -20 -20 -20 -20 -20 -20 -20 -20 -20 -20 -20 -20 -20 -20 -20 -20 -20 -20
30 32 17 9 -20 8 12 15 26 16 15 6 -20 -2 1 31 24 8 3 -20 -20 -19 14 -20 -20 -20 -20 -20 -20 -16 -20 -20 -20 -20 -20 -20 -20 -20 -20 -20 -20 -20 -20
12 22 24 11 5 11 29 26 33 18 12 21 6 -16 11 5 -1 3 -4 -20 -18 -2 18 -11 -20 -20 -20 -20 -5 -0 12 -18 -20 -20 -20 -20 -20 -20 -20 -20 -20 -20 -20
24 17 20 23 17 17 27 32 38 33 35 7 6 21 17 -6 12 9 9 2 23 11 4 -7 5 -20 -3 24 14 -12 -0 -18 -20 -20 -20 -20 -20 -20 -20 -20 -20 -20 -20
34 30 31 23 28 33 27 33 35 36 34 24 29 9 -17 -20 -0 -5 31 3 4 -2 9 10 27 34 26 24 27 17 -16 20 12 -20 -20 -20 -20 -20 -20 -20 -20 -20 -20
37 30 29 37 24 34 32 34 33 31 29 21 32 27 -19 3 13 -10 18 13 13 6 5 11 39 36 48 29 29 22 23 23 11 9 -19 -20 -9 -11 -20 -20 -20 -20 -20
26 36 36 31 25 34 35 36 26 29 31 33 33 32 25 21 19 22 20 24 20 23 32 26 29 25 26 37 36 29 24 31 33 34 22 4 -20 -20 -20 -20 -20 -20 -20

GFSSE_prec_radar_090.txt.gz
Reflectivity
-20 -20 -20 -20 -20 -20 -20 -20 -20 -20 -20 -10 2 -20 -20 -20 -20 1 -20 -20 -20 -20 -20 8 20 -1 19 6 12 -0 10 2 -17 -20 -20 -8 -20 -1 11 9 -20 1 -20
-20 -20 -20 -20 -20 -20 -20 -20 -20 -20 -1 -20 -20 -20 -20 -4 1 1 -20 -20 -20 -20 14 -7 -1 4 11 8 12 -19 -20 -20 -20 -20 -20 -20 -20 -20 -20 -20 -20 7 12
-20 -20 -20 -20 -20 -20 -20 -20 -20 -20 -1 -20 -20 -20 -20 4 -15 -20 -20 -20 -19 9 -6 -20 -19 4 17 20 18 -20 -20 -20 -20 -20 -20 -20 -20 -20 -20 -20 -20 -20 -5
-20 -20 -20 -17 -20 -20 -20 -20 -20 -20 -20 -14 -20 -20 -16 -7 2 -20 -13 -20 -11 -5 -20 -20 -12 12 16 11 -20 -20 -20 -20 -20 -20 -20 -20 -20 -20 -20 -20 -20 -20 -20
-20 -20 -20 -20 -14 -17 -20 -20 -20 -20 -20 0 -17 -8 -20 -12 16 13 -20 -20 5 2 -20 -19 6 -2 -20 -20 -20 -20 -20 -20 -20 -20 -20 -20 -20 -20 -20 -20 -20 -20 -20
-20 -20 -20 -20 -19 -20 -20 -20 -20 -20 -20 -20 -20 -20 -20 27 16 4 -20 -20 6 -8 10 5 2 -20 -20 -20 -20 -20 -20 -20 -20 -20 -20 -20 -20 -20 -20 -20 -20 -20 -20
-20 -20 -20 -20 -5 -20 -20 -20 -20 -20 -20 -20 -20 22 28 16 12 4 -20 -15 3 14 0 -19 -14 -20 -20 -20 -20 -20 -20 -20 -20 -20 -20 -20 -20 -20 -20 -20 -20 -20 -20
-20 -20 -20 -20 -20 2 -6 -20 -20 -20 -12 -20 -20 25 -15 18 11 -3 -20 8 8 1 -17 10 -8 -20 -20 -20 -20 -20 -20 -20 -20 -20 -20 -20 -20 -20 -20 -20 -20 -20 -20
3 -20 -20 -20 -20 -20 -20 -20 -20 -20 23 -20 -20 -20 28 -12 8 -17 -3 17 14 7 11 -14 -20 -20 -20 -20 -20 -20 -20 -20 -20 -20 -20 -20 -20 -20 -20 -20 -20 -20 -20
3 -20 -20 38 24 -20 -20 -20 -20 -20 -20 -20 7 24 -19 -20 0 3 16 14 11 9 -20 -20 -20 -20 -20 -20 -20 -20 -20 -20 -20 -20 -20 -20 -20 -20 -20 -20 -20 -20 -20
-20 -20 -20 19 24 -19 14 -20 -7 -20 -20 -20 11 -10 14 -20 -17 -5 16 14 15 7 -20 -20 -20 -20 -20 -20 -20 -20 -20 -20 -20 -20 -20 -20 -20 -20 -20 -20 -20 -20 -20
-20 -20 -20 21 38 27 -20 29 -20 -20 -20 -20 -10 14 -0 -20 -20 -14 12 17 15 -1 -20 -20 -20 -20 -20 -20 -20 -20 -20 -20 -20 -20 -20 -20 -20 -20 -20 -20 -20 -20 -20
-16 -20 -20 -0 11 34 25 6 31 -20 -20 -20 -20 17 28 23 -13 -20 -20 -6 -16 -20 -20 -20 -20 -20 -20 -20 -20 -20 -20 -20 -20 -20 -20 -20 -20 -20 -20 -20 -20 -20 -20
-20 -20 -20 -13 16 31 43 37 17 20 -20 -20 -20 -20 12 -19 -20 -20 -20 -20 -20 -20 -20 -20 -20 -20 -20 -20 -20 -20 -20 -20 -20 -20 -20 -20 -20 -20 -20 -20 -20 -20 -17
-20 -20 12 -20 -20 3 33 42 34 20 -20 -20 -20 -20 -20 -20 -20 -20 -20 -20 -20 -20 -20 -20 -20 -20 -20 -20 -20 -20 -20 -20 -20 -20 -20 -20 -20 -20 -20 -20 -20 -20 -20
-20 -20 -20 -20 -20 -4 19 33 42 42 11 -20 -20 -20 -20 -20 -20 -20 -20 -20 -20 -20 -20 -20 -20 -20 -20 -20 -20 -20 -20 -20 -20 -20 -20 -20 -20 -20 -20 -20 -20 -20 -20
9 -5 -20 -15 -5 2 8 25 39 39 37 8 -19 -20 -20 -20 -20 -20 -20 -20 -20 -20 -20 -20 -20 -20 -20 -20 -20 -20 -20 -20 -20 -20 -20 -20 -20 -20 -20 -20 -20 -20 -20
-20 -14 11 -18 -1 1 0 6 28 35 37 37 12 -20 -20 -20 -20 -20 -20 -20 -20 -20 -20 -20 -20 -20 -20 -20 -20 -20 -20 -20 -20 -20 -20 -20 -20 -20 -20 -20 -20 -20 -20
-20 -20 6 26 -10 9 14 16 13 14 15 31 31 3 -20 -20 -20 -20 -18 -20 -20 -20 -20 -20 -20 -20 -20 -20 -6 -20 -20 -20 -20 -20 -20 -20 -20 -20 -20 -20 -20 -20 -20
-20 -20 -20 17 1 16 14 5 10 -0 -19 31 21 31 16 -20 -20 -20 -20 -20 -20 -20 -20 -20 -10 -14 -20 9 -9 -20 -20 -20 -20 -20 -20 -20 -20 -20 -20 -20 -20 -20 -20
8 -20 -20 9 5 7 2 22 11 -13 -7 -15 17 23 12 7 7 7 -20 -20 -20 -20 -20 4 16 9 -8 12 -19 -20 -20 -20 -20 -20 -20 -20 -20 -20 -20 -20 -20 -20 -20
-14 -16 9 27 25 29 24 20 15 16 6 13 -5 14 23 30 8 0 6 -12 -20 6 18 -0 -20 -2 -20 2 1 -16 -20 -20 -20 -20 -20 -20 -20 -20 -20 -20 -20 -20 -20
-20 1 14 25 30 22 24 32 29 26 34 34 21 2 8 27 13 2 4 9 15 -6 -13 -20 -8 -20 -20 2 0 17 0 -20 -20 -20 -20 -20 -20 -20 -20 -20 -20 -20 -20
-20 -3 7 13 22 16 3 14 26 17 31 34 31 33 -8 -1 29 26 4 18 -8 -2 -12 -14 27 28 23 6 3 27 26 13 -20 -20 -20 -20 -20 -20 -20 -20 -20 -20 -20
-20 8 -16 10 29 39 4 27 35 34 38 32 26 34 4 5 14 16 -8 -16 24 28 15 28 25 -18 30 29 34 37 36 33 16 20 -7 -15 -18 -19 -19 -7 -20 -20 -20
-6 -12 -20 -11 20 30 34 37 33 32 31 32 32 31 30 14 17 29 23 17 21 9 18 23 4 3 23 19 18 26 38 34 32 34 30 29 36 11 -15 -20 -20 -20 -20

GFSSE_prec_radar_093.txt.gz
Reflectivity
-20 -20 -20 -20 -20 -20 -20 -20 -20 -15 -20 -20 -20 -20 -5 -20 -3 -20 -20 -20 -20 -13 9 4 -2 -3 9 8 -2 17 -20 -20 -20 -20 -7 -13 11 11 2 -20 -18 8 -16
-20 -20 -20 -20 -20 -20 -20 -20 -20 -20 -20 -20 -20 -20 -6 -10 -0 -20 -20 -20 -20 -18 -14 12 9 10 11 10 -0 -20 -20 -20 -20 -20 -20 -20 -20 -20 -20 -20 4 4 13
-20 -20 -20 -20 -20 -20 -20 -20 -20 -20 -20 -20 -20 -20 -14 2 13 -20 -20 -20 10 16 8 6 -17 -2 14 -12 -20 -20 -20 -20 -20 -20 -20 -20 -20 -20 -20 -20 -20 12 17
-20 -20 -20 -20 -20 -20 -20 -20 -20 -20 -7 -20 -20 -20 -1 -8 20 -20 -20 -20 5 11 -20 -20 -20 16 10 -20 -20 -20 -20 -20 -20 -20 -20 -20 -20 -20 -20 -20 -20 -20 -13
-20 -20 -20 -20 -20 -20 -20 -20 -20 -20 -13 -7 -20 9 -10 -9 -2 10 -20 -0 -20 -20 -20 -20 -19 16 -18 -20 -20 -20 -20 -20 -20 -20 -20 -20 -20 -20 -20 -20 -20 -20 -20
-20 -20 -20 -20 -20 -20 -20 -20 -20 -20 -20 -20 -8 -20 -20 -20 -6 5 -20 8 1 -20 -20 -20 -20 -20 -20 -20 -20 -20 -20 -20 -20 -20 -20 -20 -20 -20 -20 -20 -20 -20 -20
-20 -20 -20 -20 -20 -20 -20 -7 -20 -20 -20 -10 -20 13 -18 -20 21 5 -20 -20 -12 -20 -17 -5 -18 -20 -20 -20 -20 -20 -20 -20 -20 -20 -20 -20 -20 -20 -20 -20 -20 -20 -20
-20 -20 -20 -20 -20 -20 -20 -20 -20 -20 -20 -20 -20 -20 -0 5 21 3 -20 -20 -9 3 -5 -14 -20 -20 -20 -20 -20 -20 -20 -20 -20 -20 -20 -20 -20 -20 -20 -20 -20 -20 -20
-20 -9 -20 -20 -20 -20 -20 -20 -20 -20 -20 -20 -20 -20 25 27 14 5 -20 8 14 6 -12 6 -20 -20 -20 -20 -20 -20 -20 -20 -20 -20 -20 -20 -20 -20 -20 -20 -20 -20 -20
30 -20 27 -20 -20 -20 -20 -20 -20 -20 23 -20 -20 -20 23 25 -4 -13 -7 12 15 13 2 -20 -20 -20 -20 -20 -20 -20 -20 -20 -20 -20 -20 -20 -20 -20 -20 -20 -20 -20 -20
26 26 -2 8 -20 -20 -20 -20 -20 -20 -20 6 -20 -20 21 -20 -20 -13 -8 7 15 12 6 -11 -20 -20 -20 -20 -20 -20 -20 -20 -20 -20 -20 -20 -20 -20 -20 -20 -20 -20 -20
16 27 23 3 -20 -20 -20 -20 13 3 -20 -20 19 4 -20 -12 -20 -13 7 -3 17 -4 -20 -20 -20 -20 -20 -20 -20 -20 -20 -20 -20 -20 -20 -20 -20 -20 -20 -20 -20 -20 -20
2 -20 -20 -20 1 -20 -20 21 14 27 22 -20 -20 27 -20 -20 11 -14 5 -1 -7 5 -20 -20 -20 -20 -20 -20 -20 -20 -20 -20 -20 -20 -20 -20 -20 -20 -20 -20 -20 -20 -20
29 -20 -20 -20 -20 -20 -20 12 30 32 16 1 4 -20 28 17 -11 -20 6 4 -20 -20 -20 -20 -20 -20 -20 -20 -20 -20 -20 -20 -20 -20 -20 -20 -20 -20 -20 -20 -20 -20 -20
-20 -20 -20 -4 -20 -20 -20 7 18 24 30 -9 16 9 23 26 3 -8 -9 -20 -20 -20 -20 -20 -20 -20 -20 -20 -20 -20 -20 -20 -20 -20 -20 -20 -20 -20 -20 -20 -20 -20 -20
-20 -7 15 -15 3 -20 -20 17 3 32 21 28 18 -20 11 8 11 13 -5 -20 -20 -20 -20 -20 -20 -20 -20 -20 -20 -20 -20 -20 -20 -20 -20 -20 -20 -20 -20 -20 -20 -20 -20
-20 12 15 11 -20 -20 -20 -19 -11 25 40 40 21 -5 -20 -19 19 -20 -20 -20 -20 -20 -20 -20 -20 -20 -20 -20 -20 -20 -20 -20 -20 -20 -20 -20 -20 -20 -20 -20 -20 -20 -20
-20 -13 26 -2 -19 -20 -20 6 4 29 37 35 33 4 -1 5 -19 -20 -20 -20 -20 -20 -20 -20 -20 -20 -20 -20 -20 -20 -20 -20 -20 -20 -20 -20 -20 -20 -20 -20 -20 -20 -20
-20 -20 -8 0 -14 -20 -18 -11 2 22 29 28 22 33 14 4 -8 -20 -20 -20 -20 -20 -20 -20 -20 -20 -20 -20 -20 -20 -20 -20 -20 -20 -20 -20 -20 -20 -20 -20 -20 -20 -20
-3 -9 -20 -20 -20 -20 -20 -20 -19 19 22 16 -10 2 30 9 -20 -20 -20 -20 -20 -20 -20 -20 -20 -20 -20 -20 -20 -20 -13 -18 -2 -20 -20 -20 -20 -20 -20 -20 -20 -20 -20
30 -20 -20 -20 -20 -20 -20 14 2 21 27 10 -12 29 -1 18 -20 -20 -20 -20 -20 -20 -20 -20 -20 -20 -20 -20 -20 -13 12 12 -4 -20 -20 -20 -20 -20 -20 -20 -20 -20 -20
-20 -20 -20 -20 -20 -20 -20 7 15 22 25 23 25 29 21 26 -11 -16 -20 -20 -20 -20 -16 -9 -20 -20 -19 -16 -11 6 -4 -6 -20 -18 -20 -4 -20 -20 -20 -20 -20 -20 -20
-5 7 4 -20 -20 -20 -15 22 28 27 22 17 24 30 28 30 30 4 -13 -12 -20 -20 10 -9 -20 -19 8 7 17 -12 -15 -8 -18 -19 -18 -20 -20 -20 -20 -20 -20 -20 -20
-9 -10 -20 31 24 -20 -1 30 25 12 20 13 23 25 34 25 36 30 31 36 1 6 5 9 9 13 5 29 2 -20 -20 -20 -18 -18 -20 17 -16 -20 -20 -20 -20 -20 -20
-12 17 -10 -16 -20 3 32 20 6 16 27 25 26 36 32 28 30 26 27 35 35 33 24 33 32 13 28 29 30 29 22 -1 28 32 18 -19 -19 6 -17 -20 -20 -17 -20
-8 -11 -20 -20 -11 19 11 19 29 19 35 26 32 33 37 32 32 25 36 36 30 20 25 33 14 13 13 15 25 30 16 21 23 31 32 29 22 30 15 7 19 -20 -20

GFSSE_prec_radar_096.txt.gz
Reflectivity
-20 -20 -12 -20 -20 -20 -20 -20 -20 -20 -20 -20 -20 -20 2 5 -16 -20 -20 -20 -20 -14 -20 -6 8 5 -10 19 -8 -20 -20 -13 -11 -20 -20 10 16 6 7 -2 10 10 4
-20 -20 -20 -20 -20 -20 -20 -20 -20 -20 -20 -20 -20 -20 4 5 -17 -20 -20 -20 -20 -17 2 -4 9 16 -19 7 -20 -20 -20 -20 -20 -20 -20 -20 -20 -2 -19 2 7 11 2
-20 -20 -20 -20 -20 -20 -20 -20 -20 -20 -20 2 -20 -17 8 -4 -15 -20 -20 -20 1 -14 -4 19 6 6 -9 -20 -20 -20 -20 -20 -20 -20 -20 -20 -20 -20 -20 -20 10 15 3
-20 -20 -20 -20 -20 -20 -20 -20 -20 -20 -20 -20 -18 -2 2 -2 -13 -20 -20 -15 -1 -3 14 -10 5 13 -20 -20 -20 -20 -20 -20 -20 -20 -20 -20 -20 -20 -20 -20 -20 -20 -17
-20 -20 -20 -20 -20 -20 -20 -20 -20 -20 -9 -20 -20 -16 -11 -12 -13 -20 -16 8 12 -20 -20 -20 -20 -20 -20 -20 -20 -20 -20 -20 -20 -20 -20 -20 -20 -20 -20 -20 -20 -20 -20
-20 -20 -20 -20 -20 -20 -20 -20 -20 -20 -19 -20 -20 -19 -20 1 -10 0 3 11 -20 -20 -20 -20 -20 -20 -20 -20 -20 -20 -20 -20 -20 -20 -20 -20 -20 -20 -20 -20 -20 -20 -20
-20 -20 -20 -20 -20 -20 -20 -20 -20 -20 -20 -16 -20 -20 19 -19 -7 18 -9 5 -20 -20 -20 -20 -20 -20 -20 -20 -20 -20 -20 -20 -20 -20 -20 -20 -20 -20 -20 -20 -20 -20 -20
-20 -20 -20 -20 -20 -20 -20 -20 -16 -20 -20 -20 -20 -20 -15 -4 2 25 22 -12 -20 -20 -20 -9 -20 -20 -20 -20 -20 -20 -20 -20 -20 -20 -20 -20 -20 -20 -20 -20 -20 -20 -20
26 -9 -20 -20 -20 -20 -20 -20 -20 -20 8 -20 -9 -20 -20 -20 21 22 13 4 3 1 3 -7 -20 -20 -20 -20 -20 -20 -20 -20 -20 -20 -20 -20 -20 -20 -20 -20 -20 -20 -20
6 29 29 -14 -20 -20 -20 -20 -20 -20 -20 -20 -20 -20 -20 -2 12 9 -20 -20 17 13 -5 -12 -20 -20 -20 -20 -20 -20 -20 -20 -20 -20 -20 -20 -20 -20 -20 -20 -20 -20 -20
25 27 -20 27 -7 -20 -20 -20 -20 -20 -20 -20 -20 -20 19 19 -8 -15 -20 -14 6 -12 3 -20 -20 -20 -20 -20 -20 -20 -20 -20 -20 -20 -20 -20 -20 -20 -20 -20 -20 -20 -20
-20 -20 -20 10 -10 -20 8 1 -20 -20 -20 -20 -20 -20 -20 20 -16 -20 -1 -20 12 15 3 -14 -20 -20 -20 -20 -20 -20 -20 -20 -20 -20 -20 -20 -20 -20 -20 -20 -20 -20 -20
-20 -20 28 35 8 -20 -20 -15 -20 -20 -20 -20 -20 -20 -20 17 -5 -20 -20 -19 2 10 -7 -18 -20 -20 -20 -20 -20 -20 -20 -20 -20 -20 -20 -20 -20 -20 -20 -20 -20 -20 -20
2 -18 -20 -7 31 -6 -11 -20 -20 -20 -20 -20 -20 -20 -11 19 5 -20 -19 3 11 -3 -20 -20 -20 -20 -20 -20 -20 -20 -20 -20 -20 -20 -20 -20 -20 -20 -20 -20 -20 -20 -20
-20 -20 -20 -20 -19 28 14 -20 -20 -20 -20 -8 17 6 -19 13 13 9 -15 8 1 -11 -20 -20 -20 -20 -20 -20 -20 -20 -20 -20 -20 -20 -20 -20 -20 -20 -20 -20 -20 -20 -20
-20 -20 -20 -7 -20 -18 -4 -20 -20 -20 -20 -20 -17 28 -6 -7 28 34 34 12 -7 -20 -20 -20 -20 -20 -20 -20 -20 -20 -20 -20 -20 -20 -20 -20 -20 -20 -20 -20 -20 -20 -20
-20 -20 -20 -20 -20 -20 -17 25 -16 -20 -20 -20 7 16 -3 -1 -2 21 20 21 -20 -20 -19 -20 -20 -20 -20 -20 -20 -20 -20 -20 -20 -20 -20 -20 -20 -20 -20 -20 -20 -20 -20
-20 -20 -20 -20 -20 -20 -20 -20 -20 -20 -20 -20 6 6 28 12 -9 21 27 31 27 19 -19 -20 -20 -20 -20 -20 -20 -20 -20 -20 -20 -20 -20 -20 -20 -20 -20 -20 -20 -20 -20
-20 -20 -20 -20 -20 -9 29 -12 -20 -20 -20 -20 -19 5 7 26 -11 -0 15 22 -8 -8 7 -20 -20 -20 -20 -20 -20 -20 -20 -20 -20 -20 -20 -20 -19 -20 -20 -20 -20 -20 -20
-20 -20 -20 -20 -20 -14 -11 7 -20 -20 -20 -20 -20 8 16 22 28 16 -1 9 -1 -20 -20 -20 -20 -20 -20 -20 -20 -20 -20 -20 -20 -20 -20 -18 2 -1 -20 -20 -20 -20 -20
-20 -20 -20 -20 -20 -20 -20 -3 -20 -20 -20 13 -12 29 6 12 8 29 11 5 14 -12 -20 -17 -8 -20 -20 -20 -20 -20 -20 -20 -18 -4 -10 -9 14 -4 -20 -20 -20 -20 -20
-20 -20 -20 -20 -20 -20 -20 -20 -20 -20 -20 -20 25 20 24 18 11 -11 -20 -3 -1 -20 1 -12 -12 0 -13 -20 -20 -20 -20 -20 3 -3 -20 -19 1 6 -20 -20 -20 -20 -20
-20 -20 -20 27 17 10 6 -12 -9 9 -20 21 29 28 21 23 20 -5 1 -6 2 -18 -19 -19 -20 -20 -20 -20 -20 -20 -7 7 14 2 -12 -20 -20 -20 -20 -20 -20 -20 -20
-20 -20 -20 -20 -20 -20 -10 -20 -20 12 -1 20 -4 35 31 27 29 23 8 -11 -17 -12 -1 -13 -7 -14 -20 -20 10 12 -15 -8 2 -20 -20 -20 -20 -20 -20 -20 -20 -20 -20
-20 -20 -20 -20 -20 -20 7 -19 8 6 -20 10 11 32 32 32 30 18 20 29 29 28 23 16 31 30 15 13 26 14 26 30 25 -2 -20 -20 -20 -15 2 18 23 -20 -5
-20 -20 -20 -20 -20 -20 4 18 20 -20 3 10 -6 27 32 32 35 23 24 35 36 29 20 29 9 9 26 12 34 22 29 22 34 31 2 -3 -6 2 21 23 7 7 7

GFSSE_prec_radar_099.txt.gz
Reflectivity
-20 -20 -1 -20 -2 -20 -2 -20 -20 -20 -20 -20 -20 -20 -20 -20 -20 -20 -20 -20 -20 -20 -20 -20 -9 11 -8 -2 -2 11 15 12 4 -20 5 2 12 9 -1 -9 -9 14 15
-20 -20 1 -20 3 5 7 -5 -20 -20 -20 -20 -16 13 6 -20 -20 -20 -20 -20 -20 -20 -20 -5 -3 14 7 -20 -20 -20 -3 -20 -20 -20 -20 -20 -4 -8 -0 7 17 16 11
-20 -20 -2 -18 -10 9 4 -20 -20 -20 -20 -20 -9 0 18 -19 -20 -20 -20 -20 -20 -9 13 14 5 19 -20 -20 -20 -20 -20 -20 -20 -20 -20 -20 -20 -17 -20 8 16 18 15
-20 -20 -20 -7 -20 -20 -20 2 -20 -20 -20 -15 -3 -13 4 -6 -14 -20 -20 -10 1 3 -5 4 -8 -16 -20 -20 -20 -20 -20 -20 -20 -20 -20 -20 -20 -20 -20 -20 -20 -19 -12
-20 -20 -20 -20 -20 -20 -20 -19 -20 -20 -20 -20 -8 -1 7 -3 -6 -20 -17 13 8 8 -20 -20 -17 -20 -20 -20 -20 -20 -20 -20 -20 -20 -20 -20 -20 -20 -20 -20 -20 -20 -20
-20 -20 -20 -20 -20 -20 -20 -20 -20 -20 -20 -20 -20 -20 -20 4 -16 -20 -19 -19 15 -20 -20 -20 -20 -20 -20 -20 -20 -20 -20 -20 -20 -20 -20 -20 -20 -20 -20 -20 -20 -20 -20
-20 -20 -20 -20 -20 -20 -20 -20 -20 -20 4 -18 -20 -20 -12 -4 4 2 -20 -15 -20 -20 -20 -20 -20 -20 -20 -20 -20 -20 -20 -20 -20 -20 -20 -20 -20 -20 -20 -20 -20 -20 -20
-20 -20 -20 -20 -20 -20 -20 -20 -20 -20 -20 1 -0 -20 -20 -18 -2 3 -20 -8 -20 -20 -20 -20 -20 -20 -20 -20 -20 -20 -20 -20 -20 -20 -20 -20 -20 -20 -20 -20 -20 -20 -20
30 31 -20 -8 -20 -20 -20 -20 -20 -20 -20 -10 1 6 -20 -20 -20 -20 23 -20 -20 -20 -20 -20 -20 -20 -20 -20 -20 -20 -20 -20 -20 -20 -20 -20 -20 -20 -20 -20 -20 -20 -20
-20 12 27 31 -20 27 24 -20 -20 -20 6 -20 -20 -20 -20 -20 -20 17 22 -20 -13 9 -2 -20 -20 -20 -20 -20 -20 -20 -20 -20 -20 -20 -20 -20 -20 -20 -20 -20 -20 -20 -20
-0 -20 -20 -20 -20 -18 -16 -20 -20 -20 -20 -20 -20 -20 -20 -20 -20 -20 -20 -20 1 -11 -3 -20 -20 -20 -20 -20 -20 -20 -20 -20 -20 -20 -20 -20 -20 -20 -20 -20 -20 -20 -20
-20 -20 -20 -20 -20 -20 -20 -20 -11 -20 -20 -20 -20 -20 -20 -20 -20 -20 -16 -15 -16 1 -13 -20 -20 -20 -20 -20 -20 -20 -20 -20 -20 -20 -20 -20 -20 -20 -20 -20 -20 -20 -20
-20 -20 -20 31 19 21 -17 -20 -20 -20 -20 -20 -20 -20 -20 -2 -10 -20 -20 -7 -18 0 13 -10 -20 -20 -20 -20 -20 -20 -20 -20 -20 -20 -20 -20 -20 -20 -20 -20 -20 -20 -20
-20 -20 -20 -20 8 32 -6 5 -20 -20 -20 -20 -20 -20 -20 -20 21 -4 -16 -14 -20 10 11 1 -20 -20 -20 -20 -20 -20 -20 -20 -20 -20 -20 -20 -20 -20 -20 -20 -20 -20 -20
-20 -20 -20 -20 -20 -7 22 17 5 4 7 -20 -20 -20 -20 -20 -20 -20 11 3 -20 14 -4 7 -12 -20 -20 -20 -20 -20 -20 -20 -20 -20 -20 -20 -20 -20 -20 -20 -20 -20 -20
-20 -20 -20 -20 3 21 16 17 3 -8 -20 -20 -20 -20 -20 -20 -20 -20 15 25 -19 -20 10 -16 -15 -20 -20 -20 -20 -20 -20 -20 -20 -20 -20 -20 -20 -20 -20 -20 -20 -20 -20
-20 -20 -20 -20 -20 -18 -14 -9 -5 17 -20 -20 -20 -20 -20 -20 -20 -4 9 27 23 28 -7 -9 -20 -20 -20 -20 -20 -20 -20 -20 -20 -20 -20 -20 -20 -20 -20 -20 -20 -20 -20
-20 -20 -20 -20 -20 -20 -13 -16 -19 -20 -4 -20 -20 -20 -20 -20 -20 -20 21 14 32 34 27 8 -13 -20 -20 -20 -20 -20 -20 -20 -20 -20 -20 -20 -20 -20 -20 -20 -20 -20 -20
-20 -20 -20 -20 -20 -20 -20 -20 -20 -20 -20 -15 -20 -20 -20 -20 -12 -20 22 32 17 5 32 27 -5 -20 -20 -20 -20 -20 -20 -20 -20 -20 -20 -20 -20 -20 -20 -20 -20 -20 -20
-20 -20 -20 -20 -20 -20 -20 -20 -20 -20 -20 -20 -20 -20 -20 -20 -20 22 -5 -6 29 16 14 12 -3 -4 -20 -20 -20 -20 -20 -20 -20 -20 -20 -20 -20 -20 -20 -20 -20 -20 -20
-20 -20 -20 -20 -20 -20 -20 -20 -20 -14 -20 -20 -20 -20 -20 -20 -16 -20 -19 29 4 35 21 12 12 30 -11 10 3 -12 -20 -20 -9 -20 -20 -11 -13 -20 -20 -20 -20 -11 -20
-20 -20 -20 -20 -6 -20 -20 -20 -20 -20 -20 -20 -20 -20 -20 -12 -16 -15 4 22 26 14 24 10 -16 -16 -20 -20 -20 -20 -16 -18 -20 -13 -20 -20 -20 -20 -20 -20 -16 -20 -20
-20 -20 -20 -20 -18 -14 5 20 -7 -20 -20 -20 -20 -20 -19 5 28 2 -13 23 21 18 -10 -19 3 -6 -20 -12 -7 -19 -20 -20 -4 0 -3 3 -20 -20 -14 3 -4 -20 -20
-20 16 -20 -20 -20 -20 -20 -20 -20 -20 -20 -20 -20 -20 -20 14 20 24 11 16 24 24 8 -6 13 -0 -11 -20 -0 -7 -20 -8 -10 4 -10 -2 -5 4 14 -16 -20 -20 -20
-20 -18 -8 -20 -20 -20 -20 -20 7 -20 -20 -20 -20 -20 -16 3 8 25 30 30 25 18 4 0 -12 -20 -20 -7 5 -20 -19 -19 6 13 9 8 29 9 17 15 -20 -20 -20
-15 -20 -20 -20 -20 -20 -20 -20 -14 10 -8 -14 -20 -20 -20 -14 -0 15 30 31 33 27 12 -2 -3 -18 -15 28 -14 -17 10 2 -6 -8 -20 -20 22 15 22 -14 -20 -20 8

GFSSE_prec_radar_102.txt.gz
Reflectivity
-20 -20 -20 -20 1 14 8 -20 -16 -20 -20 -4 11 15 2 -20 -20 -20 -20 -20 -20 -20 -20 8 -19 -20 1 -4 -13 16 3 1 3 -17 -17 -4 10 12 1 20 6 19 26
-20 -11 -20 -20 -5 -12 -16 10 1 -18 -20 -20 -8 17 10 -20 -20 -20 -20 -20 -20 -20 -20 -2 -7 10 5 7 18 6 -20 -20 -20 -20 -20 -20 -20 -13 -19 -17 8 11 2
-20 -10 -20 -15 -4 -14 -20 -9 2 0 -17 -18 -17 -17 10 -20 -20 -20 -20 -20 -20 -20 -7 2 3 -8 -20 -20 -20 -20 -20 -20 -20 -20 -20 -20 -20 -20 -20 -20 6 -3 -20
-20 -20 -20 -16 8 -20 -20 -13 5 -20 -1 -1 -15 1 12 -15 -20 -20 -15 -20 -17 7 -12 8 1 -20 -20 -20 -20 -20 -20 -20 -20 -20 -20 -20 -20 -20 -16 -19 -20 -20 -20
-20 -20 -20 -7 -17 -20 -18 5 -20 -20 -20 3 -1 -20 3 -15 -20 -20 -20 10 5 26 1 -18 -20 -20 -20 -20 -20 -20 -20 -20 -20 -20 -20 -20 -20 -20 -20 -20 -20 -20 -20
-20 -20 -20 -18 -20 -20 -20 -20 -20 -20 -20 -1 -7 0 -20 -20 -3 -20 4 -8 -20 12 -20 -20 -20 -20 -20 -20 -20 -20 -20 -20 -20 -20 -20 -20 -20 -20 -20 -20 -20 -20 -20
-20 -20 -20 -17 -20 -20 -20 -20 0 -2 -4 -17 -20 -20 -20 -14 -20 -20 -20 10 -20 -20 -20 -20 -20 -20 -20 -20 -20 -20 -20 -20 -20 -20 -20 -20 -20 -20 -20 -20 -20 -20 -20
-9 -20 -20 2 -4 -20 -20 -20 -20 -10 -5 -20 -2 -20 -20 -20 11 -20 24 2 24 -20 -20 -20 -20 -20 -20 -20 -20 -20 -20 -20 -20 -20 -20 -20 -20 -20 -20 -20 -20 -20 -20
1 -20 -20 -20 -10 -20 -20 -20 -20 -20 -20 -12 -20 -20 -20 -14 -9 -20 22 -20 -13 -20 -20 -20 -20 -20 -20 -20 -20 -20 -20 -20 -20 -20 -20 -20 -20 -20 -20 -20 -20 -20 -20
23 25 -20 -20 -20 -17 -20 -20 -20 -20 -20 -20 -20 -20 -20 -2 17 10 -20 20 -12 -20 -20 -20 -20 -20 -20 -20 -20 -20 -20 -20 -20 -20 -20 -20 -20 -20 -20 -20 -20 -20 -20
-20 21 -6 2 -20 -20 -20 -20 -20 -20 -20 -20 -20 -20 -20 -20 -20 -20 8 -14 -20 -20 -5 -20 -20 -20 -20 -20 -20 -20 -20 -20 -20 -20 -20 -20 -20 -20 -20 -20 -20 -20 -20
-20 -20 28 27 26 -20 -3 -20 -20 -20 -20 -20 -20 -20 -20 -20 -20 -20 -9 -20 -11 -12 -14 -20 -20 -20 -20 -20 -20 -20 -20 -20 -20 -20 -20 -20 -20 -20 -20 -20 -20 -20 -20
-20 -20 -20 -20 -16 24 27 -20 -5 -20 -20 -20 -20 -20 -20 -20 -20 -20 -20 -14 -19 -20 -20 -7 -17 -20 -20 -20 -20 -20 -20 -20 -20 -20 -20 -20 -20 -20 -20 -20 -20 -20 -20
-20 -20 -20 -20 24 -20 29 -20 1 -19 -20 -20 -20 -20 -20 4 -8 31 -20 -18 -20 -20 18 -16 -20 -20 -20 -20 -20 -20 -20 -20 -20 -20 -20 -20 -20 -20 -20 -20 -20 -20 -20
-20 -20 -20 -18 -20 -20 -20 30 25 2 4 -18 -20 -20 -20 -7 24 -20 24 24 -20 -20 -18 -18 -19 -20 -20 -20 -20 -20 -20 -20 -20 -20 -20 -20 -20 -20 -20 -20 -20 -20 -20
-20 -20 -20 -20 -7 -20 -20 -4 30 17 9 15 10 -20 -20 -20 -16 26 10 27 -0 9 -5 1 -20 -20 -20 -20 -20 -20 -20 -20 -20 -20 -20 -20 -20 -20 -20 -20 -20 -20 -20
-20 -20 -20 -20 -9 -20 -20 -18 7 33 22 15 -5 -20 -20 -20 -20 -20 -20 -20 25 -17 -5 -20 -17 -20 -20 -20 -20 -20 -20 -20 -20 -20 -20 -20 -20 -20 -20 -20 -20 -20 -20
-20 -20 -20 -20 -20 -9 -20 -20 -20 -18 -20 -18 -15 12 -20 -20 -20 -20 -20 -20 8 -20 -1 34 16 -18 -18 -20 -20 -20 -20 -20 -20 -20 -20 -20 -20 -20 -20 -20 -20 -20 7
-20 -20 -20 -20 -20 -20 -20 -20 -20 3 -11 5 -20 -20 -20 -20 -20 -20 -20 12 22 6 14 10 42 25 14 -6 -20 -20 -20 -20 -20 -20 -20 -20 -20 -20 -20 -20 -20 -20 -20
-20 -20 -20 -20 -20 -20 -20 -20 -20 -20 -20 -12 -20 -20 -20 -20 -7 -17 -11 -10 20 24 26 2 26 23 28 28 16 -20 -20 -20 -20 -20 -20 -20 -20 -20 -20 -20 -20 -20 -20
-20 -5 -9 -20 -20 -20 -20 -20 -20 -20 -20 -20 -20 -20 -20 -20 -20 -20 2 3 23 -20 -20 12 37 25 29 10 22 -14 -20 -20 -20 -20 -20 -20 -20 -20 -15 1 -20 -20 -20
-20 -20 -12 -20 -20 -20 -20 -20 -20 -20 -20 -20 -20 -20 -20 -20 -20 -20 -20 -16 24 21 6 -20 -16 10 32 26 -10 -20 -20 -20 -20 -6 -17 -17 -14 0 1 -1 -20 -20 -20
-20 -20 -20 -20 -20 -20 -20 -20 -20 -20 -20 -20 -20 -20 -20 -20 -20 -20 -14 15 -2 20 13 19 24 21 12 29 21 -7 -20 -14 12 13 -19 -20 -16 -8 8 -13 -20 -20 -20
-20 -20 -20 -20 -20 -20 -20 -11 -20 -20 -20 -20 -20 -20 -20 -20 -20 -20 -20 -6 10 23 26 23 18 8 22 7 10 -10 -20 -20 -20 -20 -20 -20 0 2 8 4 13 13 -2
25 -19 -20 -7 -20 -20 -20 -5 -20 -20 -20 -20 -20 -20 -20 -20 -20 -20 -20 -7 14 21 23 24 20 22 19 -17 -20 -20 -20 -20 -20 -20 -19 14 8 17 16 -19 -20 -20 -20
1 14 28 3 -1 -11 -19 2 -7 9 -0 -9 -20 -20 -20 -20 -20 -20 -20 -20 -10 7 21 23 24 30 20 20 -4 23 -10 -18 -20 -7 -1 11 20 -20 -7 -20 -18 -20 5

GFSSE_prec_radar_105.txt.gz
Reflectivity
-20 4 -20 -0 -20 -20 -20 -20 -17 7 -11 -7 14 14 14 -20 -20 -20 -20 -20 -20 -19 16 -19 -20 -16 18 14 13 -20 -13 -8 -12 -20 -20 8 3 -13 8 -19 21 19 16
-20 -20 -20 -18 -20 4 -20 -16 2 -2 2 3 14 11 15 7 -20 -20 -20 -20 -20 -20 9 -19 -20 -20 9 10 12 -20 1 -18 -20 -20 -20 -20 -20 -0 -20 -20 19 2 -16
-20 -20 -20 -20 -20 -20 -20 8 -1 -0 0 4 8 11 11 10 -20 -20 -20 -20 -20 -20 5 9 3 -20 -11 -15 -20 -17 -2 -20 -20 -20 -20 -20 -20 -20 -20 -20 -20 -20 -20
-8 4 -20 -20 -20 -20 -20 -20 -14 -0 -6 -16 -18 10 11 -7 -20 -20 -20 -20 -20 8 11 -8 -18 -20 -20 -20 -20 -20 -20 -20 -20 -20 -20 -20 -20 -20 -20 -20 -20 -20 -20
8 -18 -20 -20 -12 -20 -20 -20 -20 -15 1 -1 -13 -12 12 -20 -20 -5 -11 -20 -13 24 25 -18 -20 -20 -20 -20 -20 -20 -20 -20 -20 -20 -20 -20 -20 -20 -20 -20 -20 -20 -20
12 -20 -20 -20 -5 -20 -20 -20 -20 -20 -20 -20 -2 -19 -20 -20 -8 5 4 -20 -19 22 24 -20 -20 -20 -20 -20 -20 -20 -20 -20 -20 -20 -20 -20 -20 -20 -20 -20 -20 -20 -20
-17 -20 -20 8 2 -20 -20 -20 -20 9 -20 -20 -20 -20 -20 -20 14 -2 -20 -20 -20 23 -13 -20 -20 -20 -20 -20 -20 -20 -20 -20 -20 -20 -20 -20 -20 -20 -20 -20 -20 -20 -20
25 -13 -20 -17 -2 -20 -18 -1 -20 -20 -20 -20 -20 -20 -20 -20 -20 -20 -20 -8 -20 -19 10 -20 -20 -20 -20 -20 -20 -20 -20 -20 -20 -20 -20 -20 -20 -20 -20 -20 -20 -20 -20
-13 14 18 9 -20 -20 -20 -20 -20 -20 -20 8 -20 -20 -20 -20 -17 -20 -20 -20 -18 -11 -20 -20 -20 -20 -20 -20 -20 -20 -20 -20 -20 -20 -20 -20 -20 -20 -20 -20 -20 -20 -20
-20 -20 23 26 5 14 -20 -20 -20 -20 -20 -20 -20 -18 -20 -20 -20 -20 -20 28 26 26 -20 -20 -20 -20 -20 -20 -20 -20 -20 -20 -20 -20 -20 -20 -20 -20 -20 -20 -20 -20 -20
-20 -20 -20 -9 25 23 -20 -20 -6 -20 -20 -20 -20 -20 -18 -20 -20 -20 -20 -20 -20 10 -20 -20 -20 -20 -20 -20 -20 -20 -20 -20 -20 -20 -20 -20 -20 -20 -20 -20 -20 -20 -20
-20 -20 -20 -19 -9 23 -20 7 7 -20 -20 -20 -20 -20 -20 -20 -20 -20 -20 -20 -20 -2 -20 -20 -20 -20 -20 -20 -20 -20 -20 -20 -20 -20 -20 -20 -20 -20 -20 -20 -20 -20 -20
-20 -20 -20 -20 -20 -4 -20 -9 7 -20 -20 -20 -20 -20 -20 -20 -20 -20 -20 -20 -20 -20 -20 -20 -19 -20 -20 -20 -20 -20 -20 -20 -20 -20 -20 -20 -20 -20 -20 -20 -20 -20 -20
-20 -20 -20 -20 -20 -11 -19 -20 7 18 -20 -20 -20 -20 -20 -20 -20 -20 -20 -20 -20 -20 -20 -20 -20 -20 -20 -19 -20 -20 -20 -20 -20 -20 -20 -20 -20 -20 -19 -20 -20 -20 -20
-20 -20 -20 -20 -20 -2 -3 -20 22 -4 13 -20 -20 -20 -20 -20 -1 28 -2 25 -20 -20 -20 -20 -20 -15 -20 -20 -20 -20 -20 -20 -20 -20 -20 -20 -20 -20 -20 -6 -20 -20 -20
-20 -20 -20 -20 -20 -20 3 -9 -20 -12 6 3 4 -12 -20 -20 -20 -20 28 3 28 -20 -20 -20 -20 -20 -20 -20 -20 -20 -20 -20 -20 -20 -20 -20 -20 -20 -20 -20 -20 -12 12
-20 -20 -20 -20 -20 -20 -4 4 -20 -20 34 35 25 10 -18 -13 -20 -20 -20 -20 -20 -20 16 21 20 -20 -18 12 -20 -20 -20 -20 -20 -20 -20 -20 -20 -20 -20 -20 -20 -20 -19
-20 -20 -20 -20 -20 -20 -20 -18 -14 32 27 22 29 9 1 -13 -16 -20 -20 -20 -20 -18 -20 -14 12 25 22 19 -14 -19 -20 -20 -20 -20 -20 -20 -20 -20 -20 -20 -20 -20 -20
-20 -20 -20 -20 -20 -20 -20 -2 -4 24 4 -6 2 32 6 -20 -20 -20 -20 -20 -20 -20 -20 -15 -0 2 19 28 18 -20 -20 -20 -20 -20 -20 -20 -20 -20 -20 -20 -20 -20 -20
-20 -20 -20 -20 -20 -14 -20 -2 -7 -20 34 19 14 -15 18 -2 -20 -20 -6 -11 6 13 2 3 1 12 19 14 34 18 -17 -16 -20 -20 -20 -20 -20 -20 -20 -20 -20 -20 -20
-20 -20 -20 -20 -20 -20 -20 -17 12 -4 -20 -18 11 31 -20 -14 -20 -2 -20 9 -3 10 -8 -20 0 19 -14 30 18 19 29 12 24 10 -20 -20 -20 -20 -20 -20 -20 -20 -20
-20 -20 -20 -19 -20 -15 -20 -7 -4 -20 -20 -20 -20 -20 -20 10 -7 -9 -8 7 -4 -14 -20 -20 -20 -20 -20 -20 7 17 19 1 -19 11 17 12 -8 3 -20 -20 -20 -20 -20
-20 -20 -20 -20 -17 -18 5 6 -20 -20 -20 -20 -20 -20 -20 -20 -20 -20 -20 10 -15 -20 -20 -20 -20 -16 -20 -20 17 9 12 10 -0 6 -8 2 -19 -20 -20 -12 10 -3 13
-20 -20 -20 -12 -4 21 33 9 -16 -20 -20 -20 -20 -20 -20 -20 -20 -20 -20 -20 16 -19 -8 7 5 -12 5 -5 8 12 12 8 9 -6 -1 9 15 10 2 6 9 -13 -17
-15 -17 4 -14 15 -4 -19 -17 -6 -6 -20 -9 -20 -20 -20 -20 -20 -20 -20 -20 -20 3 -19 5 17 12 21 22 19 19 15 17 24 -12 -20 -19 -19 -20 -7 -20 -11 12 17
14 19 20 -5 25 31 28 -11 6 9 -3 -20 -17 -16 -17 -20 -20 -20 -1 5 14 11 -4 -14 -20 6 12 -2 16 19 17 16 5 -17 -18 -3 11 -5 -20 2 -3 -2 19

GFSSE_prec_radar_108.txt.gz
Reflectivity
-5 -8 12 2 -20 -20 -20 -20 -20 -17 -20 8 12 -19 2 -8 -20 -20 -20 -20 -20 -20 -20 -20 -20 -5 10 2 -20 -20 -1 9 -2 -17 6 7 3 -17 -5 -17 24 15 -20
3 6 -20 3 9 -18 -20 -20 -20 -20 -20 4 7 26 11 3 -20 -20 -20 -20 -20 -20 -0 -20 -1 13 -6 11 -20 -20 6 -20 -20 -20 -20 -20 -15 7 -19 -20 7 -19 -20
4 10 -20 11 -16 -20 -20 -20 -20 -20 -20 -20 -20 -20 0 8 -20 -20 -20 -20 -20 17 -20 -20 -20 -20 -10 -5 -20 5 -13 -20 -20 -20 -20 -20 -20 -20 -20 -20 -20 -20 -20
4 16 10 1 2 -20 -20 -20 -20 -20 -20 -17 -20 -20 -3 7 -20 -20 -20 -20 -20 28 13 7 -20 -20 -20 -20 -20 5 -20 -20 -20 -20 -20 -20 -20 -20 -20 -20 -20 -20 -20
11 15 17 8 -19 -5 -20 -20 -20 -10 -9 -11 -20 -20 -2 -13 -1 -20 -20 -20 -20 27 26 -20 -20 -20 -20 -20 -20 -20 -20 -20 -20 -20 -20 -20 -20 -20 -20 -20 -20 -20 -20
14 16 -19 -20 -20 21 -20 13 -20 -1 1 3 3 1 -3 -20 -4 -3 -20 -20 -20 21 25 -20 -20 -20 -20 -20 -20 -20 -20 -20 -20 -20 -20 -20 -20 -20 -20 -20 -20 -20 -20
14 15 12 -20 -17 2 -8 -20 2 -18 -20 -20 -8 -20 -20 -20 4 -10 -20 -20 -11 14 22 -20 -20 -20 -20 -20 -20 -20 -20 -20 -20 -20 -20 -20 -20 -20 -20 -20 -20 -20 -20
-11 17 15 -20 -20 -0 -18 -20 -20 -20 -20 -5 -20 -20 -20 -20 -20 24 -20 -20 -20 -20 28 -20 -20 -20 -20 -20 -20 -20 -20 -20 -20 -20 -20 -20 -20 -20 -20 -20 -20 -20 -20
3 3 15 10 -1 -11 -20 -11 8 -20 -20 -20 -5 11 15 -15 -20 -20 -20 -4 -20 24 8 -20 -20 -20 -20 -20 -20 -20 -20 -20 -20 -20 -20 -20 -20 -20 -20 -20 -20 -20 -20
-20 -20 2 14 -19 -15 -20 -20 -20 -20 -20 -20 -20 -20 -20 -16 -20 23 -20 28 -18 21 9 -20 -20 -20 -20 -20 -20 -20 -20 -20 -20 -20 -20 -20 -20 -20 -20 -20 -20 -20 -20
-20 -20 -20 -18 19 10 -20 -20 -20 -20 -20 -20 -20 -14 -15 -20 -20 4 -15 -20 -20 22 11 25 -20 -20 -20 -20 -20 -20 -20 -20 -20 -20 -20 -20 -20 -20 -20 -20 -20 -20 -20
-20 -20 -20 -20 -12 8 12 -13 -8 -20 -20 -20 -20 -20 -14 -20 -20 -20 -13 -20 1 -20 6 25 -20 -20 -20 -20 -20 -20 -20 -20 -20 -20 -20 -20 -20 -20 -20 -20 -20 -20 -20
-20 -20 -20 -20 -20 -20 18 19 16 -14 -20 -20 -20 1 -4 -20 8 2 3 -5 -13 -20 15 -16 -2 -20 -20 -20 -20 -20 -20 -20 -20 -20 -20 -20 -20 -20 -20 -20 -20 -20 -20
-20 -20 -20 -20 -20 -20 -7 22 21 20 -20 -20 -20 -20 -20 -11 6 -1 -20 8 5 2 16 23 17 -20 -20 -20 -20 -20 -20 -20 -20 -20 -20 -20 -20 -20 -9 -20 -20 -20 -20
-20 -20 -20 -20 -20 -20 -19 -1 9 -14 -20 -13 1 -16 -20 -20 -0 -6 -20 7 8 10 17 28 23 -12 -20 -20 -20 -20 -20 -20 -20 -20 -20 -20 -20 -20 -20 0 -11 -20 -20
-20 -20 -20 -20 -20 -20 -20 -6 4 4 -20 -20 12 24 -6 3 7 4 11 1 -20 -20 -20 -16 -2 -20 -14 -19 -20 -20 -20 -20 -20 -20 -20 -20 -20 -20 -20 -20 -10 10 -15
-20 -20 -20 -20 -20 -20 -20 -15 -3 2 -20 -20 -14 26 3 -12 18 -20 -20 -20 -20 1 -0 0 26 5 20 -1 -20 -20 -20 -20 -20 -20 -20 -20 -20 -20 -20 -20 -20 -20 -18
-20 -20 -20 -20 -20 -20 -20 -20 -0 4 25 -20 -12 -12 31 24 32 21 -20 -20 -18 -1 -1 4 -5 -15 20 9 27 14 -20 1 -20 -20 -20 -20 -20 -20 -20 -20 -20 -20 -20
-20 -20 -20 -20 -20 -20 -20 -20 -1 15 4 -0 -20 -20 21 35 31 5 -19 -20 -15 7 13 19 15 10 -14 -2 -3 13 23 6 -17 -20 -20 -20 -20 -20 -20 -20 -20 -20 -20
-20 -20 -20 -20 -20 -20 -20 -20 -5 12 27 -5 -20 -20 -15 27 27 5 -20 -20 -20 -19 2 14 20 -5 19 19 -5 26 15 4 2 -7 -20 -20 -20 -20 -20 -20 -20 -20 -20
-20 -20 -20 -20 -20 -20 -20 -20 10 3 -13 -13 23 -4 -20 25 36 36 8 -2 2 -13 0 -17 -18 22 12 16 15 -12 0 -17 17 -4 8 -19 -15 -4 -18 -20 -20 -20 -20
-20 -20 -20 -20 -20 -20 -20 -10 -12 -19 -6 9 -4 -2 -20 -20 17 13 15 14 8 2 6 6 9 8 12 16 6 -14 -6 -20 -9 -11 -20 -20 -3 1 20 15 6 -15 -20
-20 -20 -20 -20 -20 -20 -5 -6 4 9 2 -7 -14 -19 -20 -20 -17 5 -19 5 4 5 -15 7 21 10 16 10 -6 -17 -11 -20 -20 -20 -20 -20 -8 -8 -20 -5 -6 -9 -7
-20 -20 -20 -20 -20 -20 7 20 9 6 -13 -11 -6 5 3 -4 -2 3 8 -7 -3 2 10 7 24 20 21 -20 15 -16 -20 -4 -14 -20 -19 -10 -20 -19 -20 -20 -20 -18 -16
-20 -13 4 -16 -19 5 -2 -1 16 34 16 -6 14 26 5 4 0 -1 5 5 11 7 8 7 11 6 7 17 -8 -20 -20 -20 3 -8 -20 -20 -3 5 -0 -20 -20 -20 -20
11 15 -10 -11 11 19 25 28 41 41 29 16 -13 4 -8 11 24 7 14 8 10 12 11 15 2 12 21 -17 -20 17 17 -8 -15 -8 -18 -20 -7 -5 -20 -20 -20 -20 -20

GFSSE_prec_radar_111.txt.gz
Reflectivity
-15 -13 12 -3 -20 -20 -20 -20 -18 -20 -20 -20 10 0 -20 -20 -20 -20 -20 -20 -20 -20 -20 -20 -20 -20 13 -20 -20 -20 -3 -18 -19 -20 -5 1 -20 -3 -10 4 23 -16 -20
2 8 8 -20 -20 -20 -20 -20 -20 -20 25 -18 10 -17 -3 5 -20 -20 -20 -20 -20 -20 -20 -20 -1 11 9 -2 -20 -9 -17 -20 -20 -20 -20 -20 14 21 -1 -12 -1 -20 -20
1 3 -16 -16 2 -20 -20 -20 -20 -20 -20 -9 -20 -20 -4 7 -15 -20 -20 -20 -20 -13 -20 -20 -19 -9 -20 -15 0 12 -20 -20 -20 -20 -5 -9 -20 -20 -20 -20 -20 -20 -20
-1 15 -10 -11 -20 -1 -20 -20 -20 -20 -20 -20 -13 -20 -20 -8 -14 -20 -20 -20 -20 8 -4 -19 -8 -20 -20 -20 -2 13 -20 -20 -20 -20 -20 -20 -20 -20 -20 -20 -20 -20 -20
-9 13 12 5 -20 -7 -20 -20 -20 -14 -16 1 3 -20 -20 -7 2 -20 -20 -20 -20 -10 19 -2 -20 -20 -20 -20 9 -2 -20 -20 -20 -20 -20 -20 -20 -20 -20 -20 -20 -20 -20
-20 30 13 -19 -20 -20 29 13 -20 -20 -20 -20 -20 -20 -20 -20 -20 -20 -20 -20 -20 -20 24 -20 -20 -20 -20 -20 -20 -20 -20 -20 -20 -20 -20 -20 -20 -20 -20 -20 -20 -20 -20
-20 -6 -6 -20 -20 -20 -20 -8 -20 -20 -20 -20 -20 -20 -20 -17 -20 -20 9 -20 -20 22 4 -2 -20 -20 -20 -20 -20 -20 -20 -20 -20 -20 -20 -20 -20 -20 -20 -20 -20 -20 -20
-20 -20 12 -7 -20 -20 -20 -20 -20 -20 4 -20 -20 -20 -20 -10 -20 -20 -20 -10 -20 26 27 15 -20 -20 -20 -20 -20 -20 -20 -20 -20 -20 -20 -20 -20 -20 -20 -20 -20 -20 -20
-20 -20 -19 8 9 -20 -20 -20 -20 -20 -20 -20 -20 -9 -20 -20 -13 -20 -20 1 7 -20 -20 23 20 -20 -20 -20 -20 -20 -20 -20 -20 -20 -20 -20 -20 -20 -20 -20 -20 -20 -20
-20 -20 -20 -20 -20 8 -17 -20 -20 -20 -20 -20 -20 -20 -20 -20 -20 -20 -20 -20 -20 24 23 21 27 -20 -20 -20 -20 -20 -20 -20 -20 -20 -20 -20 -20 -20 -20 -20 -20 -20 -20
-20 -20 -20 -20 -20 -20 -13 6 -20 -20 -20 -20 -20 -20 -20 -20 -20 -20 -20 -20 -20 -0 -5 25 25 -20 -20 -20 -20 -20 -20 -20 -20 -20 -20 -20 -20 -20 -20 -20 -20 -20 -20
-20 -20 -20 -20 -20 -20 -8 -0 -12 -20 -20 -20 -20 -20 -20 -20 -20 -20 -20 -20 -20 4 -2 21 25 21 -20 -20 -20 -20 -20 -20 -20 -20 -20 -20 -20 -20 -9 -20 -20 -20 -20
-20 -20 -20 -20 -20 -20 -20 -20 13 6 5 -20 -20 -20 -20 -20 -20 -20 -20 -20 9 -20 24 -14 -12 -11 -20 -20 -20 -20 -20 -20 -20 -20 -20 -20 -20 -20 -20 -20 -20 -20 -20
-20 -20 -20 -20 -20 -20 -20 -20 2 20 21 3 -20 -20 -20 -20 -20 -8 5 -20 -16 -5 13 19 16 -20 -20 -20 -20 -20 -20 -20 -20 -20 -20 -20 -20 -20 -20 -20 -20 -20 -20
-20 -20 -20 -20 -20 -20 -20 -20 -17 4 1 22 -14 -20 -20 -20 -20 -8 -20 -20 15 -7 18 9 -2 19 -20 -20 -20 -20 -20 -20 -20 -20 -20 -20 -20 -20 -20 -5 3 -20 -20
-20 -20 -20 -20 -20 -20 -20 -20 -17 2 -20 -17 -20 -20 -20 -12 12 4 16 16 14 21 21 22 5 17 -1 -20 -7 -20 -20 -20 -20 -20 -20 -20 -20 -20 -20 -20 -13 9 -20
-20 -20 -20 -20 -20 -20 -20 -20 -20 -7 1 2 -20 -20 -20 -20 -2 10 22 19 18 23 24 25 26 23 28 12 5 10 -19 12 -20 -20 -20 -20 -20 -20 -20 -20 -20 -20 -20
-20 -20 -20 -20 -20 -20 -20 -20 -20 1 7 5 -9 -20 -20 -16 -18 -20 1 23 28 -8 10 -20 -17 19 27 7 27 23 25 18 15 -17 -20 -20 -20 -20 -20 -20 -20 -20 -20
-20 -20 -20 -20 -20 -20 -20 -20 -20 -1 -10 25 -7 -20 -1 -20 -20 12 -4 32 27 5 28 19 26 10 19 21 -18 -9 -12 -20 -20 -5 -12 -14 -4 -20 -20 -20 -20 -20 -20
-20 -20 -20 -20 -20 -20 -20 -20 -20 25 16 25 -20 -20 -20 -20 -1 8 6 30 34 14 9 -5 25 18 13 20 19 15 7 -20 -20 -12 -3 -18 -19 -20 -20 -20 -20 -20 -20
-20 -20 -20 -20 -20 -20 -20 -20 -20 -17 -12 -8 24 -20 -20 -20 -20 -20 -20 5 33 29 1 -12 9 14 12 24 13 12 22 9 -13 -20 -11 10 -20 -20 -20 -20 -20 -20 -20
-20 -20 -20 -20 -20 -20 -20 -20 -20 -2 3 13 27 -19 -20 -20 -20 -20 -20 -20 4 14 27 2 -19 9 -12 5 9 20 12 -9 -20 -20 -20 -19 -20 -1 7 -19 -20 -20 3
-11 6 -20 -20 -20 -20 -20 -20 7 -20 -10 19 27 9 -9 9 -19 2 -20 -20 -20 23 8 11 16 4 9 13 13 1 -1 -18 -20 -20 -20 -20 -20 -20 -16 -12 -20 -20 -20
-6 7 5 -20 -20 -20 -20 -20 -20 -13 7 -6 -19 10 2 -9 12 22 3 5 7 -19 13 12 9 2 8 25 21 18 -14 -12 -20 -20 -20 -20 -20 -20 -20 -20 -20 -20 -20
-19 -1 5 13 4 -20 -20 14 27 32 31 5 33 9 6 4 21 25 15 25 20 29 24 15 4 8 9 -15 25 20 1 -5 18 -19 12 -20 -20 -20 -19 -6 -12 -10 -20
-19 4 -8 -16 -10 -20 -18 -20 16 28 28 33 38 33 27 28 26 -10 10 7 11 1 11 21 11 10 25 22 24 22 -14 -20 -20 -3 23 6 -18 -20 -12 20 -4 9 -11

GFSSE_prec_radar_114.txt.gz
Reflectivity
-20 -20 16 -17 -20 -20 -20 -20 -4 10 -20 -20 -1 -0 -20 -20 -20 -20 -20 -20 -20 -20 -20 -20 -20 -15 -19 -20 -4 -20 -20 -20 -20 -18 -11 6 8 -20 -10 13 -20 -20 -20
-7 -7 16 -20 -20 -20 -20 -20 -20 -20 -20 -20 2 -13 -20 -20 -20 -20 -20 -20 -20 -20 -20 -20 -20 1 9 -20 1 -20 -20 -20 -20 -20 -20 3 16 22 6 -19 -20 -20 -20
-12 6 -1 -20 -20 -20 -20 -20 -20 -20 -20 -20 -17 -17 -4 7 -15 -20 -20 -20 -20 -20 -20 -20 25 3 -20 -19 4 9 -20 -20 -20 -20 -20 -20 -20 -20 -20 -20 -20 -20 -20
3 15 -20 -13 5 -20 -20 -20 -20 -20 -20 -20 -20 -18 -20 -2 -10 -20 -20 -20 -20 18 0 -20 12 6 -20 -20 7 8 -20 -20 -20 -20 -20 -20 -20 -20 -20 -20 -20 -20 -20
8 9 8 10 -20 -20 -20 -20 -20 -20 -20 -20 5 -20 -20 -20 -20 -20 -20 -20 -20 2 -1 -0 -20 -20 -20 -20 6 -13 -20 -20 -20 -20 -20 -20 -20 -20 -20 -20 -20 -20 -20
-15 -19 -20 -5 14 -20 -20 -20 -20 -20 -20 -19 4 5 -20 -20 17 -20 -20 -20 -20 -20 -20 -19 -20 -20 -20 -20 -20 -20 -20 -20 -20 -20 -20 -20 -20 -20 -20 -20 -20 -20 -20
-7 -12 5 -12 -20 -20 -20 -20 -20 -20 -20 -20 -20 -20 -20 -20 33 16 -20 -20 -20 -20 -9 28 -20 -20 -20 -20 -20 -20 -20 -20 -20 -20 -20 -20 -20 -20 -20 -20 -20 -20 -20
-20 -14 -16 -8 3 -20 -20 -20 -20 -20 7 -20 -20 -20 -20 -20 -20 -20 28 -9 -20 5 7 -6 -14 -20 -20 -20 -20 -20 -20 -20 -20 -20 -20 -20 -20 -20 -20 -20 -20 -20 -20
-20 -20 -20 -1 -5 -20 -20 -20 -20 -20 -20 -12 -20 -20 -20 -20 -20 -20 -20 -20 13 -20 23 18 -11 -20 -20 -20 -20 -20 -20 -20 -20 -20 -20 -20 -20 -20 -20 -20 -20 -20 -20
-20 -20 -20 -20 -20 -14 -18 8 -19 -20 -20 -20 -20 -20 -20 -20 -20 -20 -20 -20 -20 -20 -20 3 21 25 -20 -20 -20 -20 -20 -20 -20 -20 -20 -20 -20 -20 -20 -20 -20 -20 -20
-20 -20 -20 -20 -20 -20 -19 -15 -18 -20 -20 -20 -20 -20 -20 -20 -20 -20 -20 -20 -20 -20 -20 -8 21 22 -20 -20 -20 -20 -20 -20 -20 -20 -20 -20 -20 -20 -20 -20 -20 -20 -20
-20 -20 -20 -20 -20 -20 -20 -20 -20 -20 -20 -20 -20 -20 -20 -20 -20 -20 -20 -20 -20 -20 -20 -20 20 -5 -20 -20 -20 -20 -20 -20 -20 -20 -20 -20 -20 -20 -20 -20 -20 -20 -20
-20 -20 -20 -20 -20 -20 -20 -20 -20 -17 -18 -0 -20 -20 -20 -20 -20 -20 -20 -6 -20 -20 -20 -20 -10 -8 -20 -20 -20 -20 -20 -20 -20 -20 -20 -20 -20 -20 -20 -20 -20 -20 -20
-20 -20 -20 -20 -20 -20 -20 -20 -20 -20 -2 -19 -20 -20 -20 -20 -20 -20 -20 6 -19 -20 -20 -20 -20 -20 -20 -20 -20 -20 -20 -20 -20 -20 -20 -20 -20 -20 -20 -20 -20 -20 -20
-20 -20 -20 -20 -20 -20 -20 -20 -20 -20 1 -12 -20 -20 -20 -20 -20 -20 -20 -20 12 5 -20 -20 -20 -20 -3 -20 -19 -20 -20 -20 -20 -20 -20 -20 -20 -20 -20 -20 -13 -20 -20
-20 -20 -20 -20 -20 -20 -20 -20 -20 -20 -20 8 -20 -17 -20 -20 -20 -20 -20 -20 -16 -20 22 -20 -20 -14 16 26 -18 -2 -20 -20 -20 -20 -20 -20 -20 -20 -20 -20 -20 -2 -20
-20 -20 -20 -20 -20 -20 -20 -20 -20 -20 -20 6 -5 20 18 -18 12 -20 -20 -20 13 24 26 4 18 24 7 19 -20 -20 -7 -20 -20 -20 -12 -19 -20 -20 -20 -20 -20 -20 -20
-20 -20 -20 -20 -20 -20 -20 -20 -20 -20 -20 -20 -4 16 -20 -20 -3 -20 -20 1 -20 29 26 22 29 27 26 26 24 21 -20 3 16 -13 7 12 -20 -6 -20 -20 -20 -20 -20
-20 -20 -20 -20 -20 -20 -20 -20 -20 -20 -20 -20 -20 -20 18 5 -20 -20 -20 -20 -5 0 -20 6 27 28 28 26 30 18 26 1 -15 6 -19 -20 -20 -20 -20 -20 -20 -20 -20
-20 -20 -20 -20 -20 -20 -20 -20 -20 -20 -20 10 -20 -20 23 6 -20 -8 14 -5 -20 -20 8 -12 32 26 25 21 27 17 11 -20 -20 -20 -20 -20 -20 -20 -20 -20 -20 -16 -18
-20 -20 -20 -20 -20 -20 -20 -20 -20 -20 -20 -20 14 26 -20 -20 -20 -20 -20 -20 -20 1 3 8 16 32 15 20 30 9 13 -11 17 -20 -20 -20 -20 -18 -20 -20 -20 -20 -20
-20 -20 -20 -20 -20 -20 -20 -20 -20 -20 -20 -20 -20 -20 31 23 -20 -17 -20 -20 -20 -2 6 -7 -20 24 20 27 19 2 -9 -14 11 -20 -20 -20 -20 -20 -20 -20 -20 -20 -16
-20 -20 -20 -20 -20 -20 -20 -20 -20 -20 -20 -20 -20 -20 -15 5 30 6 25 0 -20 -20 -20 -20 -20 -20 6 19 30 16 -9 -20 -20 -20 -20 -20 -20 -20 -20 -20 -16 -20 -5
-20 -20 -20 -15 5 -20 -20 -20 -20 -20 -20 -0 17 -6 -20 -20 -3 33 46 23 -18 -9 -20 -20 -20 -13 31 20 10 5 19 12 -20 -18 -20 -20 -20 -20 -20 -20 -20 -20 -20
-20 -20 -20 -20 -20 -20 -20 30 -0 -20 -20 -20 -20 -20 -17 32 32 27 2 8 -20 -20 -19 -20 -18 27 22 31 29 32 15 28 12 6 -19 -20 -20 -20 -20 -20 -20 -20 -20
-20 -20 -20 -20 -20 -20 -7 -20 -20 -20 25 31 10 -19 29 32 30 40 36 27 26 -3 -10 -20 -20 -10 -1 9 24 20 27 20 12 11 1 -19 -11 -20 -9 14 -18 -20 -16

GFSSE_prec_radar_117.txt.gz
Reflectivity
-20 -20 15 10 -20 -20 -20 -20 -20 -20 -16 -8 -7 -19 -20 -20 -20 -20 -20 -20 -20 -20 -20 -20 -20 6 -20 -17 -20 -20 8 -20 -20 -20 -10 -4 -20 -1 5 -20 -20 -20 -20
5 11 16 11 -20 -20 -20 -20 -20 -20 -20 -20 7 -13 -20 -2 -16 -20 -20 -20 -20 -20 -20 -20 -20 22 -20 -20 -20 -20 -20 -20 -20 -20 -20 -20 22 23 17 -20 -20 -20 -20
-5 14 17 7 -20 -20 -20 -20 -20 -20 -20 -20 -20 -20 -20 9 -12 -20 -20 -20 -20 -20 -20 -20 12 19 -20 -9 9 -20 -20 17 -9 -3 -20 -20 -20 -17 -20 -20 -20 -20 -20
7 -11 7 18 -10 -20 -20 -20 -20 -20 -20 -20 -20 -20 3 -20 -19 -20 -20 -20 -20 -20 -14 -20 17 -20 -20 -20 11 -20 -20 -20 -20 -16 -20 -20 -20 -20 -20 -20 -20 -20 -20
-15 -10 -20 7 0 -20 -20 -20 -20 -20 -20 -20 -20 -20 -20 -20 -20 -20 -20 -20 -20 -13 -20 -20 -18 -20 -20 -20 10 -20 -20 -20 -20 -20 -20 -20 -20 -20 -20 -20 -20 -20 -20
-17 -19 -20 -20 -20 20 -20 -20 -20 -20 -20 -20 10 6 -20 -20 -20 12 -20 -20 -20 -20 -20 -20 -20 -20 -20 -20 -20 -20 -20 -20 -20 -20 -20 -20 -20 -20 -20 -20 -20 -20 -20
-9 -20 -20 -20 -20 5 -20 -20 -20 -20 -20 -20 -20 -20 -20 -20 -20 -20 -20 -20 -20 -20 -20 24 -20 -20 -20 -20 -20 -20 -20 -20 -20 -20 -20 -20 -20 -20 -20 -20 -20 -20 -20
-20 -12 6 8 -20 -20 -18 -20 -4 -20 -20 -20 -20 -20 -20 -20 -20 -20 -20 -20 -20 -20 -20 24 -17 -20 -20 -20 -20 -20 -20 -20 -20 -20 -20 -20 -20 -20 -20 -20 -20 -20 -20
-20 -20 -16 1 -5 -14 -20 -20 -20 -20 -8 -20 -20 -20 -20 -20 -20 -20 -20 -20 -20 -20 -20 -20 24 6 -20 -20 -20 -20 -20 -20 -20 -20 -20 -20 -20 -20 -20 -20 -20 -20 -20
-20 -20 -20 -20 -20 -19 -20 -14 -20 -20 -20 -20 10 33 -20 -20 -20 -20 -20 -20 -20 -20 -20 -20 -20 -15 -20 -20 -20 -20 -20 -20 -20 -20 -20 -20 -20 -20 -20 -20 -20 -20 -20
-20 -20 -20 -20 -20 -20 -20 -20 -20 -20 -20 -20 -20 -20 -20 -20 -20 -20 -20 -20 -20 -20 -20 -20 16 -20 -20 -20 -20 -20 -20 -20 -20 -20 -20 -20 -20 -20 -20 -20 -20 -20 -20
-20 -20 -20 -20 -20 -20 -20 -20 -20 -20 -20 -20 -20 -20 -20 -20 -20 -20 -20 -20 -20 -20 -20 -20 -20 -20 -20 -20 -20 -20 -20 -20 -20 -20 -20 -20 -20 -20 -20 -20 -20 -20 -20
-20 -20 -20 -20 -20 -20 -20 -20 -20 -20 -20 -20 -20 -20 -20 -20 -20 -20 -20 -20 -8 -20 -7 -20 -13 -20 -20 -20 -20 -20 -20 -20 -20 -20 -20 -20 -20 -20 -20 -20 -20 -20 -20
-20 -20 -20 -20 -20 -20 -20 -20 -20 -20 -20 2 6 -20 -20 -20 -20 -20 -20 -20 -20 -20 4 -20 -20 -20 -20 -20 -20 -20 -20 -20 -20 -20 -20 -20 -20 -20 -20 -20 -20 -20 -20
-20 -20 -20 -20 -20 -20 -20 -20 -20 -20 -20 -20 -11 -20 10 -11 -20 -20 -20 -20 -20 -20 -20 -20 -20 -20 -20 -20 -20 -20 -20 -20 -20 -20 -20 -20 -20 -20 -20 -20 -20 -20 -20
-20 -20 -20 -20 -20 -20 -20 -20 -20 -20 -20 -20 -20 -20 -18 19 -20 -8 -20 -20 -20 -20 -20 -20 12 -20 -20 -20 -20 -20 -20 -20 -20 -20 -20 -20 -20 -20 -20 -20 -20 -17 -8
-20 -20 -20 -20 -20 -20 -20 -20 -20 -20 -20 -20 -20 -20 -20 -20 -20 -20 16 5 -20 -20 -10 24 22 28 -20 6 -18 -20 -20 -20 -18 -20 -20 -20 -20 -20 -1 -20 -20 -20 -19
-20 -20 -20 -20 -20 -20 -20 -20 -20 -20 -20 -20 -20 -20 -20 -17 -13 27 14 -4 -11 -20 -20 -20 -20 -7 27 25 23 12 -1 -14 -20 -20 -13 -19 1 -20 19 -13 -20 -20 -20
-20 -20 -20 -20 -20 -20 -20 -20 -20 -20 -20 -20 -20 -20 -20 -16 -2 2 -20 23 21 1 -20 30 -20 -20 6 16 19 38 35 37 33 31 8 -15 -1 2 -19 -20 -19 -20 -20
-20 -20 -20 -20 -20 -20 -20 -20 -20 -20 -20 -20 -20 -20 -20 -20 -14 26 -20 -13 21 9 14 -3 -20 -20 -20 3 24 30 22 29 31 22 12 21 -6 -20 -20 -20 -20 -20 -20
-20 -20 -20 -20 -20 -20 -20 -20 -20 -20 -20 -20 -20 -20 -20 -20 -20 -20 19 1 -20 -20 24 22 -20 -20 -20 -20 22 25 22 7 24 21 6 1 -20 -20 -15 -19 -20 -20 -20
-20 -20 -20 -20 -20 -20 -20 -20 -20 -20 -20 -20 -20 -20 -20 -20 -20 27 -20 -3 25 16 27 22 -20 -20 -13 -14 -1 9 16 20 19 23 23 -15 -20 -20 -20 -20 -20 -20 -20
-20 -20 -20 -20 -20 -20 -20 -20 -20 -20 -20 -20 -20 -20 -20 -20 -20 3 31 -20 -16 1 20 -1 3 -20 8 -18 18 -19 5 26 13 14 33 8 -20 -20 -20 -20 -20 -20 -20
-20 -20 -20 -20 -20 -20 -20 -20 -20 -20 -20 -20 -20 -20 -20 -20 -20 -20 -11 32 27 23 12 7 26 -20 18 -20 25 17 27 -1 5 -3 30 23 0 -10 -20 -20 -20 -20 -20
-20 -20 -20 -20 -20 -20 -20 -20 -20 -20 -20 -20 -20 -20 21 -20 -20 -20 -18 22 38 32 26 30 33 -16 -20 -3 4 -20 -20 23 31 28 14 16 23 19 17 -17 -20 -20 -20
-20 -20 -20 -20 -20 -20 -13 -20 -20 -20 -20 -17 12 14 16 17 23 19 -7 18 41 43 27 36 36 31 12 -17 8 -20 -7 20 17 31 30 8 6 -4 -5 -20 -20 -20 -20

GFSSE_prec_radar_120.txt.gz
Reflectivity
-20 -20 8 17 -15 -10 -20 -20 -20 -20 -20 -17 -15 -9 -20 -20 -20 -20 -20 -20 -20 -20 -20 -20 11 -20 -20 -15 -1 -20 -20 -20 -20 3 -20 -20 -20 2 -15 -20 -20 -20 -4
-7 9 11 17 -3 -20 -20 -20 -20 -20 -20 -20 -3 -2 -20 -20 -20 -20 -20 -20 -20 -20 -20 -20 19 -20 -20 -20 -20 -20 -20 -20 -20 -20 -20 -20 -18 17 -20 -20 -20 -20 -20
-5 9 -20 12 -20 -20 -20 -20 -20 -20 -20 -14 -20 -20 -19 11 -13 -20 -20 -20 -20 -20 -20 -20 6 0 -20 -20 -20 -20 -20 -20 -20 -20 -20 -20 21 -20 -20 -20 -20 -20 -20
1 16 -8 -11 -20 -20 -20 -20 -20 -20 -20 -20 -20 -20 -20 -20 -20 -20 -20 -20 -20 -20 -14 -20 2 -10 -20 -20 -20 -20 -20 -20 -20 -20 -20 -20 -20 -20 -20 -20 -20 -20 -20
9 5 -13 1 8 -20 -20 -20 -20 -20 -20 -20 -20 -20 -7 9 2 -20 -20 -20 -20 -20 -20 -11 2 -20 -20 -20 -20 -20 -20 -20 -20 -20 -20 -20 -20 -20 -20 -20 -20 -20 -20
-20 14 16 -20 -20 -20 -20 -20 -20 -20 -20 -20 -20 5 -20 -20 11 -19 -20 -20 -20 -20 -20 -20 -20 -20 -20 -20 -20 -20 -20 -20 -20 -20 -20 -20 -20 -20 -20 -20 -20 -20 -20
-2 -8 -19 -2 35 -20 -20 -20 -20 -20 -20 -20 -20 -20 -20 -20 -20 -20 -20 -20 -20 -20 -20 -20 -20 -20 -20 -20 -20 -20 -20 -20 -20 -20 -20 -20 -20 -20 -20 -20 -20 -20 -20
-20 -15 3 15 -18 -20 -20 -20 -20 -20 -20 -20 -20 -20 -20 -20 -20 -20 -20 -20 -20 -20 -20 -13 -19 -20 -20 -20 -20 -20 -20 -20 -20 -20 -20 -20 -20 -20 -20 -20 -20 -20 -20
-20 -20 -20 1 11 16 -2 9 -20 -20 -20 -20 -20 -20 -20 -20 -20 -20 -20 -20 -20 -20 -20 -20 -10 -20 -20 -20 -20 -20 -20 -20 -20 -20 -20 -20 -20 -20 -20 -20 -20 -20 -20
-20 -20 -20 -20 -20 -20 13 12 -13 12 -19 -20 -20 -20 -20 -20 -20 -20 -20 -20 -20 -20 -4 -20 -20 -20 9 -20 -20 -20 -20 -20 -20 -20 -20 -20 -20 -20 -20 -20 -20 -20 -20
-20 -20 -20 -20 -20 -20 -20 -20 -20 -20 3 13 -9 -20 -20 -20 -20 -20 -20 -20 -20 -20 -20 -20 -20 -20 -20 -20 -20 -20 -20 -20 -20 -20 -20 -20 -20 -20 -20 -20 -20 -20 -20
-20 -20 -20 -20 -20 -20 -20 -20 -20 -20 -20 -15 -3 13 -20 -20 -20 -20 -20 -20 -20 -20 -20 -20 -20 -20 -20 -20 -20 -20 -20 -20 -20 -20 -20 -20 -20 -20 -20 -20 -20 -20 -20
-20 -20 -20 -20 -20 -20 -20 -20 -20 -20 -20 -20 -20 12 -18 -7 -20 -20 -20 -20 -20 -20 -20 -20 -20 -20 -20 -20 -20 -20 -20 -20 -20 -20 -20 -20 -20 -20 -20 -20 -20 -20 -20
-20 -20 -20 -20 -20 -20 -20 -20 -20 -20 -20 -20 -20 -20 -1 6 -20 -20 -20 -20 -20 -20 -20 -20 4 -17 -20 -20 -20 8 -20 -20 -20 -20 -20 -20 -20 -20 -20 -20 -20 -20 -20
-20 -20 -20 -20 -20 -20 -20 -20 -20 -20 -20 -20 -20 -20 -20 9 17 15 -20 -14 -20 -20 -20 -20 -20 -20 -20 -20 -20 -20 -7 -20 -20 -20 -20 -20 -20 -20 -20 -20 -20 -20 -20
-20 -20 -20 -20 -20 -20 -20 -20 -20 -20 -20 -20 -20 -20 -20 -20 -20 -11 30 -20 2 -20 -20 -17 24 -16 -20 -20 -20 -20 -20 -8 -20 -20 -20 -20 -20 -20 -20 -20 -20 -20 -20
-20 -20 -20 -20 -20 -20 -20 -20 -20 -20 -20 -20 -20 -20 -20 -20 -20 -20 -12 18 6 9 22 23 -20 -13 29 -20 -20 -20 -20 -20 20 -10 -20 -20 -20 -20 -20 -20 -20 -20 -20
-20 -20 -20 -20 -20 -20 -20 -20 -20 -20 -20 -20 -20 -20 -20 -20 -20 -20 -20 -11 25 18 20 19 19 26 13 -20 -20 -19 24 -3 17 -16 -20 -18 -20 -20 -20 -20 -20 5 -5
-20 -20 -20 -20 -20 -20 -20 -20 -20 -20 -20 -20 -20 -20 -20 -20 -20 -20 -20 -20 9 23 25 20 23 27 10 1 -20 -2 16 27 22 24 15 15 16 -12 21 -8 4 -20 -2
-20 -20 -20 -20 -20 -20 -20 -20 -20 -20 -20 -20 -20 -20 -20 -20 -20 -20 -20 -20 -11 -8 24 24 22 23 19 22 -5 5 13 19 19 37 35 37 36 31 10 11 -16 14 -16
-20 -20 -20 -20 -20 -20 -20 -20 -20 -20 -20 -20 -20 -20 -20 -20 -20 -20 -20 -20 -20 -20 -20 22 25 25 23 25 -20 -20 -20 -20 -0 29 35 37 32 31 28 2 6 10 -20
-20 -20 -20 -20 -20 -20 0 -20 -20 -20 -20 -20 -20 -20 -20 -20 -20 -20 -20 -20 -0 -16 -17 21 23 23 26 20 16 -20 -20 -20 -14 24 17 28 19 28 27 25 -10 -4 -4
-20 -20 -20 -20 -20 7 -9 -20 -20 -20 -20 -20 -20 -20 -20 -20 -20 -20 -20 -20 -14 7 -6 21 23 21 22 -12 20 -3 -15 -20 -20 -3 5 5 26 25 13 27 13 15 11
-20 -20 -20 -20 -20 -17 -17 -3 17 6 -14 4 -20 13 7 -19 -20 -20 -20 -20 -20 -20 16 -1 23 20 22 20 21 11 7 -16 -20 -20 -20 -15 24 21 10 -4 30 22 -17
-20 -20 -20 -20 -20 -20 -20 -20 -20 -20 -4 -20 -20 -20 -20 -20 -18 -6 -20 -20 -20 -20 -20 30 22 23 26 11 28 19 24 -10 -20 16 1 -20 25 8 21 18 32 31 13
-20 -20 -20 -20 -20 -20 -20 -20 -20 -20 -20 -20 -17 -17 -14 -20 -20 16 15 15 -20 -20 -20 -4 42 42 31 -1 20 -7 -2 -9 17 9 18 -6 7 5 26 32 29 21 25

GFSSE_prec_radar_123.txt.gz
Reflectivity
-20 -18 16 10 2 3 1 -20 -20 -20 -20 -20 -20 -20 -20 -20 -20 -20 -20 -20 -20 -20 -20 -6 -20 -20 -20 -2 -19 -20 -20 -20 -20 -20 -20 -20 -19 -12 -20 -20 -20 -20 7
-19 10 18 -20 -4 -20 -20 -20 -20 -20 -20 -20 1 -20 -20 -20 -20 -20 -20 -20 -20 -20 -20 -2 -2 -20 -20 3 -19 -15 -20 -20 -20 -20 -20 -20 21 17 -20 -20 -20 -20 -20
-5 -10 -3 13 -3 -20 -20 -20 -20 -20 -20 -20 7 -20 -19 -4 -15 -20 -20 -20 -20 -20 -20 -20 21 3 -20 -20 -20 -20 -20 -20 -20 -20 -20 -14 16 4 -20 -20 -20 -20 -20
-2 -16 -13 -4 -3 -20 -20 -20 -20 -20 -20 -20 9 -4 -1 -6 -13 -20 -20 -20 -20 -20 -20 -20 2 -3 -20 -20 -20 -20 -20 -20 -20 -20 -20 -20 -20 -20 -20 -20 -20 -20 -20
-4 14 6 -10 -9 -20 -20 -20 -20 -20 -20 -20 -20 -20 -20 -20 -20 -20 -20 -20 -20 -20 -20 -15 -20 19 -20 -20 -20 -20 -20 -20 -20 -20 -20 -20 -20 -20 -20 -20 -20 -20 -20
-20 0 -18 13 -20 34 -18 -20 -20 -20 -20 -20 -20 -20 -14 -7 -20 -20 -20 -20 -20 -20 -20 -20 -20 -20 -20 -20 -20 -20 -20 -20 -20 -20 -20 -20 -20 -20 -20 -20 -20 -20 -20
-20 -18 -2 17 -13 15 -20 -12 -20 -20 -20 -20 -20 -20 -20 -20 -20 -20 -20 -20 -20 -20 -20 -2 -20 -20 -20 -20 -20 -20 -20 -20 -20 -20 -20 -20 -20 -20 -20 -20 -20 -20 -20
-20 -20 -19 17 15 -17 -19 -8 -20 -16 -20 4 -12 -18 -20 -20 -20 -20 -20 -20 -20 -20 -20 -20 -20 -20 -20 -20 -20 -20 -20 -20 -20 -20 -20 -20 -20 -20 -20 -20 -20 -20 -20
-20 -20 -20 -20 -16 14 16 14 10 -20 -20 -16 -9 -11 -20 2 -20 -20 -20 -3 -20 -20 -20 -20 -20 -20 -20 -20 -20 -20 -20 -20 -20 -20 -20 -20 -20 -20 -20 -20 -20 -20 -20
-20 -20 -20 -20 -20 -20 -20 -20 2 0 -20 -20 -12 -20 -19 -20 -20 -20 -20 -20 -20 -20 -20 -20 -20 -20 28 32 -20 -20 -20 -20 -20 -20 -20 -20 -20 -20 -20 -20 -20 -20 -20
-20 -20 -20 -20 -20 -20 -20 -20 -20 -20 -20 -20 -20 -20 -20 -20 -20 -20 -20 -20 -20 -20 -20 -20 -20 -20 -20 -20 -20 -20 -20 -20 -20 -20 -20 -20 -20 -20 -20 -20 -20 -20 -20
-20 -20 -20 -20 -20 -20 -20 -20 -20 -20 -20 -20 -20 -20 -20 -0 24 7 -20 -20 -20 -20 -20 -20 -20 -20 -20 -20 -20 -15 -20 -20 -20 -20 -20 -20 -20 -20 -20 -20 -20 -20 -20
-20 -20 -20 -20 -20 -20 -20 -20 -20 -20 -20 -20 -20 -20 -20 -20 -20 -20 -20 -20 -20 -20 -20 -20 -20 -20 -20 -20 -20 -20 21 -20 -20 -20 -20 -20 -20 -20 -11 -20 -20 -20 -20
-20 -20 -20 -20 -20 -20 -20 -20 -20 -20 -20 -20 -20 -20 -20 -20 -20 -20 -20 -20 -20 -20 -20 -20 -20 -20 -20 -20 -20 -20 -20 15 -20 -20 -20 -20 -20 -20 -20 1 -20 -20 -20
-20 -20 -20 -20 -20 -20 -20 -20 -20 -20 -20 -20 -20 -20 -20 -20 -20 -20 -20 -20 10 0 6 -20 21 25 11 -20 -20 -20 -20 -20 -20 -20 -20 -20 -20 -20 -20 -3 -20 -20 -20
-20 -20 -20 -20 -20 -20 -20 -20 -20 -20 -20 -20 -20 -20 -20 -20 -20 -20 -20 -20 -20 -19 4 10 10 -1 6 26 9 -20 -20 -20 -20 -20 -20 -20 -20 -20 -20 -20 16 -20 -20
-20 -20 -20 -20 -20 -20 -20 -20 -20 -20 -20 -20 -20 -20 -20 -20 -20 -20 -20 -20 -20 -20 -20 13 21 23 19 20 22 24 4 -20 -20 27 2 19 -20 -20 -20 -20 -20 4 -20
-20 -20 -20 -20 -20 -20 -20 -20 -20 -20 -20 -20 -20 -20 -20 -20 -20 -20 -20 -20 -20 -20 -20 -2 -13 21 20 21 20 18 27 26 -12 -2 24 26 4 -20 -20 -19 17 -15 8
-20 -20 -20 -20 -20 -20 -20 -20 -20 -20 -20 -20 -20 -20 -20 -20 -20 -20 -20 -5 -7 -20 -11 6 -5 9 14 19 22 27 -20 -1 25 26 25 22 11 28 3 -3 15 19 -20
-20 -20 -20 -20 -20 -20 -20 -20 -20 -20 -20 -20 -20 -20 -20 -20 -20 -20 -20 -20 -20 -5 -5 -14 4 19 -2 15 26 30 -20 -16 22 13 -6 24 -20 16 38 35 35 26 21
-20 -20 -20 -20 -20 -20 -20 -14 -20 -20 -20 -20 -20 -20 -20 -20 -20 -20 -20 -20 -20 -20 -20 -11 -20 1 -20 -20 25 -7 23 -20 -20 -20 -2 -20 -19 12 34 35 35 31 31
-20 -20 -20 -20 -20 -20 -20 -17 -20 -9 -20 -20 -20 -20 -20 -20 -20 -20 -20 -20 6 12 -20 -15 5 19 9 7 26 22 1 -20 -20 0 -20 -20 -20 -20 11 33 31 35 34
-20 -20 -20 -20 -20 -20 -20 -20 -20 -20 -20 -20 -20 -20 -11 -20 -20 -20 -20 -20 4 -4 -10 -17 3 -3 17 -13 23 25 25 -15 -20 -20 -11 -20 -20 -20 -20 5 24 29 33
-20 -20 -20 -20 -20 -20 -20 -20 -20 -20 -17 -17 -20 -18 -20 -20 -20 -20 -20 -0 15 10 6 11 -9 -13 8 16 13 25 24 4 6 -20 -6 -20 -20 -20 -20 6 14 30 17
-20 -20 -20 -20 -20 -20 -20 -20 -20 -20 -20 -20 -20 -20 -20 -20 -20 -20 -20 15 18 13 -2 -16 -20 5 -14 12 13 26 18 1 28 23 -6 -20 -20 -20 -4 20 19 21 7
-20 -20 -20 -20 -20 -20 -20 -20 -20 -20 -20 -20 -20 -20 -20 -20 -20 -20 -19 -10 -16 18 22 -20 -20 -20 -20 -12 21 21 22 10 14 36 -1 -9 -20 -20 -20 -18 -13 27 24

GFSSE_prec_radar_126.txt.gz
Reflectivity
-19 -2 8 20 -11 -20 -20 -20 -20 -20 -20 -7 -20 -20 -20 -20 -20 -20 -20 -20 -20 -20 -20 -20 -20 -20 -20 2 3 -15 -20 -20 -20 -20 -20 -20 -15 -20 -20 -20 -12 5 -11
-20 -9 19 17 -3 -20 -20 -20 -20 -20 -20 -20 3 -18 -20 -20 -20 -20 -20 -20 -20 -20 -20 1 -18 -20 -20 -13 -3 -20 -20 -3 -20 -20 -20 -20 10 10 -20 -20 -20 -19 7
-9 11 20 15 1 -20 -20 -20 -20 -20 -20 -20 -20 -20 -20 -6 -20 -20 -20 -20 -20 -20 -20 -20 15 7 -17 -20 -20 -20 -20 -20 -20 9 -18 -20 -20 -20 -20 -20 -20 -20 -20
-8 -20 -6 15 5 6 -20 -20 -20 -20 -20 -20 -20 10 -16 -20 -20 -20 -20 -20 -20 -14 -20 -20 -20 2 0 5 -20 -20 -20 -20 -20 -20 -20 -20 -10 -20 -20 -20 -20 -20 -20
-20 -13 -7 17 -20 -20 -20 -20 -20 -20 -20 -20 -20 -20 -20 -20 -20 -20 -20 -20 -20 -20 -20 -20 -20 -11 -20 -20 -20 -20 -1 -20 -20 -20 -20 -20 -20 -20 -20 -20 -20 -20 -20
-20 -8 8 -20 -20 8 -18 -19 -20 -20 34 -20 -20 -20 21 -20 4 -20 34 -20 -20 -20 -20 -20 -20 -20 28 -20 -20 -20 -20 -20 -20 -20 -20 -20 -20 -20 -20 -20 -20 -20 -20
-20 -20 -13 2 -20 -20 -20 -9 15 -20 -20 -20 -20 -20 -20 1 -6 -20 -20 -20 -20 -20 -20 -20 -16 -20 -20 -20 -20 -20 -20 -20 -20 -20 -20 -20 -20 -20 -20 -20 -20 -20 -20
-20 -20 -20 -20 -9 1 -20 -20 -20 -20 -20 -20 -20 -20 -20 -20 -20 3 4 -8 -20 -20 -20 -20 -7 -20 -4 -12 -20 -20 -20 -20 -20 -20 -20 -20 -20 -20 -20 -20 -20 -20 -20
-20 -20 -20 -20 -20 -20 -20 -18 -19 -20 -20 -20 -20 -20 -19 -16 5 -20 -11 -15 -20 -20 -20 -20 -20 -19 -4 -13 -17 -20 -20 -20 -20 -20 -20 -20 -20 -20 -20 -20 -20 -20 -20
-20 -20 -20 -20 -20 -20 -20 -20 -20 -20 -20 -20 -20 -20 -20 -20 -20 -20 -20 -20 -20 18 9 -19 -20 -13 -20 -20 -18 -18 -20 -20 -20 -20 -20 -20 -20 -20 -20 -20 -20 -20 -20
-20 -20 -20 -20 -20 -20 -20 -20 -20 -20 -20 -20 -20 -20 -20 -20 -20 -20 -20 -20 -20 12 -20 -2 20 -4 -13 -20 -20 -20 -6 -20 -20 -20 -20 -20 -20 -20 -14 -2 -20 -20 -20
-20 -20 -20 -20 -20 -20 -20 -20 -20 -20 -20 -20 -20 -20 -20 -20 -20 -20 -20 -20 -20 -20 -20 -20 -20 -20 -14 -20 -20 -20 -20 -20 -20 -20 -20 -20 -20 -20 -20 6 -20 -20 -20
-20 -20 -20 -20 -20 -20 -20 -20 -20 -20 -20 -20 -20 -20 -20 -20 -20 -20 -20 -20 -20 -20 -20 -20 -20 -20 -20 -20 -20 -20 -20 -20 -1 -20 -20 -20 -20 -20 -20 4 -4 -20 -20
-20 -20 -20 -20 -20 -20 -20 -20 -20 -20 -20 -20 -20 -20 -20 -20 -20 -20 -20 -20 -20 -20 -20 -20 -20 -20 -20 -20 -20 -20 -20 -20 -20 -20 -18 -20 -20 -20 -20 -20 9 -20 -20
-20 -20 -20 -20 -20 -20 -20 -20 -20 -20 -20 -20 -20 -20 -20 -20 -20 -20 -20 -20 -20 -20 -20 -20 -20 2 13 1 24 23 11 -20 -20 -20 -20 -8 -20 -20 -20 -20 -19 9 -6
-20 -20 -20 -20 -20 -20 -20 -20 -20 -20 -20 -20 -20 -20 -20 -20 -20 -20 -20 -20 -20 -20 -20 -20 -14 -4 -9 11 22 15 23 13 -20 -2 -20 25 6 -20 -20 -20 -14 2 19
-20 -20 -20 -20 -20 -20 -20 -20 -20 -20 -20 -20 -20 -20 -20 -20 -20 -20 -20 -20 -20 -20 -20 -20 -6 -1 -6 -3 -7 -17 19 -20 20 12 18 21 24 16 -8 10 -20 -19 -10
-20 -20 -20 -20 -20 -20 -20 -20 -20 -20 -20 -20 -20 -20 -20 -20 -20 -20 -20 -20 -20 -20 -16 -17 -17 -20 -9 10 2 20 29 22 25 -20 -4 23 23 8 12 19 -8 1 -1
-20 -20 -20 -20 -20 -20 -20 -20 -20 -20 -20 -20 -20 -20 -20 -20 -20 -20 -20 -20 -20 -20 -20 -20 -15 3 -5 3 18 -19 -20 -15 -20 -14 -0 -5 23 24 24 3 -5 17 -5
-20 -20 -20 -20 -20 -20 -20 -20 -20 -20 -20 -20 -20 -20 -20 -20 -20 -20 -20 -20 -20 -4 1 -20 -20 -20 -16 5 2 -6 22 25 24 -20 -20 -20 -2 22 21 20 14 -15 17
-20 -20 -20 -20 -20 -20 -20 -20 -20 -20 -20 -20 -20 -19 -20 -20 -20 -20 -20 -20 -20 -20 -20 9 -16 -20 -20 7 22 24 -20 -18 -20 -20 12 -20 -20 -20 -20 17 -10 -20 7
-20 -20 -20 -20 -20 -20 -20 -20 -20 -20 -20 -20 -20 -20 -20 -20 -20 -20 -20 -20 -20 -20 -20 -5 12 10 7 -20 22 14 3 18 -16 -5 0 -19 28 18 -12 -20 -20 -20 -20
-20 -20 -20 -20 -20 -20 -20 -20 -20 -20 -20 -20 -20 -20 -20 -20 -20 -20 -20 -20 -12 -20 -20 -19 0 18 3 -5 21 24 26 10 -20 18 -20 2 1 -15 -20 -20 -20 -20 -20
-20 -20 -20 -20 -20 -20 -20 -20 -20 -15 -20 -19 -20 -20 -20 -20 -20 -20 -20 -20 -20 -20 -20 -16 1 9 22 8 28 -19 -9 -4 22 -20 -20 -20 -20 -5 -20 -20 -20 -12 5
-20 -20 -20 -20 -20 -20 -20 -20 -20 -20 -20 -20 -20 -20 -20 -20 -20 -20 -20 -20 -20 -20 -6 -11 3 8 12 20 16 30 12 4 31 21 3 23 20 -8 -8 -11 -13 14 -1
-20 -20 -20 -20 -20 -20 -20 -20 -20 -20 -20 -20 -20 -20 -20 -20 -20 -20 -20 -20 -20 -20 -20 14 16 8 27 22 22 28 -14 -13 -20 -17 24 16 -1 7 9 32 26 4 18